GFSGBSN_sfc_dewp_003.txt.gz
Dewpoint
56 56 56 55 55 55 55 54 55 55 55 55 55 55 54 55 55 55 56 55 55 55 54 54 54 55 52 42 30 32 51 49 43 34 30 28 26 26 20 21 23 20 20 22 21 21 21
56 56 56 56 55 54 54 54 55 55 55 55 55 55 55 54 55 56 56 55 55 55 54 54 54 54 48 36 31 32 32 32 30 29 25 26 28 28 28 26 25 27 24 23 23 23 21
56 56 56 56 55 55 55 55 54 54 54 55 55 54 54 54 55 55 55 55 55 55 54 53 54 50 50 31 29 31 32 32 30 29 28 26 29 29 30 32 30 25 22 24 23 21 15
56 56 56 56 55 55 55 55 54 54 54 54 55 54 54 54 54 54 54 54 54 54 54 54 54 50 36 34 33 31 31 32 32 32 29 29 27 31 32 30 29 25 25 19 22 20 20
56 55 56 56 55 56 55 55 54 54 54 54 54 54 54 54 53 54 53 54 54 55 54 54 52 50 31 39 32 30 33 32 34 33 32 29 32 29 31 29 26 21 17 18 20 16 16
55 55 55 56 56 56 56 55 54 54 54 54 54 54 54 53 53 54 54 54 55 53 53 50 47 41 32 31 31 30 27 29 33 33 33 33 30 27 24 22 18 18 17 18 20 18 19
54 54 55 56 56 56 56 56 54 54 54 54 54 54 53 53 54 53 52 50 36 41 42 29 28 29 26 28 32 26 26 27 30 31 27 23 26 22 20 23 23 20 17 18 21 22 23
53 53 54 56 56 56 56 56 55 54 54 54 54 53 53 53 53 53 52 48 47 48 36 32 27 27 29 29 27 25 26 26 27 24 23 22 25 24 22 22 22 21 21 24 23 25 25
52 52 54 56 56 56 56 56 55 54 53 53 53 53 53 52 52 55 48 48 53 55 45 30 31 29 29 30 29 25 25 26 27 23 21 21 26 23 22 24 22 21 25 25 25 27 27
51 51 54 55 55 55 55 55 55 54 54 53 53 53 53 52 46 52 48 51 56 57 43 26 30 30 29 30 32 27 27 29 31 25 20 24 25 20 22 24 23 21 27 27 27 27 24
50 51 53 54 54 54 54 54 54 54 54 53 53 53 53 52 55 48 50 53 55 56 29 33 27 27 25 26 25 29 28 31 25 22 24 24 21 20 24 23 25 25 29 28 29 28 26
50 52 53 54 54 54 54 54 54 54 54 53 52 53 53 52 55 52 56 58 56 43 30 31 28 29 30 28 28 26 31 32 31 29 24 21 23 24 25 26 28 30 31 31 33 28 25
52 53 53 54 54 54 54 54 53 53 53 52 52 52 53 56 52 54 58 56 41 32 33 26 29 28 28 27 28 27 30 31 30 30 30 30 25 26 30 28 31 29 31 27 24 24 24
54 53 53 54 54 54 54 53 53 53 53 52 52 52 56 57 58 58 58 47 30 32 29 30 29 27 29 26 29 28 29 29 32 31 30 30 27 29 30 30 29 29 29 27 22 22 25
55 54 53 54 54 54 54 53 53 52 52 52 52 55 56 57 58 58 52 38 33 32 29 29 28 27 29 31 28 29 30 30 31 32 31 32 30 33 30 31 30 30 31 32 27 25 24
54 54 53 54 54 54 53 53 53 52 52 52 53 56 52 56 57 57 47 36 31 31 29 31 30 28 29 28 29 29 30 32 33 34 35 34 31 35 34 34 33 31 33 29 29 24 23
53 53 54 54 54 53 53 53 53 52 52 51 57 50 52 54 57 51 39 30 29 28 32 33 32 32 32 31 32 31 32 34 34 34 35 36 35 33 35 33 32 30 30 31 32 30 29
52 52 53 54 54 54 53 53 53 52 51 53 55 47 52 56 47 47 37 33 34 33 35 36 36 36 34 35 34 33 35 36 36 35 36 37 33 29 32 33 33 29 32 32 32 32 30
52 52 53 54 54 54 53 53 53 52 52 49 50 48 54 53 36 37 35 36 37 36 35 36 37 36 36 36 32 36 37 39 35 38 36 36 32 27 29 31 34 33 32 33 33 31 29
52 52 52 53 54 54 53 53 53 52 52 52 50 38 50 51 47 38 36 36 36 39 37 36 36 38 37 35 37 34 35 39 40 39 41 39 35 30 28 30 34 32 32 32 32 24 28
52 52 52 53 54 54 53 53 52 52 52 53 49 40 43 39 41 39 39 37 36 38 39 37 37 37 35 33 32 34 37 38 39 42 39 37 31 34 34 35 34 34 32 32 31 30 28
52 52 52 53 53 53 53 53 52 52 51 52 46 45 47 40 40 39 37 37 35 34 35 37 35 38 37 35 37 36 38 38 37 38 38 39 31 33 34 35 35 32 32 31 31 31 30
52 52 52 52 52 52 53 51 51 52 52 53 49 47 48 43 40 36 37 37 37 38 39 37 37 37 34 40 41 41 41 41 40 38 36 35 31 31 31 34 33 26 29 30 30 29 29
52 52 52 53 52 52 51 51 52 51 52 54 53 51 39 35 36 39 39 37 36 39 38 39 38 35 42 43 42 41 39 40 41 39 38 31 30 29 31 29 26 30 31 29 30 31 32
51 51 52 52 52 52 50 50 52 51 52 53 54 51 41 34 41 41 40 39 39 40 39 40 41 44 44 43 36 33 30 28 29 37 40 38 32 32 31 29 29 31 32 31 29 28 38
51 51 51 52 52 52 51 51 52 51 52 53 56 54 45 36 38 44 39 40 36 36 37 40 45 45 43 35 35 29 22 27 27 29 39 39 36 32 28 24 24 27 31 36 34 29 40
51 51 51 51 51 51 51 51 51 51 51 53 54 57 52 42 46 43 40 39 42 39 36 38 41 38 43 35 33 31 28 32 26 26 25 29 27 25 19 27 28 32 34 40 28 32 39
50 50 50 50 50 50 50 50 50 50 51 53 54 57 53 43 47 47 47 44 43 41 34 39 38 37 36 33 34 32 32 31 29 30 27 26 25 29 29 30 25 36 35 29 34 39 40
50 50 50 50 50 50 50 50 50 50 50 51 51 57 56 49 48 52 52 52 49 48 45 42 40 41 40 34 33 34 33 34 33 31 32 30 31 28 31 29 35 36 35 37 37 38 41

GFSGBSN_sfc_dewp_006.txt.gz
Dewpoint
56 56 56 55 55 55 55 54 55 55 55 55 55 55 55 55 55 56 55 55 55 55 54 54 55 55 48 35 30 31 54 46 32 32 29 27 28 27 26 24 23 20 20 21 21 21 20
56 57 56 56 55 55 55 54 54 54 54 54 54 54 55 55 55 56 56 55 55 55 54 54 55 54 42 30 31 31 32 32 30 29 27 26 27 28 29 25 25 28 24 23 22 22 23
56 56 56 56 56 56 56 55 55 54 54 54 54 54 54 54 55 55 55 55 55 54 54 54 54 50 48 29 30 32 32 31 30 32 28 26 29 27 28 29 29 27 23 23 23 22 20
56 56 56 56 56 56 56 55 55 54 54 54 54 54 54 53 53 54 54 54 54 54 54 54 54 50 33 33 33 31 31 33 33 33 32 27 28 29 32 30 30 26 23 19 21 23 18
55 55 56 56 56 56 56 55 54 54 54 54 54 54 53 53 53 53 53 53 54 54 55 54 50 47 34 38 31 30 30 31 32 34 34 30 33 30 27 24 20 20 16 18 20 18 17
55 54 55 56 56 56 56 56 54 54 54 54 54 54 53 53 53 52 52 53 54 54 53 51 47 38 33 30 30 30 26 27 29 33 32 34 30 25 23 20 16 18 16 17 20 20 24
54 54 55 56 56 56 56 56 55 54 54 54 54 53 53 53 53 52 49 48 44 35 40 27 29 30 27 27 31 25 26 28 30 33 28 25 23 20 19 22 22 21 21 22 22 23 26
52 52 55 56 56 56 56 56 55 54 54 54 54 53 53 53 52 52 53 46 47 46 36 30 29 28 28 29 28 26 27 26 29 23 22 24 23 24 22 24 23 21 25 23 25 26 28
51 52 55 56 56 56 56 56 55 54 54 53 53 53 53 52 51 52 48 49 54 53 41 28 30 29 27 29 28 25 26 27 28 24 21 23 24 24 22 24 22 22 25 25 25 28 28
50 52 54 55 55 55 55 55 55 54 54 53 53 53 53 52 45 51 48 50 53 54 35 27 29 29 28 28 30 27 27 29 26 24 22 25 23 20 25 24 24 22 25 27 27 27 24
50 52 53 54 54 54 54 54 54 54 54 53 52 53 52 53 52 48 49 53 56 50 25 31 27 27 26 25 25 26 27 29 25 23 23 22 20 21 23 23 26 24 28 30 30 28 26
50 52 53 54 54 54 54 54 53 53 53 53 52 52 52 54 51 50 54 56 52 39 28 30 28 29 29 28 26 29 33 34 34 32 30 22 23 23 25 27 30 30 31 31 32 28 24
51 52 53 54 54 54 54 53 53 53 53 52 52 52 52 56 49 54 57 50 39 28 34 27 29 28 30 27 28 30 32 31 30 25 29 31 26 26 30 28 30 30 30 26 23 23 23
53 52 53 53 54 54 53 53 53 52 52 52 51 51 55 57 57 56 52 43 29 34 29 29 29 28 29 27 27 31 30 29 32 32 31 31 27 31 29 30 29 29 31 26 21 21 24
54 53 53 53 54 53 53 53 53 52 52 52 51 55 53 54 57 57 46 34 29 32 30 29 29 27 29 29 26 30 31 31 31 33 30 31 30 34 32 31 31 30 29 31 27 23 23
54 53 53 53 53 53 53 53 53 52 52 51 50 53 48 54 55 52 40 32 30 31 32 34 30 30 29 30 30 30 31 34 33 35 35 35 31 35 35 35 33 31 32 28 29 19 25
52 53 53 53 53 53 53 53 52 52 52 50 56 44 46 54 54 45 33 29 30 30 33 33 33 33 33 33 34 32 34 35 35 34 37 35 34 31 33 33 32 29 31 31 32 30 26
52 52 52 53 53 53 53 52 52 52 51 51 52 37 44 51 40 42 32 32 34 32 36 36 36 35 34 34 34 34 35 35 36 37 35 36 32 28 30 33 34 33 33 33 27 29 29
51 52 52 53 53 53 52 52 52 52 51 49 46 45 50 49 32 33 35 35 37 36 35 36 36 36 36 35 31 35 36 38 35 37 34 34 30 26 25 27 34 33 32 33 33 29 27
51 51 52 53 53 53 52 52 52 52 52 51 43 38 45 46 44 36 34 36 35 38 37 36 36 36 35 35 36 32 35 39 39 38 40 38 33 29 25 26 33 32 32 32 31 23 29
51 51 52 52 52 52 52 52 52 51 51 51 45 38 42 35 38 36 38 38 36 36 38 36 36 37 35 31 32 35 38 38 39 41 38 36 30 32 33 33 34 34 33 34 33 31 28
51 51 51 52 52 52 52 50 50 51 51 47 43 43 43 41 41 36 37 35 36 34 36 36 36 39 38 35 35 34 38 37 36 38 37 38 30 32 32 35 35 34 34 34 33 32 30
52 52 52 52 52 52 50 50 52 51 52 48 49 47 43 38 36 34 35 36 37 38 39 37 36 36 33 39 40 40 40 39 39 38 34 34 30 27 27 33 32 30 31 31 30 30 29
51 52 52 52 52 52 50 50 51 51 51 52 50 46 37 33 32 35 39 38 38 38 37 38 37 34 40 43 41 38 35 36 39 38 39 30 29 29 27 30 25 30 32 32 30 31 31
51 51 52 52 52 52 49 50 51 50 51 52 52 48 39 33 37 39 38 38 38 38 38 38 41 41 43 39 31 27 27 25 26 37 39 37 33 30 27 29 29 31 31 30 29 30 36
51 51 51 51 51 51 51 51 51 50 51 52 54 51 43 35 36 43 39 39 34 33 35 39 44 44 42 34 28 21 20 25 27 29 39 36 32 26 29 26 23 26 29 35 36 29 38
50 51 51 51 50 51 51 51 51 51 51 52 52 54 48 39 44 43 38 37 41 37 35 36 40 36 40 35 29 27 25 32 27 23 22 27 31 24 19 25 25 30 32 36 23 26 35
50 50 50 50 50 50 50 51 50 50 51 52 52 55 50 42 45 47 46 42 43 40 34 38 38 36 35 33 31 29 31 29 29 30 27 25 24 27 27 26 25 35 35 31 33 36 37
50 50 50 50 50 50 50 50 50 50 50 51 49 54 54 47 44 51 51 51 48 44 43 40 38 38 38 34 33 29 32 33 27 29 33 30 30 27 28 28 33 35 35 37 39 36 37

GFSGBSN_sfc_dewp_009.txt.gz
Dewpoint
56 56 55 55 55 55 55 55 55 54 54 54 55 55 55 55 54 55 55 55 55 55 55 54 55 56 46 30 30 31 54 46 31 31 26 27 27 27 25 24 23 19 19 21 21 21 20
56 56 56 56 56 55 55 55 54 54 54 54 54 54 55 55 55 55 55 55 55 55 55 54 55 55 40 26 30 31 32 32 30 31 28 25 27 29 28 28 24 27 25 23 23 21 23
55 56 56 56 56 56 56 55 54 54 54 54 54 54 54 54 54 54 55 55 55 54 54 54 55 50 42 29 30 32 31 32 31 32 30 27 30 26 30 28 29 26 23 24 24 23 22
55 55 55 56 56 56 56 55 54 54 54 54 54 54 53 53 53 53 54 54 54 54 54 54 54 50 32 34 33 30 31 31 32 33 34 31 30 29 29 30 27 22 20 17 19 23 19
55 55 56 56 56 56 56 55 54 54 54 54 54 53 53 53 53 53 53 53 54 54 54 54 48 43 32 39 30 30 27 26 27 31 33 32 29 28 26 19 19 20 15 16 18 23 23
54 54 56 56 56 56 56 55 54 54 54 54 54 53 53 53 53 52 53 54 54 54 51 48 46 33 30 28 29 27 26 28 27 30 31 30 28 23 22 20 16 18 16 19 19 21 27
53 54 56 56 56 56 56 56 55 54 54 54 54 53 53 53 52 52 51 49 42 33 39 28 28 29 26 26 30 26 27 28 29 26 24 27 23 19 19 21 21 21 22 23 23 23 27
51 53 55 56 56 56 56 56 55 54 54 53 53 53 53 52 52 52 50 46 45 43 30 34 29 28 28 28 25 26 26 25 26 22 23 25 22 23 23 24 22 23 23 22 25 26 28
50 53 55 56 55 55 55 55 55 54 54 53 53 53 53 52 51 50 48 50 55 51 32 28 29 28 28 27 27 25 25 28 26 22 22 23 23 22 24 24 22 22 23 23 24 27 28
49 52 54 55 55 55 55 55 54 54 54 53 53 53 52 52 49 50 47 50 53 48 29 27 27 28 27 28 27 27 27 29 25 23 23 25 21 23 24 23 25 22 24 27 27 27 23
49 52 53 54 54 54 54 54 54 54 54 53 52 52 52 53 49 46 50 54 55 46 21 29 26 28 27 25 25 28 33 28 27 28 23 23 19 22 22 24 27 26 30 29 30 28 27
49 52 53 54 54 54 54 53 53 53 53 53 52 52 52 54 49 49 54 54 50 36 25 28 27 27 27 28 28 32 34 34 34 31 30 29 24 24 25 27 30 30 31 30 30 28 23
50 52 53 54 54 54 54 53 53 53 53 52 52 52 53 55 44 54 55 47 36 26 32 26 27 27 29 26 29 31 32 31 30 21 28 32 30 31 30 28 31 30 30 23 20 22 22
52 52 52 53 54 53 53 53 53 52 52 52 51 52 56 56 55 54 48 40 26 32 30 29 27 27 26 25 29 32 30 30 32 32 31 30 25 32 32 29 28 29 30 25 18 19 23
53 53 52 53 53 53 53 53 53 52 52 52 52 55 50 51 55 54 41 31 27 30 30 29 29 27 28 31 28 30 31 31 33 33 29 31 29 34 34 34 31 30 29 31 26 22 22
53 53 53 53 53 53 52 52 52 52 52 51 53 48 45 53 55 45 38 31 29 31 32 34 28 31 28 31 30 30 31 34 32 36 35 34 31 34 34 34 34 30 32 28 29 18 22
52 53 53 53 53 52 52 52 52 52 52 51 55 37 43 54 50 41 32 28 29 30 33 34 33 32 33 32 33 32 33 34 34 34 35 33 32 29 31 31 31 31 31 31 31 29 26
51 52 52 53 53 52 52 52 52 52 51 53 46 35 43 48 40 39 31 31 36 35 37 36 36 35 34 34 34 34 34 34 36 36 33 36 31 28 29 32 34 32 32 31 29 27 27
51 51 52 53 53 52 52 52 52 52 51 49 45 43 48 43 33 31 34 36 37 34 35 35 34 35 37 35 31 34 35 37 34 36 33 34 29 24 22 25 30 32 33 33 31 28 27
51 51 51 52 53 52 52 52 51 51 51 51 40 36 43 43 41 34 33 34 34 37 36 36 35 37 35 34 35 32 36 39 40 37 41 37 32 27 25 23 30 30 32 33 31 26 27
51 51 51 52 52 52 51 49 51 51 51 49 42 36 42 34 37 37 37 37 35 34 36 37 37 37 34 30 32 35 37 37 38 40 37 35 30 31 32 32 33 33 33 34 33 32 30
51 50 50 51 52 52 49 50 51 51 51 46 43 41 41 41 41 34 35 34 35 35 36 35 36 38 37 34 34 34 37 36 36 37 36 37 29 31 30 34 34 33 34 34 34 34 33
51 50 50 51 52 50 48 49 51 51 51 47 47 45 41 36 33 33 34 35 36 37 37 37 37 35 32 38 40 39 39 38 37 36 33 33 29 28 24 32 31 24 29 32 32 30 29
51 51 51 52 52 49 48 49 50 50 51 50 48 42 37 32 30 34 38 37 36 36 37 37 36 33 37 41 38 36 33 33 35 35 38 31 29 27 22 30 21 27 31 31 30 31 31
50 51 51 52 52 50 48 50 50 50 51 52 50 44 39 32 36 37 38 37 37 37 37 37 41 40 41 36 30 25 26 23 25 39 37 35 32 28 27 27 26 29 29 30 28 28 33
50 51 51 51 51 51 51 51 50 50 51 53 51 46 41 35 35 41 38 38 33 32 34 38 43 43 40 31 27 20 19 24 27 28 37 34 29 26 28 26 23 26 27 32 35 29 36
50 51 51 51 51 51 51 51 51 50 51 52 52 50 46 36 41 43 37 36 39 36 34 34 38 36 39 33 28 22 24 30 26 21 22 26 30 26 25 25 26 29 31 34 27 28 33
50 50 50 50 50 50 50 51 51 51 51 51 50 52 48 40 43 46 45 41 41 38 34 37 37 35 35 32 26 28 19 27 28 29 27 25 25 23 27 26 21 33 34 30 34 35 36
50 50 50 50 50 50 50 50 50 50 50 51 49 53 52 46 44 50 50 49 45 43 41 39 38 36 37 34 33 26 28 31 30 29 32 30 30 27 27 28 32 32 35 36 37 37 37

GFSGBSN_sfc_dewp_015.txt.gz
Dewpoint
55 56 55 55 56 56 56 56 56 55 54 54 54 55 55 53 54 54 55 55 55 55 56 55 56 56 49 33 31 31 53 45 33 33 27 29 29 29 25 24 24 21 19 20 20 18 19
55 55 55 56 56 56 56 56 55 55 54 54 54 54 54 55 55 55 56 55 55 55 55 55 56 56 42 30 31 32 31 32 31 32 29 29 28 29 30 26 27 26 25 24 23 22 23
55 55 56 56 56 56 56 56 55 54 54 54 54 54 54 55 55 55 55 55 54 54 55 55 55 52 35 35 34 33 28 34 30 34 31 28 29 29 30 29 30 24 19 21 23 23 20
55 54 56 56 56 56 56 56 54 54 54 54 54 54 53 54 54 54 54 54 54 54 54 55 55 50 35 35 37 29 27 28 29 32 34 34 33 32 29 29 23 20 20 19 21 25 23
55 54 56 56 56 56 56 56 55 54 54 53 53 53 53 53 53 53 53 53 53 54 54 54 50 43 34 37 29 30 28 27 29 33 34 30 31 29 26 20 19 21 14 18 20 26 27
53 54 56 56 56 56 56 56 55 54 54 53 53 53 53 52 52 52 52 53 54 53 52 49 37 34 29 26 27 28 28 31 30 35 32 31 27 24 24 20 14 19 17 20 21 23 28
52 54 56 56 56 56 56 56 54 54 54 53 54 53 52 52 52 53 51 49 35 35 36 29 32 29 25 27 29 28 28 31 29 29 27 29 24 21 21 22 21 20 20 22 23 25 28
51 54 55 56 56 56 56 55 54 54 54 54 54 53 53 53 52 53 51 46 42 43 29 32 30 29 29 29 27 29 31 28 29 23 25 26 23 22 24 24 22 21 21 20 24 26 29
50 53 54 55 56 56 55 55 55 54 53 53 53 53 53 52 52 52 52 52 55 49 30 29 30 30 29 29 29 30 30 32 25 25 25 25 21 26 25 26 27 26 22 23 23 27 28
49 52 54 55 55 55 54 54 54 54 53 53 52 53 53 51 48 51 49 52 55 48 29 26 27 27 28 30 28 32 34 31 30 23 25 23 23 27 28 26 27 25 25 29 27 28 23
49 52 53 54 54 54 54 54 54 54 53 52 52 52 52 49 50 48 50 54 57 43 20 27 27 28 29 27 29 31 35 34 31 29 27 22 26 28 28 26 28 29 31 31 29 29 27
49 52 53 54 54 54 54 53 53 53 53 52 52 52 51 49 51 52 55 53 49 33 20 28 28 28 28 31 32 33 34 36 33 32 33 30 30 28 28 29 31 32 31 28 29 29 25
50 52 52 53 54 53 53 53 53 53 52 52 53 54 54 51 45 54 53 47 33 27 32 26 26 28 28 29 32 32 32 33 31 25 31 31 30 33 32 30 32 32 27 24 28 28 26
52 52 52 53 53 53 53 53 52 52 52 52 53 53 53 54 55 54 48 40 27 31 30 30 27 30 27 29 31 33 31 31 34 32 32 29 24 31 34 31 29 31 30 29 20 24 25
53 53 52 53 53 53 53 53 52 52 52 51 52 49 50 53 55 50 42 33 29 30 30 28 30 28 29 32 31 32 32 31 33 35 31 31 27 33 35 34 31 30 31 31 28 25 29
52 52 52 53 53 52 52 52 52 52 52 52 49 46 48 52 53 45 40 32 31 33 32 32 29 32 29 32 31 31 31 33 31 36 35 34 29 31 32 33 34 32 32 29 32 26 22
51 52 52 52 52 52 52 52 52 52 52 52 45 42 47 53 47 39 34 30 32 36 36 33 33 33 32 33 32 31 31 33 34 35 36 32 31 28 30 31 31 32 31 32 31 31 28
51 51 51 52 52 52 52 51 50 50 51 48 42 40 49 50 37 36 32 31 36 36 37 36 37 36 34 35 34 33 33 34 36 37 34 35 32 27 26 31 34 33 31 29 27 24 30
50 50 51 50 50 52 51 50 50 51 51 48 43 43 47 46 35 34 37 36 36 35 36 35 36 38 37 35 33 35 36 40 38 37 36 35 31 24 18 25 29 32 33 32 31 32 29
50 50 51 50 51 52 50 50 50 51 51 46 40 40 43 43 40 36 35 35 35 37 37 38 36 37 36 35 37 36 36 40 41 39 41 39 32 27 22 20 27 29 31 32 33 32 28
50 50 50 50 50 49 50 50 50 51 51 46 42 40 41 36 39 38 37 35 34 33 37 38 37 36 34 32 35 36 37 37 38 40 39 37 33 32 31 31 32 31 31 32 32 32 31
50 50 50 50 50 49 50 50 50 51 50 45 42 41 41 39 39 36 35 37 36 36 36 37 36 38 37 34 32 34 37 37 36 37 37 36 33 34 32 32 31 31 31 32 33 33 33
51 51 50 50 50 49 49 50 50 50 50 46 46 44 42 36 34 35 35 36 36 37 38 38 38 36 33 37 39 40 40 39 37 37 36 36 34 31 27 29 29 27 26 31 30 32 32
51 50 49 49 51 49 49 50 50 50 50 49 47 41 39 35 33 35 37 37 36 37 36 38 37 35 38 41 38 35 31 33 34 37 38 33 33 31 31 29 23 26 30 30 30 30 31
50 51 51 51 52 49 50 50 50 50 51 50 47 42 38 33 36 37 37 38 37 38 38 39 42 41 40 37 35 30 29 26 30 36 36 35 34 31 29 27 28 28 27 29 30 28 31
50 50 51 51 51 51 51 50 50 50 51 52 50 45 40 36 37 38 38 38 35 35 36 41 43 42 39 34 33 28 25 25 26 29 34 34 32 34 30 27 25 30 27 31 34 29 34
49 50 50 51 51 51 51 51 50 50 51 53 52 49 43 38 40 41 38 38 38 37 36 36 41 39 39 34 32 31 31 29 27 25 24 30 31 30 30 28 30 32 32 33 30 32 36
49 49 50 50 50 50 50 51 50 50 50 52 52 51 47 40 43 45 43 40 40 39 37 39 39 38 37 34 33 33 30 31 30 29 27 28 29 28 29 27 25 31 32 33 36 38 37
49 49 50 50 50 50 50 51 51 50 50 50 50 51 50 46 42 49 51 49 45 42 41 39 39 37 39 35 33 31 32 30 31 31 31 31 32 31 31 32 34 33 36 37 38 38 39

GFSGBSN_sfc_dewp_018.txt.gz
Dewpoint
54 55 55 55 56 56 56 56 56 56 55 55 54 55 55 54 54 54 55 55 55 55 55 55 56 56 51 31 28 30 53 46 32 29 27 26 21 20 14 16 18 19 20 20 18 17 17
55 56 56 56 56 56 56 55 55 55 54 54 54 54 55 55 55 54 55 55 55 55 55 55 56 55 40 26 30 30 27 28 29 29 28 27 27 26 25 24 22 26 23 23 23 21 23
55 56 55 56 57 56 56 56 55 54 54 54 54 54 54 55 55 55 55 55 55 54 55 55 55 51 31 29 31 29 27 28 28 31 29 30 29 27 29 29 28 24 23 23 23 23 22
55 55 55 56 56 56 56 56 55 54 54 54 54 54 54 54 54 54 54 54 54 54 55 54 55 49 29 32 32 27 25 26 30 32 32 32 30 29 29 28 22 18 19 16 23 23 25
55 54 55 57 56 56 56 56 55 54 53 54 53 53 53 53 53 53 53 53 53 54 54 54 49 37 25 37 26 28 27 27 30 32 33 29 28 27 25 21 16 15 11 13 19 24 25
54 54 56 57 56 56 56 55 55 54 54 54 53 53 53 53 53 53 53 53 54 53 50 46 34 29 26 25 27 27 27 29 28 30 28 28 27 22 19 13 9 13 13 18 17 21 23
52 53 55 56 56 56 56 55 55 54 54 54 54 53 52 52 53 53 52 49 37 34 32 27 27 26 25 26 29 28 27 28 26 27 23 27 22 21 20 23 21 19 18 17 18 24 26
51 53 55 56 56 56 55 55 55 54 54 53 54 54 53 53 53 53 53 40 42 40 27 29 27 26 27 28 25 29 31 24 25 21 26 21 23 23 24 24 22 22 19 20 23 25 28
50 52 54 55 55 55 55 55 55 54 54 53 53 54 53 52 53 55 52 51 55 49 27 27 28 27 26 30 30 30 30 27 23 22 23 21 22 24 25 27 25 25 23 26 25 26 28
50 52 53 55 55 55 54 54 54 54 53 53 52 53 53 52 50 51 49 52 57 49 25 23 24 26 27 27 28 32 33 28 26 24 22 23 25 27 27 27 28 23 27 29 28 26 19
50 52 53 54 54 54 54 54 54 54 53 53 52 53 52 52 53 43 51 56 58 50 24 26 25 27 30 27 28 30 34 31 27 27 27 23 26 27 27 27 30 29 32 31 30 28 26
50 52 53 54 54 54 53 53 53 53 53 52 53 53 52 51 56 54 57 56 54 37 21 25 26 27 28 31 30 30 32 32 32 29 28 28 30 30 30 30 30 32 31 30 31 31 27
51 52 53 53 54 53 53 53 53 53 52 52 53 54 54 53 49 58 58 51 32 30 30 23 25 27 29 30 31 30 32 33 29 26 27 27 29 32 33 27 32 30 28 27 30 29 26
52 52 53 53 54 53 53 53 52 52 52 53 52 53 54 55 58 58 53 43 27 29 27 27 27 28 27 30 31 32 29 28 33 30 27 26 26 31 34 32 30 31 30 31 21 25 25
52 52 53 53 53 53 53 53 52 52 52 52 52 54 55 57 59 56 44 41 33 28 27 26 27 26 28 30 30 31 32 31 33 34 29 28 26 32 33 33 32 30 31 32 30 31 31
52 52 52 52 53 52 52 52 50 51 52 52 48 50 52 57 57 52 46 33 30 31 31 28 26 28 27 29 29 30 31 33 32 35 36 33 28 29 31 33 34 32 33 31 32 30 17
51 52 52 51 52 52 52 50 51 51 52 52 50 42 52 57 53 43 41 34 31 34 34 31 30 30 31 31 31 31 31 33 33 34 35 31 31 27 30 31 30 32 32 30 29 31 25
51 51 51 50 51 52 50 50 50 51 51 52 50 41 53 56 41 40 35 32 36 35 36 36 36 34 33 34 33 33 33 34 37 36 32 36 34 26 23 32 34 32 30 28 28 20 29
50 51 51 50 51 51 50 50 51 51 52 51 46 46 51 52 44 45 37 36 36 34 35 34 36 36 37 35 34 35 35 38 37 36 35 36 33 22 21 29 32 32 31 31 31 32 29
50 50 51 50 51 50 50 50 51 51 52 50 45 48 46 44 42 37 36 35 35 37 37 37 36 36 36 36 36 36 36 38 40 38 41 40 33 26 18 18 25 25 25 27 29 32 27
50 51 50 50 51 50 50 50 50 51 51 50 46 45 45 45 42 39 37 35 34 34 37 37 35 35 35 36 34 36 36 37 37 40 40 38 30 30 28 27 27 29 28 27 27 30 29
50 51 50 50 50 50 50 50 50 51 51 49 46 45 44 42 41 38 39 36 34 35 34 34 34 36 34 32 29 33 32 33 31 38 38 37 33 34 30 30 28 29 28 28 30 30 29
51 51 50 50 50 49 50 50 50 51 51 50 49 46 46 40 39 42 39 36 35 37 39 37 38 37 38 35 37 41 41 39 37 36 36 37 37 34 33 30 31 32 29 28 29 28 29
51 50 49 50 50 49 50 50 50 50 51 52 50 46 50 44 43 39 37 37 37 37 38 38 37 42 39 42 41 38 37 37 37 38 39 39 38 36 35 34 30 28 29 29 29 29 28
50 50 50 51 50 49 50 50 50 50 51 52 50 47 46 37 43 39 39 39 40 40 39 39 42 42 43 41 42 40 35 37 36 36 37 38 39 35 32 30 28 27 28 29 29 30 31
50 50 51 52 52 52 51 50 50 50 52 54 53 49 47 40 45 38 40 40 41 42 42 43 43 44 43 45 41 36 32 26 26 30 36 36 38 40 34 30 28 29 29 32 34 28 35
50 50 51 51 52 51 51 51 50 50 51 55 54 54 47 50 42 42 41 41 41 42 42 43 43 43 43 44 37 39 34 30 27 33 32 35 35 34 33 32 32 32 32 34 31 34 38
49 49 50 50 51 51 51 51 50 50 50 54 55 55 51 47 45 46 43 42 41 42 45 44 44 44 44 38 37 38 36 36 32 29 31 31 36 33 33 30 29 32 32 35 38 39 39
49 49 49 50 50 50 50 51 50 49 50 52 53 55 53 51 48 51 52 48 47 43 43 46 42 42 45 43 40 39 34 35 39 34 32 32 34 32 32 33 35 36 36 38 40 41 41

GFSGBSN_sfc_dewp_021.txt.gz
Dewpoint
53 54 55 56 55 56 57 56 55 55 56 56 55 55 55 55 54 54 55 55 55 55 55 56 56 57 52 37 25 28 51 50 34 28 23 19 16 13 8 7 7 10 10 7 8 10 11
54 55 56 56 56 57 56 57 56 56 56 55 55 55 55 55 55 54 55 55 55 55 55 55 56 56 45 27 28 27 26 26 27 24 19 19 18 17 10 12 15 18 18 19 18 18 18
55 55 56 56 57 57 56 57 56 55 55 55 55 55 55 55 55 56 56 55 55 55 55 55 56 49 40 28 27 26 25 25 26 28 22 25 23 19 22 23 22 20 19 21 21 21 20
55 55 54 56 57 56 56 57 56 55 54 54 54 54 54 55 55 55 55 55 54 55 55 55 55 48 31 29 29 24 23 24 28 30 30 29 28 27 25 26 20 18 19 18 20 21 23
55 55 54 56 57 56 56 56 55 54 54 54 54 54 54 54 54 54 54 54 54 55 55 55 51 49 25 36 25 23 25 23 28 31 30 26 28 25 26 22 18 15 13 11 19 20 20
54 54 55 57 57 56 57 56 55 54 53 53 53 53 53 53 53 53 53 53 54 54 51 44 37 31 23 22 23 25 26 29 29 31 29 28 25 22 17 14 12 11 9 12 12 20 16
54 52 54 56 56 57 56 55 55 54 53 53 52 53 53 53 54 53 52 46 38 40 33 27 24 24 21 23 28 25 27 27 27 28 25 24 22 20 18 19 16 14 14 13 15 20 21
53 51 53 56 56 56 55 55 54 54 53 53 53 54 53 53 53 54 55 42 43 39 27 27 27 28 28 28 22 26 29 26 27 21 22 18 22 22 21 21 19 19 18 18 20 22 23
53 50 53 55 55 55 55 55 54 54 54 53 53 53 54 54 53 55 50 48 51 46 26 26 27 25 26 27 27 27 28 23 18 16 14 21 23 23 23 23 22 23 22 25 23 23 24
52 50 53 55 55 55 54 54 54 54 54 53 53 53 53 53 51 51 47 51 54 52 25 20 22 24 25 27 27 30 31 27 21 16 18 22 25 24 24 24 26 23 26 27 25 23 18
51 50 53 54 54 54 54 54 54 53 53 53 53 54 52 53 50 42 49 55 57 54 25 24 24 28 25 26 27 29 31 27 21 23 26 24 24 26 25 27 27 26 31 28 28 26 22
50 51 53 54 54 54 53 53 53 53 53 53 53 54 52 52 57 52 54 57 57 39 23 23 24 26 27 28 28 29 29 30 31 25 24 26 28 28 29 29 28 30 30 28 30 27 25
50 52 53 53 54 53 53 53 53 53 52 54 54 54 52 52 47 57 59 52 29 32 25 22 24 26 27 27 28 28 28 30 28 26 27 25 27 30 31 28 30 29 28 29 29 28 27
51 52 53 54 54 53 53 53 53 52 53 53 53 54 56 56 56 59 54 38 32 26 22 24 24 26 26 27 29 29 26 27 30 27 24 24 28 28 31 30 29 29 29 32 22 25 23
52 52 53 53 53 53 53 51 51 52 52 53 53 57 55 60 61 58 42 38 31 25 25 24 24 24 26 28 28 30 31 29 30 32 28 27 26 30 32 32 31 29 30 30 30 32 30
53 53 52 52 52 53 52 51 51 52 52 53 47 46 48 59 61 55 43 35 29 29 26 25 24 27 25 26 27 28 29 32 30 32 33 30 28 26 29 31 33 31 31 32 32 28 18
52 52 52 50 51 52 51 51 51 52 52 53 49 39 55 59 57 41 39 33 30 32 31 28 27 27 28 29 28 29 29 32 32 32 32 28 28 27 25 28 26 29 31 29 25 28 24
51 51 51 50 51 51 50 50 51 52 52 52 49 39 55 57 37 40 37 32 36 33 35 34 33 31 31 31 31 32 31 34 36 34 30 33 31 28 19 28 32 29 28 28 29 21 28
51 51 51 50 51 51 50 50 50 51 52 51 41 44 54 55 44 46 37 35 34 33 32 33 34 34 35 33 33 33 34 38 36 35 36 34 33 26 22 28 32 28 28 28 27 32 26
51 51 51 50 51 50 51 51 51 51 52 53 43 46 44 46 42 36 36 34 35 37 36 35 35 35 35 34 35 35 35 38 39 38 41 40 31 26 24 22 22 22 22 22 25 29 29
51 51 50 50 51 50 50 50 51 51 52 53 45 44 44 43 41 38 37 34 33 32 35 35 34 33 34 34 34 34 35 37 37 39 38 36 31 29 28 24 22 22 23 23 23 25 28
51 51 50 50 50 50 50 51 51 51 51 50 41 43 44 44 40 38 38 34 31 33 33 33 33 34 32 35 28 32 31 30 30 36 36 35 34 35 30 26 23 25 23 23 24 26 26
51 51 50 50 50 50 50 51 50 51 51 48 49 50 45 42 42 41 38 35 33 36 38 34 35 34 37 34 38 40 39 36 35 34 35 36 37 32 31 31 32 34 29 24 24 26 28
51 50 50 51 50 50 50 51 50 51 52 52 51 48 51 45 43 38 35 35 35 35 37 37 36 40 41 41 40 39 38 36 37 37 38 40 36 38 36 35 30 29 27 26 27 26 27
50 50 50 52 50 50 51 50 50 51 52 52 50 48 48 42 41 39 38 37 39 40 39 40 42 42 44 41 42 39 36 37 36 34 35 37 39 36 35 29 28 27 28 28 29 29 29
50 49 50 52 52 52 51 50 50 50 52 53 53 53 50 43 47 39 40 41 42 43 43 43 44 45 45 47 41 36 32 26 28 31 35 36 41 39 35 32 29 30 29 31 32 30 35
50 51 51 52 52 52 51 51 50 50 51 55 54 57 47 52 44 42 43 43 41 42 42 44 44 45 45 46 39 40 33 29 26 34 33 35 36 36 34 33 31 29 32 34 30 34 39
49 50 50 51 51 51 51 51 50 50 50 54 55 56 52 49 46 45 43 44 43 41 46 45 44 45 47 40 40 41 39 37 33 28 33 33 35 34 35 32 29 32 32 35 39 41 41
49 49 50 50 51 51 51 51 50 50 50 52 51 55 55 50 49 52 51 51 49 46 42 47 42 44 44 44 43 43 37 38 39 33 28 30 34 34 33 34 34 34 35 39 41 41 41

GFSGBSN_sfc_dewp_024.txt.gz
Dewpoint
53 54 55 56 56 56 57 57 57 55 54 56 56 56 55 55 56 55 54 55 55 55 55 55 56 57 53 42 27 28 51 52 40 38 29 21 18 14 10 8 8 8 2 3 6 8 11
55 55 56 56 55 56 57 57 57 57 56 56 56 55 55 55 56 55 54 55 55 55 56 56 56 56 50 33 26 26 25 25 24 23 18 18 17 15 7 7 11 12 11 11 11 13 14
54 55 56 56 56 57 57 57 57 57 56 56 55 55 55 55 55 56 56 55 55 55 56 55 56 52 44 31 24 24 23 24 25 26 25 22 21 16 18 20 17 16 16 17 18 18 16
55 55 55 55 56 57 57 56 57 56 56 55 55 55 54 55 55 55 55 55 55 55 55 56 55 50 38 29 27 24 21 21 23 26 27 25 25 26 26 23 16 15 18 17 18 19 21
55 55 55 55 56 57 56 57 56 55 55 55 55 55 55 54 54 54 54 54 54 55 55 55 52 48 33 37 23 21 21 21 24 27 29 25 27 22 21 19 17 16 14 17 19 17 20
55 54 54 55 57 57 57 57 56 55 54 54 54 54 54 54 54 54 53 54 54 54 52 48 44 38 26 20 21 21 22 28 25 28 26 26 25 21 20 18 17 15 8 11 12 18 13
54 54 52 55 57 57 56 56 55 55 54 53 53 54 54 54 54 53 52 47 40 40 39 28 23 25 18 18 20 22 23 26 28 28 26 24 21 21 18 18 14 13 11 10 13 19 18
54 53 51 54 56 56 55 55 55 54 53 53 53 53 53 53 54 54 53 45 42 40 29 26 25 25 24 25 21 22 26 26 25 23 23 16 19 22 18 18 17 16 17 17 19 20 20
54 52 51 54 55 55 55 55 55 54 54 53 53 54 54 53 54 53 49 48 48 49 26 24 26 23 25 26 23 23 27 24 21 20 14 24 22 20 20 20 21 19 20 25 21 21 22
53 51 52 54 55 55 55 54 54 54 53 53 54 54 54 53 51 51 47 48 52 54 25 18 22 21 24 25 25 25 26 27 19 15 15 23 22 21 21 22 25 20 28 26 23 22 18
53 50 52 54 55 54 54 54 54 53 53 53 54 54 53 53 56 43 49 52 54 54 29 23 21 25 22 26 25 25 25 23 21 20 22 23 23 24 24 27 26 25 28 26 26 25 23
53 50 52 53 54 54 54 53 53 53 53 53 54 54 53 51 59 52 53 56 56 42 29 22 22 24 23 25 26 26 25 28 29 20 24 25 26 28 28 27 26 27 29 28 27 27 30
52 51 52 53 54 53 53 53 53 53 54 55 53 53 52 55 52 57 60 53 30 33 22 21 21 24 25 25 25 26 26 27 27 25 26 25 26 29 28 28 30 28 28 33 34 32 32
51 52 52 53 54 53 53 51 51 52 53 54 54 54 56 55 56 61 56 41 33 24 20 20 22 25 25 25 26 26 26 26 28 30 24 24 27 27 29 29 27 28 27 37 26 29 28
52 52 52 53 53 53 52 51 51 52 53 54 54 61 58 62 62 61 47 39 31 22 23 22 23 23 25 27 27 27 29 28 29 32 29 25 27 28 29 29 28 28 30 27 30 35 33
52 53 52 52 51 52 51 50 51 52 52 53 50 51 51 60 62 57 46 39 30 28 22 23 22 23 23 23 26 28 27 30 28 31 30 27 28 25 25 28 33 26 27 30 37 30 22
53 52 51 50 50 51 50 50 51 52 52 54 57 42 57 60 59 43 41 39 29 28 29 24 24 23 25 25 26 27 29 31 31 30 30 28 27 26 24 27 22 26 27 28 24 31 28
52 52 51 50 50 50 50 50 51 51 52 53 57 39 58 60 38 39 38 31 35 31 34 32 31 27 28 29 28 30 30 35 34 32 29 30 30 36 20 24 27 26 27 27 36 27 35
51 51 51 50 50 50 50 50 51 51 52 54 43 48 55 56 42 49 37 32 31 30 29 31 32 32 33 32 32 32 36 37 34 37 37 34 34 33 24 28 30 23 25 25 30 36 30
51 51 51 50 50 50 50 51 51 52 52 53 47 46 43 46 46 38 37 34 34 37 34 33 33 34 33 34 33 34 36 38 39 38 42 41 30 27 28 22 22 21 20 22 23 33 31
51 51 51 50 50 50 50 51 51 51 52 52 48 44 40 41 41 37 36 33 33 34 35 34 33 32 33 35 33 33 36 37 37 39 37 37 33 29 28 22 21 21 21 22 22 24 26
51 51 50 50 50 51 50 51 51 51 51 52 46 43 44 41 40 37 38 33 32 30 33 31 32 32 34 36 32 32 32 32 32 35 35 36 37 38 33 23 22 24 23 25 23 22 22
51 50 50 50 50 50 50 51 51 51 52 52 49 50 45 43 41 42 39 34 32 35 38 34 33 35 40 38 40 38 38 35 33 35 35 37 41 37 34 32 33 35 33 24 24 25 26
51 50 50 51 50 50 51 50 50 51 52 57 54 48 52 46 43 37 35 34 33 36 35 34 36 42 41 39 40 39 37 37 34 35 37 41 39 39 35 35 28 27 26 26 26 26 27
50 50 50 52 50 52 51 50 50 51 52 55 52 52 50 41 44 37 37 35 39 39 38 41 42 41 43 39 44 37 39 37 35 32 34 37 41 36 35 30 28 26 29 30 29 29 31
49 50 50 52 52 52 51 50 50 51 52 56 56 58 53 45 47 38 37 40 42 43 43 43 44 45 43 49 44 37 35 30 31 32 36 36 43 40 35 30 26 33 29 32 31 30 37
50 50 52 52 52 52 51 51 49 50 51 55 56 60 54 53 44 45 43 44 42 44 44 44 44 46 45 45 37 41 36 28 30 33 34 35 38 37 33 30 32 30 32 33 29 35 41
50 51 51 52 52 52 51 51 49 50 51 55 56 59 56 51 47 47 44 44 43 45 48 45 45 47 51 38 40 42 38 40 36 30 35 33 34 33 33 33 28 32 32 35 40 42 41
49 50 50 51 51 52 52 51 51 50 50 52 52 56 58 52 51 53 52 51 48 48 44 48 42 45 47 44 44 45 36 37 39 36 26 33 38 37 35 35 39 39 40 43 43 41 41

GFSGBSN_sfc_dewp_027.txt.gz
Dewpoint
54 54 55 55 57 57 56 57 57 57 57 55 55 56 56 56 56 56 55 54 55 55 56 56 56 57 53 48 39 28 59 57 50 40 39 37 28 18 16 13 10 4 6 7 8 11 12
55 55 56 57 57 56 56 57 57 56 56 56 56 56 56 55 55 56 55 54 55 55 55 56 56 56 52 38 33 27 26 31 34 38 35 32 24 17 17 17 11 12 6 7 8 13 16
55 56 56 56 56 56 57 57 57 57 57 56 56 55 55 55 55 55 56 55 55 55 55 56 56 52 49 45 29 26 26 26 24 27 27 25 25 24 23 21 21 15 15 14 14 15 15
55 55 56 56 55 56 56 56 57 57 56 56 56 55 55 54 55 55 55 55 55 55 55 55 56 52 45 37 27 25 22 24 26 27 30 29 30 29 30 22 17 16 19 16 18 19 18
55 55 55 56 55 56 56 56 56 56 56 55 55 55 54 54 54 54 54 54 54 55 55 55 52 52 39 37 26 23 23 25 28 29 34 25 28 30 22 20 19 18 15 18 19 19 22
55 55 55 55 55 56 57 56 56 56 55 55 54 54 54 54 54 53 53 54 54 54 53 49 47 43 41 28 26 23 25 31 31 33 33 31 28 24 22 21 19 16 16 20 18 17 12
55 55 55 54 55 57 57 56 56 55 55 55 54 54 54 54 53 53 52 49 44 44 47 39 34 37 23 21 23 23 24 30 30 31 28 28 25 23 18 19 17 17 17 17 19 20 18
55 55 54 54 55 56 56 56 55 55 55 54 54 54 53 53 53 53 51 50 46 42 35 39 31 28 28 27 23 25 29 31 31 27 28 24 24 22 21 22 21 19 20 24 21 21 20
55 54 52 53 55 56 55 55 55 55 54 54 54 53 53 52 53 52 51 50 50 52 32 29 31 25 32 31 28 24 30 30 26 25 25 24 24 25 22 27 25 26 26 25 23 23 23
54 54 51 53 55 55 55 54 54 55 54 54 54 53 53 53 49 54 49 50 54 55 28 25 26 26 28 29 28 27 27 30 25 25 25 25 24 24 25 27 26 26 30 28 26 24 21
54 53 51 53 54 54 54 54 54 54 54 54 53 54 53 53 51 52 51 53 54 52 23 25 26 23 24 30 27 29 26 29 28 23 27 27 26 29 29 28 27 30 32 29 29 27 26
53 52 51 53 54 54 54 53 53 53 54 53 54 53 52 51 53 56 58 58 52 40 24 29 26 27 23 29 30 26 29 32 32 24 26 26 28 29 29 29 29 28 31 31 30 28 26
53 51 52 53 53 54 53 52 52 53 53 54 53 54 52 54 55 57 59 53 34 33 30 22 25 27 27 27 28 28 27 29 30 26 27 27 29 30 31 30 32 30 30 29 28 28 26
52 50 52 53 54 53 52 51 51 52 52 54 53 53 56 59 61 61 57 43 32 29 24 23 26 28 27 28 28 30 28 28 31 34 30 28 27 28 30 29 29 30 29 28 24 26 27
52 51 52 53 52 52 50 51 50 52 52 54 54 58 59 60 60 58 49 38 36 31 26 25 25 27 27 30 32 30 30 29 30 31 30 32 28 30 29 30 30 28 29 28 28 29 26
52 52 52 52 50 51 50 50 51 52 52 53 54 55 55 59 60 56 46 40 35 31 28 28 26 27 26 26 29 31 31 33 32 33 34 30 28 27 28 30 34 28 29 28 31 23 22
52 52 52 51 50 50 50 50 50 51 52 53 55 44 56 60 57 46 39 41 34 30 36 34 30 28 30 27 29 30 32 33 35 34 31 32 32 28 26 26 26 29 29 29 28 29 24
52 52 51 50 50 50 49 50 50 51 52 52 53 40 57 59 38 43 39 39 35 32 37 37 37 31 33 30 32 32 35 36 35 36 31 32 32 26 26 28 28 28 30 30 27 25 28
51 51 51 50 50 50 50 50 50 51 52 55 47 50 56 57 35 38 40 37 36 33 33 36 35 36 36 36 32 38 38 40 39 39 38 36 30 27 26 30 32 26 27 30 34 30 25
50 50 51 51 50 50 50 50 50 51 52 53 51 42 48 50 47 42 40 36 37 39 38 36 35 36 37 35 36 37 38 41 41 38 41 40 32 28 26 25 24 24 23 24 31 27 27
50 50 50 50 50 50 50 50 51 51 51 52 51 44 42 37 38 41 40 37 36 37 39 37 36 36 35 32 34 37 39 39 41 40 39 37 31 32 32 26 25 24 23 24 24 25 24
50 50 50 50 49 50 50 51 51 51 50 52 50 48 43 39 37 39 39 35 36 35 36 35 35 35 37 36 37 35 37 36 36 36 37 38 32 30 28 30 29 26 27 29 27 26 26
50 50 50 50 49 50 51 51 51 51 52 53 51 51 49 45 36 40 38 38 37 39 40 40 38 40 37 38 39 39 39 37 37 36 36 38 32 28 27 32 31 26 29 28 27 28 28
51 50 50 50 50 51 51 51 50 51 52 57 55 54 45 37 43 40 39 39 39 37 37 43 43 40 40 40 37 38 36 34 37 35 42 34 32 30 23 25 11 31 29 29 29 29 30
50 50 50 51 50 52 51 51 51 51 51 55 55 55 46 36 45 41 38 40 42 44 43 43 43 43 41 43 36 27 30 24 30 35 36 40 32 26 27 25 26 28 31 31 29 31 38
49 49 50 50 51 51 50 50 49 51 51 56 55 57 51 41 41 44 39 41 41 41 42 43 45 46 47 38 30 23 25 28 30 33 37 39 35 28 23 21 15 28 32 33 33 27 39
49 49 51 52 52 51 51 48 50 50 51 56 55 56 55 45 47 47 43 42 45 44 41 43 43 41 46 33 33 30 28 33 29 29 28 28 31 28 22 21 27 34 34 36 25 28 40
49 50 51 51 52 51 51 50 50 50 51 55 54 56 54 47 47 50 50 46 45 46 39 43 39 40 37 36 33 32 30 31 30 33 31 27 27 27 29 27 21 36 36 28 35 41 40
50 50 51 51 51 52 51 51 50 50 51 52 52 55 57 52 50 52 50 51 51 51 46 45 40 45 44 37 34 35 33 35 32 26 34 29 33 30 30 28 35 38 38 42 42 40 39

GFSGBSN_sfc_dewp_030.txt.gz
Dewpoint
56 56 55 55 55 56 56 56 57 57 57 56 56 56 56 56 56 56 56 55 54 55 55 55 56 56 53 47 38 36 58 60 53 43 38 35 35 24 16 14 8 6 7 7 13 13 8
56 55 55 56 56 56 56 56 57 56 56 56 56 56 56 56 56 56 55 55 53 55 55 55 56 56 50 38 37 30 38 48 38 36 35 36 31 24 21 16 8 8 7 7 9 15 15
56 56 56 56 56 56 56 56 56 56 56 56 56 56 55 55 55 55 55 55 55 55 55 56 56 53 50 42 40 38 25 25 27 34 30 30 29 25 29 18 14 11 7 10 12 15 14
56 56 55 56 56 55 55 56 56 56 57 56 56 55 55 54 54 54 54 54 54 55 55 55 56 52 40 41 36 27 25 22 25 30 33 31 28 30 23 24 18 16 17 14 17 17 18
55 56 56 56 56 55 56 56 56 56 56 55 55 55 54 54 53 53 53 54 54 54 55 54 51 51 31 43 25 22 24 25 29 28 30 24 28 28 22 19 17 18 13 17 19 19 19
56 56 56 56 55 55 56 56 56 56 55 54 54 54 54 53 53 53 53 53 54 54 53 51 48 42 41 35 25 23 24 29 31 30 29 25 28 23 22 20 15 18 15 19 17 17 18
56 56 56 56 54 55 56 56 56 55 54 54 54 54 53 53 53 52 51 48 41 42 46 31 34 38 31 28 24 22 25 28 30 30 27 29 24 20 18 18 18 19 19 18 19 20 17
56 56 56 55 54 56 56 56 55 54 54 54 53 53 53 53 53 53 50 48 43 43 32 37 40 38 36 23 25 25 28 29 31 27 30 25 22 22 21 25 27 23 23 22 21 23 18
55 55 55 53 54 55 56 55 54 54 54 53 53 53 52 52 53 50 47 48 50 50 41 28 33 28 28 30 29 24 30 32 28 26 26 24 22 24 28 27 25 29 26 26 23 25 23
55 54 54 52 53 55 55 54 54 54 54 53 52 52 52 52 47 49 43 44 50 48 26 25 27 25 29 30 28 27 27 29 29 26 24 23 24 26 29 27 27 29 31 28 25 23 17
54 54 53 51 53 54 53 53 54 54 54 53 52 52 52 52 48 51 50 56 55 47 17 25 26 24 24 29 28 27 26 31 28 24 26 25 29 29 28 28 28 28 30 29 29 26 25
54 53 52 51 52 53 53 53 53 53 53 52 52 53 52 49 50 54 57 58 44 37 20 26 27 26 23 29 29 26 28 30 32 27 26 26 30 29 29 30 30 29 31 33 31 29 24
53 53 51 52 52 53 53 51 51 51 52 52 52 53 51 54 53 57 57 43 31 29 29 23 24 25 26 27 28 27 28 30 31 24 26 28 30 30 31 30 30 29 31 27 26 26 25
53 52 51 52 53 53 51 50 50 50 52 53 52 52 52 57 60 57 50 36 30 33 27 25 27 29 26 28 28 31 29 29 31 34 28 28 26 28 30 29 28 29 31 26 22 23 24
52 51 51 52 51 51 50 50 50 51 52 53 53 53 57 58 59 55 44 35 34 33 26 25 27 27 28 30 28 30 30 29 30 31 29 29 27 30 30 30 30 29 27 29 29 28 24
52 51 51 52 50 50 50 50 50 51 52 52 52 52 51 58 57 49 44 38 37 32 32 28 26 28 25 26 28 30 31 33 31 32 34 31 26 29 29 29 31 27 29 27 29 20 22
51 51 52 51 50 49 49 50 50 50 52 52 52 39 48 59 49 42 37 40 38 34 36 31 31 27 28 27 29 32 33 35 35 34 31 33 30 27 30 26 25 27 28 29 28 27 23
51 51 51 50 50 49 49 50 50 50 52 51 49 37 53 48 30 41 36 38 36 33 35 34 36 36 30 30 33 36 34 35 39 39 29 33 30 25 26 27 28 27 29 30 25 23 26
51 51 50 50 50 49 49 50 50 50 52 51 45 49 55 44 28 34 37 37 36 33 34 34 36 36 36 34 35 38 37 41 37 37 36 33 29 25 26 29 31 25 28 33 31 27 23
50 50 50 50 50 49 49 49 50 50 51 53 47 40 45 49 43 36 39 35 36 39 37 36 35 35 35 35 38 37 38 40 39 36 41 40 31 26 24 25 25 21 23 31 29 25 25
50 50 50 50 49 49 49 49 51 51 51 50 50 41 39 34 35 41 40 36 36 35 38 36 33 35 34 32 36 37 39 39 39 39 37 36 30 32 31 27 26 24 23 24 24 26 25
50 50 50 49 49 49 49 51 51 51 50 49 48 46 42 36 35 37 39 37 36 36 35 35 34 38 36 35 35 36 37 37 35 35 36 38 30 29 24 32 31 24 26 29 29 26 25
50 50 49 49 49 50 51 50 50 51 50 49 51 50 43 42 33 36 38 36 38 38 39 41 40 38 35 38 39 39 38 38 38 35 37 36 30 26 19 31 28 22 27 29 26 28 27
50 50 49 49 50 51 51 50 50 51 52 56 54 51 43 35 37 35 40 38 39 38 40 42 41 37 40 41 36 30 31 35 36 39 39 32 31 27 19 20 5 23 31 28 33 35 35
50 49 50 50 50 51 50 48 49 50 51 54 54 51 42 34 43 40 40 42 43 43 42 43 44 41 42 40 30 24 29 25 31 38 40 36 29 26 16 23 20 25 30 29 27 34 37
49 49 50 50 51 52 49 49 50 50 51 54 54 54 45 40 40 46 41 41 40 40 40 42 45 47 43 34 26 24 23 19 28 33 36 37 31 24 25 12 8 23 31 32 31 27 39
49 49 51 51 51 50 49 50 50 50 52 53 53 55 50 43 45 46 40 41 44 41 39 41 41 40 40 29 31 23 27 31 28 27 26 27 25 25 16 15 24 29 34 33 25 26 39
49 50 51 51 50 50 50 50 50 50 51 51 52 54 50 44 48 50 49 45 45 42 37 41 37 38 37 29 26 32 24 29 29 32 30 27 26 24 23 16 20 33 34 28 32 39 39
49 50 50 50 51 50 48 48 50 50 50 53 49 55 54 49 48 50 50 50 50 48 45 42 36 41 40 35 34 36 27 33 28 26 34 26 28 28 29 29 32 36 35 39 41 39 38

GFSGBSN_sfc_dewp_033.txt.gz
Dewpoint
58 57 56 56 56 56 56 56 57 57 57 56 56 56 56 56 56 56 56 55 55 54 55 55 55 56 53 46 37 33 61 61 50 41 34 34 34 30 21 16 10 6 7 12 12 8 5
58 57 56 56 56 55 56 56 56 56 56 56 56 56 56 56 56 56 55 55 55 53 55 55 55 56 48 31 32 34 43 46 41 39 36 35 32 31 23 10 5 8 8 9 13 13 13
58 56 56 55 56 56 56 56 56 56 56 56 56 56 56 55 55 55 55 54 55 54 55 55 55 53 49 35 39 39 35 36 38 35 31 33 34 26 23 21 14 10 7 10 12 14 13
57 56 56 56 56 56 55 55 56 56 56 56 56 55 55 55 55 54 54 54 54 55 55 55 55 52 40 38 42 38 27 22 27 35 30 29 29 26 22 19 19 16 15 12 14 16 16
56 56 56 56 56 55 55 55 56 56 56 56 55 55 54 54 53 53 53 53 53 54 54 54 51 50 29 39 30 25 24 23 29 31 33 25 29 26 23 18 15 17 13 17 18 17 17
56 56 56 56 56 55 55 55 55 55 55 55 55 54 54 53 53 53 52 53 53 53 53 52 49 40 36 29 28 22 24 29 29 31 27 28 27 21 21 16 10 14 17 17 16 18 19
56 56 56 56 56 55 55 56 56 55 55 55 54 54 53 53 53 53 51 48 41 41 46 29 30 35 36 29 23 21 24 28 29 28 26 28 22 18 18 20 19 20 18 19 18 19 17
56 55 56 56 56 55 55 56 55 55 54 54 54 53 53 53 53 53 49 44 38 42 33 40 41 39 38 37 25 24 29 26 27 25 28 24 23 23 24 29 24 24 20 20 23 24 22
55 55 56 56 55 54 55 56 55 54 54 54 53 53 52 52 53 49 45 45 49 47 39 34 31 30 31 30 26 24 29 30 27 25 25 22 23 27 26 27 28 29 25 25 22 23 23
55 54 55 55 54 54 55 55 54 54 54 53 53 52 52 52 46 47 40 44 51 45 27 24 26 25 27 29 26 26 27 27 28 25 24 22 30 28 28 25 28 28 30 27 24 20 18
54 54 54 54 53 53 53 53 54 54 53 53 52 52 52 51 47 51 49 57 53 43 19 23 25 25 25 27 25 24 25 29 25 24 25 25 28 28 26 27 27 27 29 28 27 25 24
54 54 53 53 51 52 53 53 53 52 53 53 52 53 52 50 49 50 57 53 43 34 16 24 26 24 24 28 27 26 27 32 31 28 26 27 30 28 28 30 29 29 30 32 32 28 24
53 53 53 52 51 52 53 53 50 50 52 52 52 53 50 52 53 57 55 39 27 29 28 23 25 24 26 27 27 26 31 31 28 23 25 29 29 29 31 29 30 30 30 26 26 24 24
53 53 52 51 52 53 52 51 50 50 51 52 52 52 51 50 59 56 44 31 28 32 24 26 26 26 25 27 29 30 30 28 30 30 28 27 25 28 29 29 27 29 29 25 22 22 23
53 52 51 51 52 52 51 50 50 49 52 52 52 50 56 57 58 51 38 29 32 33 27 25 28 26 28 29 30 30 29 29 29 31 28 28 26 30 28 29 29 29 25 28 28 27 23
53 52 51 52 51 50 50 50 50 50 52 52 53 52 51 56 55 48 39 34 38 35 31 28 26 28 25 26 28 30 31 33 30 32 33 31 26 28 27 29 29 25 29 27 27 20 21
52 51 51 51 50 50 50 49 49 50 52 52 50 37 44 58 44 38 32 37 41 33 35 27 27 28 28 27 30 31 32 34 34 34 31 32 27 25 30 25 25 26 27 28 28 27 22
51 50 51 51 50 50 50 49 50 51 51 51 45 35 51 42 30 38 37 39 38 32 34 35 35 33 30 31 34 34 33 35 39 37 27 33 28 25 25 28 30 27 29 27 21 21 25
50 51 51 50 50 49 49 50 49 50 51 50 44 49 55 37 26 33 35 37 37 32 32 34 34 36 36 36 33 37 37 40 35 36 33 32 27 23 24 28 29 25 29 32 29 27 23
50 51 50 50 50 49 49 49 50 50 51 51 46 40 44 47 37 32 35 36 35 38 36 35 34 36 35 35 38 36 37 39 37 34 41 37 32 24 22 23 26 20 23 30 28 24 24
50 50 50 50 49 49 49 49 49 50 51 50 47 39 40 35 39 41 37 36 35 33 36 35 33 34 34 32 36 36 38 38 36 38 37 33 28 30 28 27 25 23 21 26 26 26 23
50 50 49 49 49 49 49 50 51 51 51 48 48 42 41 34 35 38 39 37 35 35 34 34 33 38 36 33 34 35 36 34 30 34 36 36 28 28 24 31 30 23 22 24 25 25 28
50 50 49 49 49 49 50 51 50 51 50 47 48 49 42 39 35 35 37 36 36 37 41 40 38 36 33 37 39 39 38 38 36 34 37 33 28 23 15 28 22 16 21 27 27 27 27
50 49 49 49 50 50 50 50 50 50 50 53 53 47 41 35 32 32 39 38 38 37 38 41 39 36 38 39 32 31 31 37 39 39 37 31 29 23 16 19 6 19 28 29 27 34 33
49 49 50 50 50 51 48 48 48 50 51 56 53 48 40 34 40 39 41 42 42 42 42 42 43 41 41 33 28 22 26 25 30 37 37 35 28 25 16 19 17 19 30 32 27 27 36
49 50 50 50 51 47 48 49 50 50 51 55 53 50 44 41 40 43 41 41 38 38 39 41 45 45 39 30 25 19 17 17 27 33 36 34 28 23 24 9 6 19 31 32 30 26 37
49 50 50 51 51 48 49 50 50 51 52 52 53 53 47 42 45 45 40 39 42 39 38 40 40 39 36 27 22 23 25 27 27 26 26 27 24 22 15 14 22 26 32 33 25 22 39
49 50 50 50 51 49 48 49 50 50 52 52 52 53 48 44 47 48 48 44 43 41 36 39 37 36 32 27 24 27 21 29 28 30 29 29 26 26 21 17 19 30 32 28 31 37 39
50 50 50 50 47 48 48 49 49 50 51 51 51 54 53 48 47 49 49 49 48 42 43 40 37 38 37 32 29 32 25 32 26 24 32 25 27 28 28 28 31 33 34 35 39 39 38

GFSGBSN_sfc_dewp_036.txt.gz
Dewpoint
59 58 57 57 57 56 55 56 56 56 56 56 56 56 56 56 55 56 56 56 55 55 54 55 55 55 52 45 36 46 61 60 44 36 32 33 32 30 26 20 15 12 10 12 9 9 17
58 58 58 57 57 56 55 56 56 56 56 56 56 56 56 56 56 56 56 55 55 55 54 55 55 56 48 32 31 45 50 45 41 36 35 33 32 33 27 18 8 10 10 11 10 8 11
58 58 57 57 56 56 55 56 56 56 55 56 56 56 56 56 56 55 55 55 54 54 55 55 55 53 48 38 36 39 38 40 39 37 32 35 34 28 25 20 14 11 7 10 12 13 15
58 58 58 56 55 55 55 55 55 55 56 56 56 56 55 55 55 55 54 54 54 54 55 55 55 51 41 38 41 39 35 26 36 36 33 31 34 30 24 21 19 15 14 8 12 15 17
58 57 57 56 55 55 55 55 55 55 56 56 56 55 54 54 54 54 53 53 53 54 54 54 50 49 34 38 32 28 27 25 30 32 30 27 29 25 22 17 15 16 12 15 17 17 16
58 57 57 56 55 55 55 55 54 55 55 55 55 55 54 54 53 53 52 53 54 53 52 52 50 41 34 27 33 22 24 28 30 32 27 28 26 21 20 14 12 12 14 16 16 18 17
58 57 56 56 55 56 55 55 54 55 55 55 55 54 54 53 53 52 51 48 41 40 46 33 31 31 35 35 27 21 23 29 29 28 26 27 21 17 18 18 18 18 15 16 18 20 24
57 57 56 56 55 56 56 55 55 55 55 54 54 54 54 53 53 53 48 42 36 38 38 41 39 39 38 36 30 23 28 26 27 25 28 24 21 22 28 26 25 21 19 20 23 24 28
56 56 56 56 56 56 56 55 55 55 54 54 54 53 53 52 53 50 45 43 49 46 40 35 37 31 27 33 28 22 28 29 25 24 23 22 23 27 28 29 27 28 23 24 22 24 26
56 55 55 55 55 55 55 54 55 55 54 54 53 53 52 52 47 46 40 40 52 44 26 24 27 26 27 29 27 26 27 27 27 23 23 25 30 27 26 25 28 25 29 26 23 19 19
55 55 54 55 55 54 53 53 54 54 54 54 53 52 52 51 46 48 43 56 54 38 18 24 25 25 26 25 23 23 29 28 23 25 24 26 28 27 25 27 26 27 29 28 26 25 22
55 54 54 54 54 53 52 53 53 53 52 53 53 52 52 50 48 50 55 48 39 33 21 24 24 23 25 27 26 26 31 32 29 28 28 28 30 28 27 29 28 29 31 31 31 28 23
55 54 54 54 53 52 52 53 53 51 50 52 52 52 51 49 50 56 52 37 27 26 28 23 23 23 26 26 27 28 30 30 25 24 26 28 28 29 30 28 30 31 29 25 25 24 24
54 54 53 53 53 52 52 53 52 50 50 52 52 52 51 50 55 54 41 29 21 28 27 25 24 25 24 27 29 30 29 28 30 27 27 26 24 28 28 28 27 30 27 26 22 23 24
51 54 53 52 52 51 52 52 50 50 49 52 52 50 52 56 52 48 34 26 24 32 28 26 26 25 27 28 29 29 29 28 29 30 26 26 25 29 28 30 29 29 25 27 28 27 23
50 54 52 52 51 51 52 51 50 50 51 52 51 50 51 56 53 46 33 27 33 39 31 28 23 27 25 27 28 29 30 32 29 30 33 30 26 27 27 29 29 25 30 26 26 18 19
52 53 52 51 51 51 50 50 50 49 52 52 46 43 46 54 42 36 27 30 40 40 34 26 27 28 27 26 30 30 30 33 34 34 32 30 26 24 29 24 25 27 27 28 28 26 21
53 52 51 51 51 50 50 49 49 50 52 51 41 35 52 41 32 37 35 38 40 31 35 35 33 30 29 31 33 32 32 33 38 36 27 32 28 25 24 27 30 27 27 25 19 17 25
52 51 50 51 50 49 49 49 49 50 52 49 46 48 53 37 29 32 34 36 36 31 33 33 34 34 36 35 32 35 36 38 34 35 30 30 26 23 22 23 27 25 30 29 27 26 23
51 50 51 51 49 49 49 49 49 50 52 49 45 41 44 44 36 31 31 33 34 37 35 34 34 36 35 36 37 35 36 38 36 34 40 36 29 24 21 19 25 20 26 29 26 23 23
50 50 50 50 49 49 49 50 50 50 51 50 44 40 42 37 39 32 30 33 33 32 35 34 33 34 34 33 35 35 37 36 34 39 37 31 27 29 27 28 25 21 21 28 25 24 21
50 50 50 49 49 49 49 49 49 50 51 49 46 39 37 35 41 37 36 35 33 35 34 32 32 37 35 33 32 34 36 33 26 35 35 34 28 27 25 30 28 25 22 23 26 24 26
50 50 49 48 48 49 49 49 50 50 50 46 48 47 39 37 37 35 37 37 36 38 40 39 36 35 33 36 38 39 38 37 34 34 35 31 28 24 20 26 20 16 21 23 25 28 26
50 49 48 48 48 49 50 50 50 50 50 50 50 46 41 32 32 37 38 37 37 36 37 40 37 34 36 37 34 31 32 37 39 38 36 29 27 21 14 17 3 15 26 26 26 27 29
48 48 48 49 50 49 49 49 50 50 50 53 52 47 40 32 33 35 39 41 41 42 41 42 43 41 38 30 28 26 25 27 30 36 33 32 27 22 15 17 14 14 28 30 27 25 34
48 48 49 49 48 48 48 48 49 50 50 54 52 49 44 38 37 40 40 40 37 37 38 40 45 41 35 29 25 21 20 23 25 32 36 31 27 23 19 9 4 17 28 32 30 25 33
49 49 49 48 48 48 50 50 50 50 51 54 53 50 46 42 44 43 39 39 40 38 37 39 40 37 34 26 21 21 21 24 24 24 26 29 26 19 13 12 19 23 30 32 24 23 36
49 50 50 48 48 48 48 49 50 51 51 54 53 52 47 44 46 47 47 42 41 40 36 39 37 36 31 27 24 25 21 28 28 28 30 29 28 28 22 14 18 28 32 27 31 33 37
49 49 48 48 48 48 48 49 50 51 51 53 53 53 51 47 46 48 48 48 47 41 42 39 37 37 36 30 26 27 26 31 26 23 31 25 27 26 27 27 29 30 32 35 35 35 37

GFSGBSN_sfc_dewp_039.txt.gz
Dewpoint
59 59 58 58 58 57 57 57 56 56 56 56 56 56 56 56 55 55 56 56 56 55 55 54 55 55 52 44 39 47 61 60 47 35 33 32 31 30 29 26 19 17 13 11 12 19 30
59 59 58 58 58 57 57 56 56 56 56 56 55 56 56 56 56 56 56 55 55 54 55 54 55 55 48 33 32 51 48 42 38 35 33 33 30 32 29 21 16 16 12 11 10 15 17
59 59 58 57 57 57 57 56 55 56 56 55 55 56 56 56 56 56 55 55 54 54 55 55 55 53 49 38 35 44 42 41 40 36 34 34 34 30 29 18 13 11 12 14 14 14 15
59 59 58 57 57 56 56 55 55 55 55 55 56 56 55 55 55 55 54 54 54 54 55 55 55 52 42 39 41 38 38 32 38 37 33 34 36 32 25 22 21 14 16 11 14 14 16
59 59 58 57 57 56 55 55 55 55 55 55 56 55 55 54 54 54 53 53 53 54 54 54 52 50 38 41 33 31 31 27 31 36 36 30 34 29 22 21 18 18 11 14 15 17 16
59 58 58 57 57 56 55 55 55 55 55 55 55 55 55 54 53 53 52 53 53 53 52 52 50 44 35 29 34 26 28 31 33 33 32 30 27 23 21 16 14 16 15 16 16 18 27
56 59 58 57 57 56 56 55 55 54 54 55 55 55 54 54 53 53 51 49 43 42 47 37 34 35 32 35 34 23 26 33 31 33 29 29 24 20 17 18 16 17 16 16 19 22 32
53 58 58 57 56 56 56 55 55 54 54 55 55 54 54 53 53 53 50 43 39 42 41 43 41 39 39 37 30 26 32 30 32 27 27 26 23 22 28 25 23 21 21 22 24 26 32
52 55 57 57 56 56 56 55 55 54 54 54 54 54 53 53 53 51 48 46 49 50 44 36 40 35 29 34 30 25 32 33 27 26 24 26 23 27 29 28 27 27 25 24 22 27 29
51 52 53 56 56 56 55 55 55 54 54 54 53 53 52 52 48 47 44 45 47 50 30 27 29 28 29 30 30 26 29 31 29 26 25 28 29 27 26 27 28 27 27 25 22 21 20
51 51 51 55 55 55 55 55 54 54 54 54 53 53 52 51 47 44 45 56 52 44 21 28 26 26 27 26 26 28 33 30 27 26 26 27 28 27 27 27 28 28 31 28 26 26 24
50 50 50 52 55 54 54 54 53 53 53 53 53 53 52 51 50 50 54 50 45 34 23 25 26 24 27 28 28 28 33 33 31 32 31 29 30 29 28 31 29 34 32 32 31 30 26
49 49 50 51 54 54 53 53 52 52 52 51 52 52 52 49 47 57 54 43 31 29 30 24 24 26 28 28 29 31 31 32 27 28 29 29 29 29 32 29 31 32 30 27 27 29 25
49 50 50 52 54 53 53 52 52 52 51 50 51 52 52 50 53 54 44 33 26 28 29 26 25 26 26 28 30 31 29 30 31 29 28 26 22 27 29 28 29 30 30 31 21 26 26
49 49 50 53 54 53 52 52 52 52 50 49 52 50 50 53 52 51 38 29 28 28 31 26 26 26 29 30 30 31 30 29 29 30 28 29 25 28 30 31 30 30 26 29 29 28 26
49 50 50 50 53 53 52 51 52 51 50 51 50 49 49 57 55 44 35 29 28 36 32 28 24 29 27 29 29 30 30 33 30 32 34 31 27 27 27 29 31 29 31 28 29 22 17
48 48 50 50 53 52 51 51 51 50 49 52 50 46 50 56 46 38 30 29 36 41 35 28 28 29 29 29 31 30 30 34 34 32 34 30 31 28 28 25 28 29 29 29 28 27 20
48 48 49 49 52 51 51 51 50 49 50 51 45 38 54 45 35 37 33 32 40 36 36 36 33 32 31 33 33 32 32 34 39 37 30 31 31 28 25 27 30 28 28 28 24 19 26
47 48 49 49 52 51 50 50 49 49 52 49 41 48 55 42 33 35 35 36 37 33 34 34 36 36 38 36 33 35 37 39 36 34 34 33 30 26 24 25 28 27 30 28 27 28 25
48 49 49 50 51 50 50 50 49 49 52 50 48 43 47 41 38 33 33 34 34 38 37 36 36 38 38 37 38 36 37 38 38 36 40 37 29 28 25 23 27 24 30 27 28 28 24
49 48 50 51 50 50 50 49 49 49 52 51 44 42 44 38 37 33 33 35 34 34 37 36 35 36 36 35 36 36 37 35 35 40 38 34 29 28 27 28 26 22 23 29 26 26 26
49 49 51 50 50 49 49 49 49 49 51 51 43 40 39 38 40 34 37 35 34 36 37 35 35 37 37 35 34 36 36 34 29 37 36 34 31 28 27 29 28 25 24 24 28 26 25
49 50 50 50 49 49 49 48 48 49 50 48 50 45 39 37 38 33 35 37 35 39 41 39 37 37 36 38 39 39 39 38 35 36 35 32 32 28 25 24 21 23 24 25 25 26 27
50 50 49 49 49 49 48 48 48 50 50 50 50 45 39 33 37 33 36 39 37 38 38 41 39 37 38 40 37 35 35 38 37 35 35 30 27 24 24 21 17 20 27 25 25 26 27
49 49 49 49 49 48 48 48 48 50 50 54 52 47 39 33 34 35 39 41 41 42 42 42 43 41 39 34 35 31 31 33 33 35 31 31 29 25 26 19 17 15 22 28 29 25 30
48 48 48 48 48 48 48 49 49 50 50 54 52 50 43 37 35 38 41 41 39 39 40 43 43 41 36 32 32 29 28 28 25 32 35 30 30 31 24 21 17 20 23 32 30 28 30
47 48 48 48 48 48 48 48 49 50 50 54 53 50 48 43 46 43 41 40 41 40 39 40 39 40 37 32 32 30 28 25 25 25 30 32 31 30 21 26 24 24 26 32 24 26 33
48 48 47 48 47 47 48 49 50 50 50 53 52 53 49 45 47 49 48 42 41 41 39 41 39 39 35 34 35 30 32 30 28 28 32 30 31 30 24 25 24 28 32 32 35 34 35
48 47 47 47 48 48 49 49 49 49 50 53 52 54 51 48 47 49 48 49 49 44 43 41 40 39 39 35 32 31 32 33 29 29 32 28 32 31 29 30 33 31 35 36 36 35 37

GFSGBSN_sfc_dewp_042.txt.gz
Dewpoint
60 60 59 59 58 58 58 58 57 56 56 56 56 56 56 56 56 56 54 55 56 56 55 55 54 55 51 42 32 45 60 58 42 34 29 31 26 22 18 16 20 20 16 16 30 32 31
60 59 59 58 58 58 58 58 57 56 56 56 56 55 56 56 56 56 56 56 55 55 55 54 55 55 48 33 27 44 46 42 36 32 30 30 26 23 27 25 21 20 12 15 22 30 29
58 59 59 58 58 58 58 57 57 56 55 56 55 55 55 56 56 56 56 55 55 54 54 55 55 51 45 35 33 42 40 36 36 33 31 31 29 29 30 23 12 13 11 13 17 25 25
56 58 59 58 57 57 57 57 56 56 55 55 55 55 55 55 55 55 55 54 54 54 54 54 54 51 37 35 35 35 34 35 37 35 34 32 33 30 29 21 16 12 13 13 17 24 19
56 57 59 58 57 57 56 56 56 55 55 55 55 55 55 54 54 54 54 53 53 54 54 54 51 49 33 40 31 29 32 25 33 36 35 33 33 30 24 16 12 12 8 10 13 16 20
55 55 57 59 58 57 56 56 55 55 55 55 54 55 55 54 54 53 53 53 53 53 51 50 48 47 39 26 30 31 24 26 29 33 30 30 28 20 19 13 9 14 7 11 10 17 15
55 53 56 58 58 57 57 56 55 55 54 54 54 55 55 54 54 53 52 49 45 43 46 35 30 35 29 31 31 22 22 28 30 29 24 29 23 16 14 15 15 15 15 11 15 22 21
53 54 54 57 58 58 57 56 55 54 54 54 54 55 54 54 53 53 50 40 38 46 37 38 37 36 34 33 28 22 27 22 24 19 28 24 20 25 24 21 18 16 17 19 23 23 26
53 53 53 56 58 58 57 56 55 54 54 54 54 54 54 53 53 52 47 41 48 47 43 34 36 31 26 32 25 20 26 26 20 20 24 21 25 28 25 23 21 23 21 23 20 26 29
52 52 53 52 55 57 57 56 55 55 54 53 54 53 53 52 49 47 43 40 43 47 33 22 26 26 27 31 24 25 27 26 27 23 25 26 27 26 25 25 25 21 26 23 23 22 16
51 52 52 51 51 55 55 55 55 55 54 53 53 53 53 52 50 41 44 46 52 50 19 21 24 27 27 25 23 25 32 27 21 24 26 26 25 25 23 25 26 26 27 25 24 23 22
50 51 52 51 51 50 55 54 54 54 53 53 53 53 52 51 51 50 54 57 53 37 21 23 24 23 25 25 24 26 29 30 30 28 28 28 30 28 28 30 28 32 30 30 29 27 22
50 50 51 50 51 51 54 54 54 53 53 52 51 53 52 50 43 58 57 51 35 28 26 22 22 23 21 23 24 26 27 27 22 26 27 27 28 29 30 29 32 30 26 22 23 24 21
49 49 50 50 50 50 53 54 53 52 52 51 50 52 53 50 51 57 53 42 27 21 22 24 22 21 20 24 25 28 28 26 29 27 24 21 24 25 29 29 25 27 24 23 12 19 22
48 48 49 50 50 50 52 53 52 52 51 50 51 52 51 52 54 55 45 36 26 26 26 23 23 21 23 26 24 27 29 26 28 30 21 25 23 28 29 31 30 29 26 30 29 31 28
47 48 48 49 50 49 52 53 52 52 51 50 49 49 46 53 56 49 43 33 27 33 29 25 20 22 23 24 23 25 28 30 29 31 34 30 26 27 28 29 31 30 30 27 29 22 12
47 47 48 49 50 49 52 53 51 51 50 51 48 42 53 59 56 46 38 32 29 38 34 25 20 25 24 28 24 23 26 31 31 32 33 30 28 28 28 26 24 30 28 27 25 28 17
46 47 47 48 50 49 52 52 51 51 50 51 47 37 59 57 44 46 36 31 37 34 39 31 28 26 26 29 29 26 27 29 37 33 30 32 32 31 26 28 29 28 27 26 23 19 29
46 46 47 48 49 50 51 52 50 50 51 49 42 47 55 51 42 41 34 31 36 31 33 33 31 31 34 32 31 33 34 37 36 33 33 32 31 28 26 27 30 27 28 27 27 29 24
46 46 47 48 49 49 50 51 50 50 51 50 42 44 52 48 40 37 33 30 32 38 35 35 35 37 37 35 37 36 36 36 37 35 40 36 32 28 25 22 26 26 27 27 24 26 19
45 46 47 48 49 49 50 51 50 49 51 52 45 39 43 43 40 35 34 30 28 33 36 36 35 34 34 35 35 36 36 34 36 40 38 35 30 28 26 25 25 23 23 27 24 23 25
46 46 47 48 49 49 50 50 49 49 50 51 44 42 43 43 39 35 34 32 28 34 35 33 34 36 36 35 32 35 35 34 34 37 37 35 32 31 28 28 27 25 24 23 26 25 24
46 46 47 49 49 49 49 50 49 49 51 51 52 45 42 40 38 34 32 32 29 38 40 38 37 38 38 38 40 41 39 36 34 37 37 35 35 31 24 25 24 32 27 24 22 25 26
46 46 48 49 50 50 50 49 49 49 51 52 52 44 44 39 36 30 32 35 35 36 38 39 39 39 41 42 40 39 39 37 35 35 35 34 33 33 31 27 29 15 23 22 24 24 24
46 47 49 50 50 49 49 49 49 49 50 55 55 47 45 41 36 33 35 40 42 42 42 41 42 41 42 38 39 36 39 41 37 34 32 31 32 32 36 21 18 12 17 19 22 18 25
48 49 50 49 49 49 48 48 48 49 50 53 57 54 48 45 40 32 39 42 41 42 43 42 41 41 38 40 41 38 34 31 31 33 34 31 33 35 31 34 32 21 27 32 30 24 29
49 49 49 49 48 48 48 48 48 49 50 55 57 55 49 48 41 43 38 41 43 43 43 40 39 40 39 43 43 40 35 28 28 31 34 37 37 37 33 36 28 23 24 33 24 24 31
48 48 48 48 48 48 48 48 48 48 50 54 57 56 52 50 48 49 46 43 43 44 44 42 40 42 43 44 44 38 41 32 29 27 31 32 36 36 33 35 30 26 32 31 34 35 33
48 48 48 47 47 48 48 48 49 49 50 53 55 56 54 51 49 51 50 50 49 45 44 43 43 41 42 43 43 41 39 37 36 33 31 31 33 34 31 31 32 32 34 37 37 37 37

GFSGBSN_sfc_dewp_045.txt.gz
Dewpoint
58 59 60 60 59 59 59 59 58 57 57 56 56 56 56 55 56 57 56 56 56 56 55 55 55 55 53 40 29 45 60 60 43 33 30 27 23 19 14 13 15 16 20 18 29 30 30
57 57 59 60 59 59 59 58 58 57 57 56 56 56 56 56 56 57 56 56 56 55 55 55 55 55 51 31 25 32 40 39 31 30 29 25 23 21 23 21 16 19 24 27 32 33 32
55 57 57 59 59 59 58 58 57 57 57 56 55 55 55 56 56 56 56 55 55 55 54 55 55 51 43 31 30 35 39 33 33 32 29 28 27 26 27 26 19 18 27 27 27 30 30
55 56 56 57 58 58 57 57 57 57 57 56 55 55 55 55 55 55 55 55 54 54 54 55 55 50 38 31 31 31 32 33 33 34 32 32 32 30 30 23 15 18 15 21 23 27 28
55 55 56 56 58 58 57 57 57 57 56 56 55 55 54 55 55 54 54 54 54 54 54 54 52 47 34 40 29 27 29 28 30 33 34 30 32 31 29 18 16 14 12 16 19 23 21
54 55 56 56 57 58 57 57 56 56 56 55 55 55 54 55 54 54 53 53 53 53 51 48 44 43 40 26 27 29 26 25 31 33 32 32 31 28 24 17 12 12 13 14 16 19 17
53 54 55 54 54 58 58 57 56 55 55 55 55 54 55 55 54 54 52 48 44 45 44 34 31 29 29 30 28 25 23 24 29 29 25 29 25 20 20 19 16 15 9 9 9 11 11
51 53 54 54 54 56 59 58 56 55 55 55 54 54 55 54 54 53 52 41 39 47 41 35 29 30 31 30 27 24 24 22 25 27 28 25 25 23 16 14 13 12 16 12 14 14 21
50 52 53 54 54 55 58 58 56 55 55 54 54 54 54 54 53 52 47 42 46 47 44 31 29 28 28 28 25 20 23 22 22 23 24 29 25 25 19 16 15 16 16 24 17 20 18
50 51 52 53 54 53 57 58 57 55 54 54 53 54 53 53 50 47 45 43 44 48 38 26 26 24 24 28 24 21 23 23 22 20 20 29 31 23 18 17 18 19 23 19 19 21 16
50 50 51 53 53 52 52 57 56 55 55 54 53 54 53 53 52 43 48 44 48 54 28 21 20 24 22 23 21 21 24 23 22 19 22 23 22 20 18 23 23 26 24 22 20 17 19
50 50 51 52 52 51 51 55 55 55 54 54 53 53 53 52 51 50 51 57 53 41 28 19 22 23 24 23 20 20 21 23 26 21 23 35 28 25 27 26 24 28 26 24 23 21 22
48 50 51 51 52 51 50 53 55 54 54 53 53 53 52 49 45 52 54 54 39 32 22 17 21 22 22 21 21 19 21 21 19 19 23 24 23 28 28 25 28 26 25 26 24 21 21
48 49 50 51 51 51 51 51 54 53 53 53 51 52 53 49 51 57 55 48 33 23 23 19 19 21 20 19 20 19 19 16 18 21 17 20 23 24 26 27 25 24 23 23 15 17 17
48 48 49 50 51 51 50 50 53 53 52 51 51 52 52 53 54 56 47 41 34 24 20 20 20 19 19 19 19 21 22 18 19 21 21 24 21 26 27 27 25 26 22 27 24 34 26
48 47 48 49 50 50 50 50 53 53 51 50 47 49 47 54 56 53 44 38 32 26 22 21 21 19 18 20 20 20 20 21 23 28 30 24 22 24 26 29 29 27 28 24 24 20 14
46 47 48 48 49 50 50 50 52 52 51 50 47 45 48 55 54 47 40 38 33 27 31 23 21 20 19 20 20 19 19 28 28 30 33 24 24 28 27 24 19 28 26 23 23 25 21
43 46 47 47 48 49 50 50 51 52 51 50 48 41 54 57 37 42 40 37 34 27 36 30 28 23 23 22 24 21 19 24 31 30 26 28 27 26 25 26 27 26 24 25 26 20 25
41 46 47 47 48 49 50 49 51 51 50 47 46 47 58 53 35 44 39 37 32 27 31 32 26 24 26 26 26 25 24 38 33 34 29 32 25 24 25 27 28 26 24 24 24 27 24
42 45 46 47 48 48 50 49 50 51 50 49 46 46 51 53 37 41 39 36 31 33 33 30 26 26 28 26 27 28 29 36 38 34 40 38 26 24 25 21 25 28 25 24 25 28 23
42 45 46 46 47 48 49 50 51 51 50 50 49 41 44 42 39 40 39 34 30 28 35 34 30 30 29 28 28 30 33 36 37 39 35 35 30 26 24 25 25 23 22 22 24 24 26
43 44 46 46 47 48 49 49 51 50 50 48 48 38 41 38 38 40 39 35 28 25 32 33 30 28 30 30 32 30 33 35 34 38 37 35 32 32 30 27 27 25 24 22 20 21 16
44 45 45 46 47 48 48 49 50 50 50 46 48 51 42 41 41 39 38 34 28 29 39 38 32 29 33 35 40 40 37 35 35 37 37 37 35 32 27 26 24 31 28 22 20 21 22
44 45 46 46 47 48 48 48 49 50 49 47 49 48 44 43 41 37 34 33 30 33 36 37 37 35 42 42 41 39 37 36 35 36 37 37 37 36 32 30 29 17 19 18 22 21 19
44 45 46 46 47 47 48 47 48 49 50 50 60 55 46 46 40 35 33 33 32 40 39 41 42 42 44 41 39 38 40 40 34 31 31 33 35 33 36 23 21 18 15 18 19 18 18
45 45 46 46 47 47 48 48 49 49 50 53 57 58 51 48 43 32 31 32 37 40 43 42 44 43 42 43 43 34 31 29 31 34 32 30 34 35 31 33 31 26 24 28 27 22 22
45 46 46 46 47 48 48 48 49 49 50 52 55 59 53 42 40 38 34 37 35 39 40 43 43 42 42 47 44 40 35 31 31 35 36 38 39 37 35 36 32 25 24 30 24 29 29
45 46 46 45 47 48 49 49 49 49 49 52 54 59 57 48 46 47 39 37 39 39 44 43 42 43 44 44 46 41 42 36 32 28 33 34 38 37 38 35 31 25 29 27 36 31 33
46 45 47 48 48 48 48 48 48 48 49 52 53 57 57 50 49 52 52 51 49 46 41 45 39 42 42 42 47 48 42 40 39 33 30 32 33 36 32 32 33 28 29 33 34 34 35

GFSGBSN_sfc_dewp_051.txt.gz
Dewpoint
55 56 57 57 57 60 60 60 59 58 57 57 56 56 56 56 56 56 56 56 56 56 56 56 56 56 52 45 44 42 61 59 46 35 30 30 29 25 18 15 16 16 17 23 40 44 44
53 54 55 56 57 57 60 60 59 58 57 57 56 56 56 56 55 56 56 56 55 55 56 56 56 56 51 40 38 45 50 44 37 30 29 30 27 24 22 21 24 28 28 29 34 38 38
52 53 54 55 57 56 57 59 59 58 58 57 56 56 55 55 55 55 55 55 55 55 55 55 55 52 46 40 36 34 34 38 36 28 26 28 30 26 27 29 29 29 25 27 29 39 40
52 53 53 54 56 56 55 57 59 58 58 57 57 56 55 54 54 54 54 54 54 54 55 55 55 50 45 42 40 38 35 30 36 34 32 34 34 33 31 31 29 25 25 24 29 38 40
52 52 52 53 55 56 55 56 58 58 58 57 57 56 55 54 53 54 54 54 54 54 55 54 51 49 44 45 41 36 30 29 33 33 37 31 34 33 31 29 25 23 20 20 24 37 40
52 52 52 52 54 55 55 55 57 58 58 57 56 56 55 54 53 54 53 53 53 53 52 49 47 42 42 34 32 29 29 30 29 34 36 35 31 31 30 24 20 22 22 20 18 23 32
52 52 52 52 53 55 56 55 56 57 57 57 56 56 55 54 54 54 52 49 47 47 46 42 39 36 30 31 32 28 29 27 28 33 33 33 31 27 25 26 23 21 21 19 18 21 21
52 52 51 52 52 54 55 55 54 56 56 57 56 55 55 54 54 54 50 45 44 44 43 44 41 40 35 32 29 30 28 27 27 29 31 30 33 33 33 32 26 22 20 23 24 20 18
50 52 51 51 52 53 54 54 54 55 56 56 56 55 54 53 53 51 49 45 44 45 44 41 40 41 36 29 28 28 27 24 25 28 29 30 33 33 32 32 31 30 28 26 26 28 22
48 50 51 51 51 52 52 54 54 54 56 56 55 54 53 53 49 49 48 49 48 46 41 36 35 37 33 25 30 28 28 23 26 28 33 33 33 31 31 31 31 29 29 30 26 24 21
48 49 50 51 51 50 51 52 54 53 56 56 55 54 53 52 50 50 50 52 48 48 31 36 32 27 22 28 27 27 26 24 22 32 32 29 31 33 31 30 30 29 32 28 30 29 25
48 48 49 50 50 50 51 52 53 52 52 55 54 53 53 52 51 50 50 50 51 43 31 30 27 23 25 27 26 24 22 26 25 28 28 30 33 33 33 33 29 30 30 32 34 32 25
46 47 48 50 49 50 50 52 52 52 51 55 54 53 52 49 47 52 50 50 41 36 30 24 21 22 25 24 24 23 21 21 21 22 26 30 27 31 36 31 32 31 29 27 27 27 26
44 45 47 48 49 50 50 51 51 51 51 54 53 52 52 49 50 52 53 48 36 32 31 26 23 24 23 24 24 24 19 21 22 22 24 26 25 31 34 29 30 32 32 28 23 27 27
44 45 45 47 48 49 50 50 51 51 51 53 53 52 50 50 51 52 51 40 34 34 28 28 21 23 23 23 25 24 21 19 20 18 19 28 31 36 33 33 30 34 32 34 29 33 27
45 44 44 46 47 48 49 50 51 50 51 53 51 50 47 50 53 51 47 37 38 35 34 33 26 23 22 22 22 22 22 22 21 21 27 36 32 37 37 35 32 30 30 28 28 17 17
43 43 43 44 46 48 49 49 51 50 52 52 50 46 47 51 53 49 38 38 38 38 36 34 28 24 23 24 22 21 23 23 23 30 34 34 31 34 35 34 29 27 26 26 25 30 23
42 43 43 43 44 46 48 49 51 50 51 51 49 42 48 53 43 42 39 37 39 37 38 38 33 35 33 25 26 23 24 25 28 31 28 33 34 34 32 34 32 25 28 30 26 22 28
41 41 41 42 44 45 46 49 50 50 51 51 45 44 52 49 33 37 37 36 37 36 36 36 34 35 36 30 27 27 27 40 32 31 30 35 29 24 27 27 31 27 25 24 27 32 26
41 41 42 41 44 45 45 48 49 50 51 52 45 40 48 49 37 33 35 32 34 38 38 36 34 34 34 30 30 31 37 40 40 38 41 38 32 28 25 23 26 26 26 26 26 27 26
42 42 42 42 45 46 45 48 47 50 50 51 47 40 45 42 42 38 34 33 33 36 39 37 35 33 33 29 27 31 37 39 39 40 37 34 28 28 25 25 28 26 27 26 25 27 26
42 42 42 43 44 44 45 47 47 49 50 48 43 41 46 44 43 42 38 32 33 34 36 35 35 35 32 30 30 28 34 37 35 38 35 35 31 30 31 32 29 27 26 26 25 24 22
42 43 42 42 43 42 42 44 47 48 49 44 46 46 45 41 42 41 38 34 32 35 36 35 34 35 34 31 36 36 38 39 38 38 35 36 34 31 29 27 26 23 26 25 25 25 25
42 43 42 42 43 41 42 43 47 48 48 47 45 47 46 39 42 40 36 36 35 35 36 36 33 35 39 43 42 42 40 38 40 39 39 37 36 32 28 26 16 27 24 19 20 22 23
41 43 43 43 43 42 43 45 46 47 49 44 48 49 46 36 40 40 36 36 34 37 39 38 42 46 44 43 41 37 36 32 35 38 37 41 37 31 25 25 27 25 23 24 23 24 26
41 41 41 42 44 43 45 46 45 47 49 47 45 51 50 45 41 40 37 36 36 37 40 46 49 50 49 45 36 31 31 32 32 31 37 36 38 30 29 24 17 29 25 27 26 24 31
42 42 41 43 44 46 45 45 46 48 48 48 46 50 48 45 48 42 36 34 38 43 45 45 47 47 50 36 36 31 31 34 31 31 29 30 30 27 25 24 30 34 29 32 20 26 34
42 42 41 43 45 45 46 47 48 48 49 48 46 48 47 46 47 50 40 37 39 45 41 45 42 46 45 37 38 33 31 32 33 37 34 31 31 27 31 31 26 31 29 27 36 36 37
42 43 44 45 44 45 46 47 48 48 48 47 42 48 50 46 47 50 52 51 43 46 45 46 43 44 45 42 40 38 37 34 32 28 36 32 37 34 34 33 38 37 38 40 40 39 39

GFSGBSN_sfc_dewp_054.txt.gz
Dewpoint
53 54 55 56 57 57 58 60 59 58 58 57 56 56 56 57 56 56 55 55 55 56 56 55 56 56 51 42 42 43 60 59 45 35 32 30 32 31 23 18 20 18 18 35 44 45 44
53 53 54 55 56 57 57 58 60 58 57 57 56 56 56 56 56 55 55 54 55 55 55 55 55 56 50 38 38 50 46 47 37 31 30 31 30 28 24 24 23 26 41 42 43 43 45
53 53 53 53 55 56 57 56 57 59 58 57 57 56 56 56 55 55 54 54 54 54 55 55 55 52 47 33 36 35 35 37 38 29 27 27 30 31 28 29 31 29 27 36 38 38 37
53 53 53 53 54 55 56 55 55 58 58 58 57 56 55 55 54 54 53 54 54 54 55 55 55 50 42 44 44 41 39 36 35 31 28 30 35 34 32 32 29 22 23 24 38 39 38
52 53 53 52 53 54 55 55 55 56 58 58 57 56 55 54 54 53 53 54 54 54 55 54 50 47 43 48 41 42 39 33 32 34 35 31 33 33 31 28 25 23 20 20 30 35 36
52 53 52 52 52 52 54 55 55 56 57 58 57 56 55 54 53 53 53 53 53 53 52 50 47 40 41 32 35 34 32 32 31 37 35 32 31 31 31 24 21 23 21 21 22 35 36
50 50 53 52 52 52 53 55 55 54 56 57 57 56 56 54 53 53 51 49 44 46 46 40 35 36 31 34 34 30 30 31 30 34 34 35 31 29 28 31 31 25 24 21 21 26 33
50 51 51 52 52 52 53 54 55 54 55 56 57 56 55 54 53 53 50 44 43 41 39 44 43 41 38 40 33 29 30 26 26 28 34 29 30 33 30 33 33 30 27 23 25 24 31
50 48 50 51 52 52 52 53 54 54 54 55 56 56 55 53 53 50 48 46 44 44 41 42 43 43 42 43 34 28 29 27 25 30 29 27 30 34 32 32 31 30 30 27 25 25 22
49 50 48 50 52 51 52 52 53 54 53 55 55 55 54 52 47 48 48 50 50 46 38 38 40 40 41 33 25 28 29 26 29 28 31 31 34 30 31 31 31 28 31 30 28 21 15
47 47 49 48 50 52 51 51 52 54 53 53 55 55 53 51 49 47 50 49 48 48 15 32 36 38 35 24 28 28 28 26 22 31 29 26 32 31 29 28 31 30 33 32 29 27 25
48 47 48 48 47 49 50 50 51 53 53 53 54 55 53 51 50 49 50 49 51 40 26 34 32 28 22 24 28 25 25 27 28 31 31 27 33 31 29 34 32 31 30 33 33 31 24
47 48 46 47 47 47 49 50 50 52 52 51 54 54 52 50 44 51 52 50 39 33 34 29 24 24 26 25 27 25 24 19 20 22 25 29 28 31 34 28 30 30 28 24 23 25 23
45 47 47 46 48 47 48 50 49 51 52 51 52 53 52 49 49 51 51 45 33 33 34 33 23 24 23 25 24 24 21 19 23 23 26 25 23 30 33 30 30 32 28 25 18 24 24
44 46 46 46 46 48 48 49 49 50 51 50 52 53 51 51 51 49 49 38 32 36 30 28 23 23 24 25 24 25 22 21 20 22 20 27 29 37 36 34 30 32 29 31 28 30 27
43 45 47 45 45 45 47 48 49 49 51 50 49 51 50 51 50 49 46 35 38 39 36 34 27 25 23 23 24 24 23 23 20 23 24 31 28 34 37 35 33 27 31 29 29 17 17
43 45 45 45 44 44 45 47 49 49 50 52 49 46 50 51 50 45 37 36 36 36 38 38 35 30 25 24 24 24 23 24 24 24 30 33 30 29 36 32 27 27 25 27 27 27 21
43 45 45 46 45 44 45 46 47 49 50 50 47 41 49 51 40 40 36 37 37 37 39 39 39 37 28 27 25 25 23 23 29 34 29 33 34 30 28 32 36 33 29 30 25 19 26
43 44 43 44 45 44 44 46 47 49 50 46 44 44 49 47 33 34 37 37 38 34 36 38 37 36 34 29 25 27 26 37 35 31 31 33 30 28 27 29 31 31 27 27 32 29 24
43 43 43 44 43 43 44 43 47 48 49 47 46 39 46 45 39 32 33 36 37 36 35 36 37 39 35 32 30 29 34 39 41 37 40 37 32 27 26 24 25 26 27 26 26 26 24
42 43 42 43 44 43 43 43 46 48 49 47 46 38 41 38 39 34 33 34 33 33 34 38 36 36 36 31 29 30 38 38 39 38 37 33 27 28 27 27 28 27 26 26 25 27 24
42 42 42 42 42 42 42 43 43 47 49 45 42 40 43 41 39 37 32 31 31 32 32 29 34 38 38 32 29 27 36 36 34 36 32 34 27 27 26 30 27 26 25 25 25 24 24
42 42 41 41 41 42 42 43 44 45 48 42 46 45 44 38 39 38 36 31 31 31 34 31 36 36 36 36 35 32 37 38 36 34 34 34 33 29 26 26 27 24 25 25 25 26 25
42 42 41 41 42 42 42 42 45 45 47 45 43 46 43 37 41 39 38 38 33 32 31 34 32 38 38 43 41 39 38 40 40 40 38 35 34 29 26 25 18 28 28 27 25 25 26
42 42 42 42 42 42 42 45 45 44 47 42 47 48 44 37 41 41 40 37 38 34 36 35 38 42 42 42 38 33 33 33 36 36 38 40 34 30 24 25 27 26 22 19 23 25 29
42 42 42 42 42 43 43 42 42 43 45 44 43 49 48 40 40 40 41 38 36 35 34 40 48 49 47 43 36 30 28 31 33 34 39 36 36 31 28 22 18 27 26 26 27 24 31
42 42 43 43 43 43 43 43 43 43 45 45 44 48 46 44 44 43 40 37 37 36 38 44 45 44 48 36 34 30 30 34 29 28 26 30 31 26 23 22 25 30 30 29 17 21 34
42 42 42 42 42 43 43 44 43 44 48 45 43 49 46 44 45 48 48 38 37 36 35 43 42 43 41 35 36 36 31 33 32 33 30 28 28 25 28 24 22 35 31 24 30 37 37
42 41 42 42 43 43 43 45 45 47 47 46 43 48 50 44 45 48 48 48 47 43 42 44 40 43 45 40 41 39 35 33 32 30 37 30 31 30 31 30 36 39 37 39 39 38 39

GFSGBSN_sfc_dewp_057.txt.gz
Dewpoint
53 53 54 55 56 57 56 57 58 59 58 58 57 57 57 57 57 56 55 54 55 55 55 55 55 56 50 38 34 39 58 56 52 38 32 28 31 29 26 22 20 18 27 30 44 44 43
53 53 53 53 54 54 54 56 57 58 58 58 57 56 56 56 56 56 55 54 54 55 55 55 55 56 48 30 32 48 41 41 37 35 31 30 29 29 27 25 26 39 42 43 43 44 45
52 53 53 53 53 54 54 55 56 56 58 58 57 56 56 56 56 55 55 54 54 54 55 54 55 52 47 28 36 39 41 35 38 31 26 29 32 31 32 27 31 33 36 37 38 41 41
52 52 53 53 53 53 54 55 55 55 56 58 58 57 56 55 55 54 54 53 53 54 55 55 54 49 38 40 45 46 41 37 36 36 28 31 31 32 32 30 29 26 29 31 36 39 38
51 52 51 51 53 53 53 54 55 55 55 56 58 57 56 55 54 54 53 53 53 54 55 54 49 46 41 46 39 40 39 34 33 34 33 29 33 32 30 32 23 23 20 27 29 38 37
51 52 51 52 50 52 53 53 54 55 55 55 57 57 56 55 54 53 53 53 53 53 52 51 48 36 32 31 36 35 38 34 31 34 33 32 33 30 30 24 20 24 21 22 21 31 35
50 51 51 50 51 52 53 53 53 55 55 55 56 57 56 55 54 53 51 47 41 44 46 40 33 27 30 34 40 31 31 30 31 33 31 34 30 28 28 27 31 30 27 24 23 23 31
51 50 51 51 51 52 53 53 52 54 54 54 55 56 56 55 54 53 49 43 39 42 38 42 42 38 39 40 39 37 31 25 28 26 33 29 30 31 31 33 31 31 30 28 26 26 31
49 51 50 50 50 51 53 52 52 53 54 53 54 55 56 55 53 50 47 45 45 45 38 39 42 42 41 42 40 39 29 27 24 25 28 27 28 34 32 31 29 28 29 29 27 26 29
46 47 50 49 49 50 51 52 51 52 53 53 53 54 55 53 49 46 48 49 48 46 33 32 42 42 42 40 29 34 29 26 29 24 29 29 32 30 31 28 29 26 30 31 30 22 16
46 46 46 49 49 49 49 52 51 52 53 53 52 54 54 52 46 47 50 49 48 46 13 22 39 39 39 25 26 27 29 26 28 31 29 27 31 30 28 27 29 27 33 31 31 27 24
44 45 46 46 48 48 48 48 51 50 52 52 52 53 54 52 50 48 49 50 51 36 18 29 35 34 29 25 26 26 27 27 27 29 31 25 33 31 28 31 32 32 31 30 31 29 23
45 45 45 45 49 47 47 48 50 50 50 52 52 53 53 51 45 50 50 49 39 31 28 30 29 27 28 23 24 26 22 22 23 23 25 29 28 31 35 29 30 29 26 22 22 23 22
45 45 45 45 48 48 48 47 48 50 49 51 51 51 53 51 50 48 50 46 32 31 33 36 25 26 22 25 24 26 21 20 21 23 25 23 21 27 31 29 28 32 26 24 16 22 22
46 45 44 45 46 48 47 48 47 49 49 50 51 48 51 53 51 47 48 37 31 33 34 26 24 22 23 25 24 24 22 21 20 22 19 26 24 35 37 33 30 31 29 29 28 29 27
47 46 45 44 45 47 47 47 47 47 49 50 47 45 46 53 52 46 44 36 35 38 38 37 22 24 22 24 23 23 23 24 21 23 24 26 23 33 35 35 34 29 31 26 28 18 18
47 46 45 44 44 46 47 46 47 47 49 49 44 41 46 51 52 43 36 35 36 37 37 38 36 30 25 24 25 25 23 24 24 24 26 31 26 27 34 30 26 28 26 26 28 25 21
47 46 45 44 44 46 46 46 46 47 48 47 42 37 50 51 42 38 35 36 37 33 36 38 39 38 32 27 25 25 25 24 27 31 25 31 29 25 26 31 33 28 27 28 25 21 26
47 46 45 44 44 45 46 46 46 46 48 45 38 41 51 48 38 35 36 36 37 34 36 35 37 38 37 29 24 28 29 30 33 31 31 33 29 24 23 27 33 31 30 31 30 28 25
47 46 45 44 44 44 46 45 44 45 47 45 40 37 44 47 41 36 34 36 35 38 36 36 36 39 37 32 31 28 28 38 39 33 41 35 31 26 24 24 28 28 27 26 28 26 23
47 46 45 44 44 45 44 45 44 45 46 44 41 34 39 37 39 39 34 35 35 35 37 35 33 35 35 33 30 29 37 37 38 38 36 33 28 27 27 26 25 24 25 27 26 26 24
47 46 44 43 44 45 45 44 44 46 48 42 37 39 41 38 38 39 34 32 34 35 33 32 30 35 33 33 32 29 36 35 33 35 32 33 26 25 29 29 28 26 26 25 26 25 27
47 46 44 43 44 45 44 44 44 43 45 42 36 43 41 38 35 36 35 33 33 35 35 33 32 30 29 36 39 37 35 36 34 34 32 31 31 27 23 26 26 24 26 25 25 25 24
46 45 44 43 44 44 43 42 43 43 44 44 35 44 42 34 37 33 35 34 33 33 33 34 32 33 35 42 40 38 39 40 38 38 37 33 31 27 24 25 17 25 29 27 26 26 26
45 44 44 43 44 43 43 42 43 43 43 41 42 43 44 34 37 37 36 36 34 34 34 33 34 31 42 43 36 33 32 32 34 38 38 37 32 28 24 25 25 27 24 24 22 23 29
44 44 43 43 43 42 42 41 42 43 42 43 41 46 44 40 37 39 37 37 36 34 33 35 42 47 45 41 34 30 29 33 33 33 37 36 35 30 25 22 21 29 29 25 26 22 29
44 43 43 42 42 41 41 42 42 44 44 43 43 48 44 40 42 43 39 38 38 37 36 36 45 44 45 35 32 30 29 34 30 29 29 30 30 28 23 22 27 29 29 26 19 22 32
43 42 42 42 41 41 42 42 43 44 44 43 43 48 45 43 44 46 46 40 39 38 35 40 42 42 39 35 35 33 29 33 30 32 30 31 30 25 26 20 23 32 30 22 27 36 36
42 42 42 42 41 41 41 42 43 44 45 44 42 49 49 43 44 46 46 46 46 44 38 43 39 42 42 39 37 35 33 31 31 29 35 28 31 31 30 30 34 37 31 36 37 37 38

GFSGBSN_sfc_dewp_060.txt.gz
Dewpoint
52 53 53 53 53 53 53 55 56 57 57 59 58 58 57 57 57 56 55 55 55 55 54 55 55 55 50 33 28 32 56 59 49 38 31 29 29 28 25 24 23 18 32 40 44 45 43
52 52 53 53 53 52 51 53 55 56 56 57 58 57 57 57 57 56 55 55 54 54 54 55 55 55 47 26 27 45 37 38 39 34 32 30 30 29 27 26 27 41 40 42 42 44 45
51 52 53 53 53 53 53 53 54 55 55 55 57 58 57 57 56 56 55 55 54 54 54 54 54 52 46 29 35 39 43 39 37 33 26 30 31 29 32 29 35 37 36 36 39 44 40
52 52 51 52 52 52 51 53 53 54 55 55 55 57 57 56 56 55 55 54 53 54 54 54 54 49 36 37 43 44 43 41 38 37 29 30 31 32 32 32 27 32 28 29 35 39 39
52 52 52 51 51 52 52 50 52 53 54 55 55 55 56 56 55 55 54 53 53 54 55 54 48 44 36 42 37 36 40 35 33 34 34 29 33 31 30 29 23 23 21 27 25 38 36
49 52 51 51 51 51 51 53 52 53 53 54 55 55 56 56 55 54 53 53 53 53 52 52 48 40 32 29 35 37 40 36 30 33 35 32 33 29 29 24 20 22 21 22 23 30 36
47 48 51 50 51 51 51 52 52 52 53 54 54 55 56 56 56 53 50 46 37 43 47 39 37 32 25 36 41 33 32 30 32 32 30 33 29 27 27 26 26 28 27 26 26 28 27
47 47 47 49 50 50 51 51 52 52 52 54 54 53 54 56 55 53 50 41 38 42 39 41 42 40 37 40 38 37 31 26 27 24 32 29 29 30 29 33 30 30 29 27 28 27 27
47 47 47 46 49 50 50 50 50 52 52 53 53 53 54 55 54 51 46 42 45 47 40 36 41 40 39 41 38 37 30 26 24 26 29 27 27 33 31 31 29 28 27 27 27 28 29
47 47 46 47 47 48 50 49 50 51 51 52 52 52 53 54 50 47 45 49 49 47 30 28 39 40 42 42 34 40 30 26 27 23 27 27 30 30 30 29 29 25 29 30 30 25 19
47 47 47 46 47 47 50 48 49 50 52 51 52 52 53 53 47 47 48 48 49 44 12 23 40 41 41 30 25 27 29 26 25 27 29 24 30 30 29 28 29 27 32 31 31 28 24
48 47 47 46 46 46 47 49 48 49 51 51 52 52 52 53 51 49 49 50 50 32 19 24 36 36 32 26 25 27 27 27 29 31 32 25 32 30 28 30 30 32 32 29 29 27 23
48 48 47 46 46 45 46 49 49 48 49 51 50 51 52 52 49 49 50 48 40 29 27 27 32 32 28 24 22 24 24 24 24 23 25 28 28 30 32 29 30 29 25 21 21 23 21
48 48 48 47 46 45 46 48 49 47 48 50 49 51 51 51 50 48 50 45 32 31 31 34 28 30 26 22 21 24 21 22 22 24 24 23 19 26 30 28 26 30 25 23 15 20 21
48 48 48 47 46 45 46 46 48 46 47 50 49 46 48 48 52 48 46 37 30 32 33 28 25 22 22 24 21 24 22 21 21 24 20 24 21 33 35 33 29 30 26 27 26 28 26
48 48 48 47 46 45 45 46 48 47 48 49 47 43 42 48 53 50 41 35 35 36 37 37 25 24 20 23 23 22 22 23 21 24 24 25 20 31 34 34 34 29 31 25 26 20 18
48 48 48 48 46 45 45 45 47 47 47 48 46 40 41 48 53 46 35 35 37 37 38 37 36 30 24 24 24 24 24 24 24 24 24 28 22 24 32 30 27 29 28 26 27 24 20
47 47 47 48 46 46 45 45 46 47 45 46 43 33 44 51 42 42 38 35 37 36 38 36 38 38 31 26 25 25 24 24 27 28 24 30 26 21 25 31 30 28 29 27 25 21 25
47 47 47 48 47 46 45 45 46 47 45 43 39 35 50 47 34 37 38 35 37 35 35 33 36 37 37 29 23 26 28 29 29 27 28 31 25 20 20 25 32 31 30 30 29 27 24
47 47 47 48 47 46 45 45 46 46 46 44 39 31 42 44 36 33 35 35 34 38 36 36 35 37 36 33 30 27 28 35 35 31 40 35 30 23 19 19 26 29 28 30 28 26 24
45 48 47 47 47 46 45 45 45 45 46 45 39 31 38 35 35 35 35 34 33 33 36 37 35 35 35 32 30 28 35 37 37 40 35 31 25 27 26 25 24 24 24 26 25 25 23
45 46 48 47 47 46 45 45 45 45 46 44 36 34 40 36 35 35 37 33 33 34 36 34 33 33 35 32 31 29 36 35 32 34 33 32 26 26 28 28 28 28 26 27 26 26 25
46 45 47 48 47 46 44 44 45 45 44 39 41 40 41 35 36 33 34 33 33 35 36 35 33 32 33 33 33 37 37 36 35 34 32 30 30 26 23 26 26 24 26 26 26 26 26
46 44 45 48 46 46 44 43 44 44 43 42 41 40 39 33 35 32 32 34 33 35 35 35 37 34 33 37 40 38 38 38 37 36 35 31 29 27 24 24 17 25 29 28 27 26 25
45 45 46 48 46 45 44 44 45 44 44 42 41 41 40 33 35 35 33 33 33 35 36 35 36 35 38 39 36 33 32 32 34 38 38 35 31 28 24 24 23 24 25 25 24 22 27
44 44 47 46 45 45 44 43 43 44 45 43 42 42 42 38 35 35 34 35 33 33 34 35 37 42 43 38 34 30 29 31 32 33 36 34 33 29 25 21 19 26 28 25 23 21 29
44 45 46 45 45 44 44 43 43 44 45 42 41 42 41 38 41 39 35 34 36 35 34 34 39 41 41 31 29 29 30 34 31 31 31 30 29 26 23 22 27 31 28 26 19 24 30
46 46 45 45 44 44 44 44 43 44 44 41 40 45 42 39 43 45 43 38 37 36 33 37 41 40 36 32 32 30 28 33 32 34 33 32 31 27 25 22 24 30 28 23 28 34 34
45 44 44 44 44 43 43 42 43 43 43 40 37 43 47 43 42 45 45 46 40 39 37 41 36 41 41 38 35 33 31 31 31 29 34 31 33 32 31 31 34 33 30 33 34 35 36

GFSGBSN_sfc_dewp_063.txt.gz
Dewpoint
51 52 52 52 53 52 52 51 53 55 55 56 56 58 59 58 58 57 56 55 55 55 55 54 55 56 50 34 28 40 58 60 50 41 30 28 28 28 26 25 24 19 27 41 41 44 43
52 52 52 52 52 52 51 53 53 53 54 55 55 56 57 58 57 57 56 55 55 55 55 54 55 55 45 26 26 40 40 41 40 34 32 29 29 30 27 27 27 39 40 42 43 43 43
52 53 52 52 51 52 52 53 52 52 53 54 55 55 55 57 57 57 56 55 55 55 54 54 54 52 44 31 33 38 43 39 37 34 28 30 31 29 31 28 40 37 36 35 40 43 39
48 49 52 52 52 51 51 52 52 52 52 53 54 55 55 55 56 56 56 55 54 54 54 54 54 50 35 37 40 41 43 40 40 36 29 30 32 31 32 31 27 33 28 26 34 39 38
46 48 49 51 51 51 51 51 51 52 51 52 53 54 54 54 55 56 55 54 54 54 54 54 49 43 33 41 31 33 40 35 36 37 35 29 33 32 31 30 25 25 23 26 24 37 36
44 45 48 50 51 51 51 51 50 51 52 51 53 53 54 54 55 55 54 53 53 53 53 52 48 40 37 27 32 37 41 37 33 35 35 33 34 30 30 26 22 23 21 23 23 29 37
46 45 45 48 50 50 52 50 50 50 52 51 52 53 54 53 55 55 51 47 35 42 48 42 36 35 26 36 40 37 35 34 33 34 32 34 30 29 27 27 26 25 25 25 25 29 29
49 48 46 46 47 48 49 51 49 50 50 52 52 53 53 53 55 54 50 45 37 44 40 43 43 40 39 40 38 36 33 28 30 25 32 31 30 31 29 29 29 29 27 26 27 28 28
49 49 48 46 46 46 46 49 50 50 50 51 51 52 53 52 54 52 49 44 46 48 43 41 40 39 38 39 36 34 30 29 26 27 31 30 28 32 31 31 30 29 28 27 25 29 29
49 49 49 48 48 47 47 48 50 50 49 50 51 50 52 53 52 49 46 48 48 50 35 28 35 38 41 40 33 38 31 28 26 26 29 28 29 30 31 30 30 28 29 28 28 28 22
48 49 49 48 48 48 47 47 48 50 49 49 50 50 51 53 49 46 47 50 49 46 16 23 40 41 42 31 29 36 31 29 28 26 30 25 30 30 29 30 30 28 31 30 30 28 26
48 48 48 48 48 48 47 47 47 49 49 48 50 50 51 51 52 50 51 51 51 34 23 23 37 37 37 34 26 27 29 30 31 32 31 25 32 31 30 30 30 32 32 28 29 28 25
48 48 48 48 48 48 47 47 46 48 49 49 50 50 50 51 48 51 51 47 39 31 28 23 34 34 32 27 24 26 27 27 26 27 29 27 28 30 32 29 30 29 27 24 25 25 23
48 48 48 48 48 48 48 47 46 47 48 48 49 50 50 50 51 51 51 43 32 32 30 32 30 33 26 24 23 25 26 24 25 25 25 23 21 27 31 28 28 29 28 29 16 20 21
48 48 48 48 48 48 48 47 46 46 48 48 49 48 48 49 51 51 45 35 30 32 32 29 26 30 28 24 24 26 27 25 25 27 23 26 22 30 34 32 30 31 27 28 28 29 28
49 48 48 48 48 48 48 47 46 46 48 48 44 44 44 49 51 49 41 33 35 35 37 36 29 28 29 24 23 25 25 26 24 27 31 30 23 31 34 34 33 30 31 28 29 22 19
48 48 48 48 48 48 48 47 46 46 47 48 43 39 42 48 50 44 36 32 35 38 37 36 37 34 25 25 26 25 25 25 24 26 28 29 26 25 32 31 29 30 30 28 27 26 22
48 48 48 48 48 48 48 47 46 46 47 46 41 33 42 46 37 38 35 35 36 35 38 36 37 37 33 27 27 27 26 28 28 28 25 32 31 27 26 30 30 30 31 30 30 24 27
47 48 48 48 48 47 48 47 46 45 46 44 37 38 44 41 31 32 35 35 35 34 35 35 35 37 39 32 26 29 29 32 28 30 30 33 28 23 21 26 32 30 29 30 30 30 26
46 46 48 48 48 47 48 47 46 45 46 43 38 32 40 41 32 31 32 34 35 36 35 36 35 36 37 35 34 29 30 34 34 31 39 35 30 26 20 21 28 31 31 30 30 29 28
46 46 46 48 48 48 48 47 46 45 46 43 39 34 37 32 32 30 32 32 31 32 35 37 35 34 35 33 32 30 33 38 37 40 36 35 28 28 25 23 27 28 28 30 28 29 28
46 46 46 47 48 48 48 47 46 45 45 41 35 36 36 36 33 31 33 32 31 33 35 33 33 35 33 34 32 33 34 37 36 35 35 34 30 30 27 29 26 25 25 28 29 27 26
46 46 46 47 48 48 48 46 45 45 45 40 41 41 35 33 33 30 30 31 33 34 35 35 35 36 34 33 37 37 40 39 37 36 35 33 33 30 26 27 28 28 29 27 28 28 29
46 46 46 46 47 48 48 46 45 45 43 43 41 40 36 29 34 31 29 34 32 34 34 35 38 34 36 40 40 39 39 38 38 37 37 34 32 30 29 27 26 29 29 29 29 29 28
45 46 46 45 45 47 47 45 45 45 43 41 40 40 38 31 34 32 31 31 35 35 35 36 36 39 40 39 38 32 35 35 36 38 36 35 33 30 31 27 26 25 27 28 28 24 29
44 45 45 45 45 48 46 45 45 44 44 40 41 43 42 35 32 34 32 32 33 34 35 37 41 44 42 38 35 30 30 32 33 34 35 33 34 34 28 27 25 30 27 29 27 24 28
45 45 45 45 44 47 46 45 45 44 44 39 42 44 42 37 40 37 34 32 34 35 35 37 37 40 41 34 33 32 30 34 33 32 33 33 33 31 28 32 30 31 29 30 26 28 31
45 45 44 44 45 46 45 45 45 44 44 41 42 44 41 39 40 43 42 37 35 36 34 37 37 39 38 33 33 33 33 32 33 35 34 33 32 32 29 31 27 32 26 29 34 33 33
44 44 44 44 46 45 45 44 44 44 45 42 40 45 45 40 42 45 45 45 37 36 36 41 38 39 39 37 37 35 35 34 34 29 36 34 35 34 33 34 38 33 35 34 33 35 37

GFSGBSN_sfc_dewp_066.txt.gz
Dewpoint
52 53 52 51 52 52 51 52 53 53 53 53 54 55 56 57 58 58 57 56 56 56 56 56 55 56 48 31 25 41 60 60 48 38 30 24 23 27 23 25 26 25 29 36 35 39 40
49 51 53 53 52 51 50 52 53 52 52 53 54 54 55 55 56 58 57 57 56 56 56 55 55 55 43 27 26 40 40 40 35 34 29 28 29 30 28 28 28 36 37 36 37 39 40
47 49 49 51 53 52 51 51 51 52 51 52 53 53 54 55 55 56 57 57 56 55 55 55 54 49 41 32 28 38 40 36 36 32 27 28 29 31 32 29 37 37 34 37 39 39 35
46 46 46 49 51 52 52 51 51 51 51 51 52 53 53 54 54 54 56 56 55 55 55 55 54 48 32 34 33 34 33 38 36 35 34 31 32 32 33 32 29 29 28 21 32 37 37
47 46 46 47 48 50 52 52 51 51 50 51 51 51 53 53 54 54 55 55 55 55 54 54 50 45 30 40 33 29 29 29 33 37 37 30 33 32 32 27 23 24 18 21 23 32 32
48 48 47 48 48 49 50 52 51 51 50 50 51 51 52 53 53 54 55 55 55 52 52 50 47 41 35 25 30 35 36 28 32 35 34 33 32 30 28 24 16 19 19 21 22 27 32
49 49 49 49 48 48 48 50 52 51 50 50 51 51 51 53 53 54 54 50 44 42 47 37 35 32 29 32 40 35 37 35 31 32 29 33 28 26 21 24 24 21 21 20 22 26 27
47 49 49 49 49 47 47 48 49 51 50 50 50 51 51 52 53 54 53 46 45 45 37 38 39 39 38 38 34 36 35 28 30 27 30 31 28 27 28 27 27 25 23 23 24 26 28
48 48 49 49 49 49 47 47 48 49 51 50 50 50 50 52 53 53 53 49 46 46 37 36 38 34 32 37 31 30 32 26 26 25 27 26 27 30 29 29 27 26 25 24 23 25 28
48 48 48 49 50 50 49 49 48 48 50 50 49 50 50 51 50 51 50 49 49 50 37 27 32 34 34 33 32 28 32 26 26 24 24 26 27 28 28 25 26 24 26 26 25 26 20
47 48 48 48 48 49 49 49 48 48 48 50 49 49 50 51 50 48 48 53 51 49 18 20 33 36 34 25 23 27 32 28 24 25 27 25 26 27 26 26 28 25 30 28 28 28 26
48 48 48 48 48 48 49 48 48 48 48 49 49 49 50 48 50 50 51 54 50 36 22 19 36 35 34 30 26 27 28 28 26 25 27 23 30 29 27 29 29 32 31 30 30 28 23
48 48 48 48 48 48 48 49 48 48 47 48 49 49 49 44 43 50 53 50 37 28 21 17 33 34 29 25 25 25 25 27 23 24 25 24 24 28 30 28 31 30 29 25 26 24 22
48 48 48 48 48 48 48 48 48 48 47 47 49 48 48 48 45 51 51 44 30 17 21 28 32 33 27 22 22 26 23 24 24 21 20 21 21 25 29 27 25 29 28 26 17 19 19
48 48 48 48 48 49 49 49 49 48 47 47 49 49 47 49 49 51 46 35 28 25 27 24 29 32 27 22 20 25 24 22 23 25 21 22 18 24 29 29 28 30 27 28 27 31 28
48 48 48 48 48 48 48 48 49 48 47 47 46 44 42 48 50 48 40 33 29 27 30 33 24 31 29 21 21 23 23 23 23 25 25 25 21 24 31 32 32 30 29 27 29 21 18
48 47 48 48 48 48 48 48 48 48 47 47 45 39 41 48 50 41 32 32 30 32 34 34 29 32 27 25 20 23 22 23 23 26 26 23 23 29 32 30 26 30 28 28 26 26 22
47 47 47 48 48 48 48 48 48 48 46 47 41 34 44 47 36 37 33 32 33 30 37 36 36 35 35 26 24 20 21 22 26 25 26 27 26 24 23 28 30 28 27 29 26 23 28
47 47 47 47 47 48 48 48 48 48 47 45 37 38 48 44 29 31 32 32 30 32 30 35 34 34 37 35 25 25 24 28 26 26 26 28 26 23 22 26 31 27 27 27 28 30 25
48 48 47 47 48 48 48 48 48 48 47 43 38 32 39 41 34 29 29 29 29 32 32 33 34 34 34 33 35 27 26 31 31 28 39 34 25 24 22 18 19 23 25 27 26 28 24
47 48 48 47 48 48 48 48 48 48 47 43 39 35 36 31 34 29 29 27 26 28 31 34 34 34 33 31 32 29 28 34 31 37 32 32 24 24 21 18 17 19 17 20 23 23 22
46 46 47 48 47 47 47 49 48 48 47 41 35 36 34 33 34 31 28 28 26 26 29 30 32 32 33 33 33 31 32 33 30 36 33 32 26 27 25 22 22 20 20 21 24 23 24
45 46 46 46 46 46 47 48 48 48 46 40 41 37 33 32 33 30 28 24 26 27 30 31 32 32 33 33 36 36 37 35 34 32 35 33 29 29 24 27 26 30 28 23 26 28 28
45 45 45 46 46 46 46 46 48 47 45 44 40 37 36 29 30 30 27 23 25 26 30 31 34 34 33 38 37 35 34 33 33 32 34 35 32 32 29 32 31 24 29 26 26 26 26
44 45 45 46 46 46 46 46 48 46 45 42 41 38 35 35 27 27 29 25 26 28 30 31 36 36 39 36 33 30 32 33 32 34 37 37 35 34 36 27 24 25 26 28 28 26 27
45 44 45 45 46 46 46 46 47 46 45 41 43 42 42 35 31 27 30 29 27 29 33 33 36 42 41 38 36 28 28 30 31 35 37 35 36 36 32 29 32 30 26 29 29 26 26
45 45 45 46 46 45 46 47 47 46 45 42 44 46 41 36 32 31 32 31 29 30 35 35 39 39 40 39 37 33 30 30 31 34 37 36 36 37 33 35 30 30 29 30 26 30 29
44 44 44 45 45 45 47 47 46 45 45 42 43 46 43 39 36 34 35 35 32 33 35 34 35 39 40 37 36 35 37 33 32 33 35 34 35 37 34 37 33 32 28 28 33 37 34
45 45 45 45 45 44 45 46 46 45 45 42 41 46 45 42 40 44 46 42 35 34 34 41 32 36 38 36 39 38 40 40 33 30 33 33 35 35 34 33 40 35 33 34 36 34 36

GFSGBSN_sfc_dewp_069.txt.gz
Dewpoint
48 48 50 52 53 52 50 52 53 52 53 52 53 53 52 53 55 56 56 57 57 57 57 57 57 56 49 34 28 42 60 60 44 39 32 25 23 20 21 20 22 22 25 28 29 31 31
47 47 48 49 50 53 52 52 52 51 52 52 52 53 53 53 54 55 55 56 57 57 57 57 56 55 42 32 25 28 37 45 38 36 29 24 24 26 26 24 23 31 30 30 31 30 32
47 46 46 49 50 49 51 53 52 51 51 52 51 52 52 53 53 54 55 55 56 57 57 56 55 49 41 35 28 30 35 35 33 30 26 28 28 28 28 26 26 28 27 34 37 30 29
48 47 47 48 49 49 50 52 52 52 51 51 51 51 51 52 53 53 54 55 55 56 56 55 55 47 40 32 31 28 30 37 35 32 30 31 32 32 30 28 26 23 25 21 39 35 30
50 49 48 49 49 49 49 49 52 52 52 51 50 51 51 51 52 53 53 54 55 57 55 54 51 46 34 40 30 27 25 30 35 34 35 33 33 31 29 24 21 21 17 24 25 27 26
47 48 51 50 50 50 49 49 49 52 52 51 51 50 51 50 52 53 53 54 54 54 52 49 45 41 37 26 26 25 24 27 30 34 35 34 30 28 27 23 19 17 18 17 19 26 26
46 46 47 49 51 50 49 49 49 50 52 52 51 50 50 51 51 53 52 48 44 46 46 33 31 27 25 25 34 30 24 27 30 32 30 30 27 25 23 24 21 20 19 19 21 23 23
46 46 46 46 48 50 49 49 49 49 50 51 51 50 50 51 51 53 53 43 40 45 37 35 36 34 35 34 31 27 31 28 29 28 29 27 27 26 24 20 20 21 21 22 23 23 24
48 48 46 46 46 47 49 50 49 49 49 50 51 50 50 50 52 51 48 44 46 48 40 28 26 29 28 31 32 26 29 26 26 26 25 25 26 25 26 24 24 24 24 25 22 24 23
47 47 47 46 46 48 49 50 50 49 49 49 51 50 49 50 47 43 45 46 48 50 34 18 31 31 27 27 28 27 28 24 25 24 23 24 24 26 26 25 25 23 24 24 24 23 26
47 47 47 48 48 48 48 49 50 50 49 48 50 50 49 49 46 46 46 51 52 50 9 17 26 31 27 26 11 22 26 23 23 23 23 21 22 26 25 25 24 24 27 25 26 26 24
47 47 48 48 48 48 48 49 49 49 49 48 49 50 49 45 46 45 50 53 52 32 14 16 29 29 30 28 18 18 24 25 23 22 22 21 24 24 24 25 27 26 26 28 28 27 24
46 47 47 48 48 48 48 49 49 49 49 49 48 49 48 42 43 44 51 51 32 19 12 11 26 30 30 26 24 20 21 23 22 22 23 22 23 24 27 25 28 28 28 26 26 25 23
47 47 47 48 48 48 48 49 49 48 49 48 48 49 46 41 44 48 49 43 22 14 15 24 26 31 28 24 22 23 21 22 23 21 20 20 19 22 26 26 26 26 26 27 23 24 22
48 48 48 48 48 48 48 48 49 49 49 48 48 44 41 44 46 49 43 33 21 15 12 12 23 30 29 25 21 22 22 20 20 22 20 20 18 20 23 25 25 26 26 26 26 26 27
48 48 48 48 48 48 48 48 48 49 49 48 46 41 37 46 48 48 38 32 26 15 10 20 17 27 26 25 21 21 21 19 19 21 23 21 21 19 22 25 26 27 28 26 26 22 23
48 48 48 48 48 48 48 48 49 49 48 48 44 40 38 46 49 43 32 31 30 20 18 22 24 19 26 27 22 23 21 19 19 21 23 22 24 23 26 26 23 25 28 27 25 25 25
47 47 47 48 48 48 48 48 48 49 48 47 43 35 41 49 36 37 33 31 31 26 23 26 32 30 24 28 26 23 26 21 22 22 23 25 25 23 24 23 22 25 26 26 27 23 26
47 47 47 48 48 48 48 48 48 48 48 45 38 38 44 45 31 33 32 30 29 26 24 27 30 30 33 34 28 25 26 28 24 24 26 26 24 24 21 23 27 25 26 26 28 27 25
46 47 47 48 48 48 48 48 48 48 49 46 39 33 40 42 33 30 28 26 26 28 28 24 28 29 31 33 34 28 28 28 34 26 37 34 25 24 23 21 23 24 21 23 26 32 27
46 47 47 47 48 48 48 48 48 48 49 45 39 34 36 31 34 31 29 24 23 23 27 30 28 30 30 30 30 33 30 30 32 34 32 30 25 23 20 19 18 18 19 20 21 23 25
48 48 47 47 48 48 48 47 48 48 49 43 35 32 32 30 35 32 30 26 21 20 21 24 28 27 29 28 30 31 32 31 28 30 31 30 27 26 22 21 19 17 16 17 16 16 16
45 45 45 46 46 47 48 47 47 48 48 41 42 35 34 32 32 31 30 27 22 21 23 23 24 27 29 30 37 36 35 34 33 34 32 31 32 27 26 21 22 27 21 19 19 19 21
45 46 46 46 46 47 47 48 47 48 48 44 43 35 35 29 32 29 28 27 24 22 23 23 26 28 28 37 37 37 35 34 32 31 34 32 31 31 33 34 29 25 25 22 22 21 22
44 44 45 45 46 46 46 47 48 48 48 44 40 39 35 35 27 28 28 27 27 24 24 22 27 31 35 36 34 30 34 34 33 30 31 34 35 36 34 31 25 21 25 26 24 22 23
46 45 44 44 45 45 46 46 46 47 48 45 41 42 39 35 30 27 27 28 26 24 25 26 28 35 39 33 34 26 28 29 32 29 34 33 37 38 34 29 28 26 24 29 26 27 26
45 46 46 45 44 45 45 46 46 46 48 45 44 46 40 33 30 29 28 29 28 27 26 26 33 41 39 38 37 31 26 26 27 35 35 36 37 38 35 33 28 24 25 32 28 30 27
45 44 45 45 45 44 45 45 45 45 47 45 44 45 40 35 33 33 32 30 30 29 29 30 34 39 39 37 34 31 35 31 25 28 35 35 35 38 37 37 32 32 30 29 35 35 33
44 44 44 45 44 45 45 45 45 45 46 46 43 44 44 41 36 41 35 41 34 31 30 33 35 35 34 34 36 35 41 42 30 28 28 35 36 36 34 34 38 35 33 35 35 37 35

GFSGBSN_sfc_dewp_072.txt.gz
Dewpoint
48 48 48 49 50 51 53 53 53 52 51 51 51 51 52 52 52 53 55 55 55 56 58 58 58 57 51 39 33 44 60 58 42 32 30 29 23 21 17 19 19 19 20 23 22 23 24
47 47 47 47 48 49 49 51 53 53 51 51 51 49 51 53 53 53 53 54 55 55 57 58 57 56 49 40 33 28 34 46 38 35 33 29 22 21 24 23 22 22 27 25 33 34 32
48 49 49 49 49 47 48 50 51 52 53 52 51 51 51 51 52 53 52 54 54 55 56 57 57 53 47 41 37 32 30 33 38 35 31 26 23 26 27 26 26 23 22 26 38 34 30
49 50 49 50 50 50 50 50 50 50 52 53 51 50 50 51 51 52 52 53 53 54 56 57 56 51 40 35 34 32 32 29 34 31 28 28 28 28 29 28 25 24 21 21 33 36 34
47 48 49 51 51 50 50 49 50 49 50 52 52 51 50 50 51 51 51 52 53 54 56 57 51 49 36 38 35 31 27 26 33 33 30 29 32 31 29 26 24 20 19 20 27 35 31
47 47 47 49 50 51 51 50 50 50 50 51 52 51 50 50 50 51 51 52 51 55 53 51 47 38 36 22 26 28 26 23 30 33 30 31 30 27 26 25 22 22 20 23 20 26 27
46 46 46 47 48 49 49 51 50 50 50 51 51 52 51 50 50 51 49 46 41 49 50 40 34 32 23 29 26 26 24 23 26 30 29 30 27 24 24 26 25 21 19 17 26 26 24
46 46 46 46 46 46 47 48 50 50 50 50 50 51 52 50 51 51 48 44 35 44 38 34 37 37 34 32 31 28 25 20 26 25 29 28 26 24 25 24 20 18 19 18 22 24 22
47 46 46 46 46 46 47 47 48 50 50 50 50 51 51 50 50 47 43 43 44 44 39 29 25 23 24 28 31 28 25 20 22 24 26 27 25 27 25 25 22 21 22 22 23 23 25
47 47 47 46 46 46 48 48 49 49 50 50 49 50 50 49 45 44 40 42 44 49 36 15 18 22 22 23 23 29 29 25 22 21 23 25 24 24 25 24 23 23 23 23 21 22 22
47 47 47 47 47 48 48 48 49 49 50 50 49 50 50 49 43 42 47 48 51 49 15 7 14 28 24 21 18 21 29 26 24 21 23 23 23 22 25 23 24 23 24 26 25 24 24
46 47 47 47 47 47 48 48 48 49 49 50 50 49 49 45 44 42 46 48 52 35 13 12 26 27 25 22 20 17 22 27 24 21 22 22 22 21 21 25 24 24 25 26 26 26 25
46 46 47 47 47 47 48 48 49 49 49 49 49 49 48 40 39 44 51 46 34 23 11 6 21 27 25 25 22 21 19 24 23 20 23 20 20 20 23 22 24 25 26 26 28 27 26
46 46 46 47 47 47 48 48 48 48 49 49 49 49 46 39 42 46 48 41 27 15 18 16 13 26 25 26 25 22 19 18 25 20 20 20 19 19 23 24 24 25 26 30 29 29 26
46 46 47 47 47 47 48 48 48 48 49 49 49 48 45 43 44 46 42 31 27 19 12 15 19 22 27 26 24 25 23 20 22 22 21 21 18 19 23 24 24 26 25 27 29 32 32
46 46 47 47 47 48 48 48 48 48 49 49 47 45 44 46 47 45 37 29 27 27 19 17 14 21 26 27 23 22 22 22 21 22 24 24 23 20 20 24 24 24 26 26 27 27 24
46 47 47 47 47 48 48 48 48 48 49 48 45 39 43 46 48 41 31 29 28 25 28 22 14 16 14 23 26 21 21 24 23 24 24 24 26 23 20 21 21 22 24 30 26 26 26
46 46 46 47 47 47 48 48 48 48 48 47 43 34 42 45 37 36 32 31 30 22 23 26 28 25 20 20 28 23 23 24 31 24 22 25 26 25 20 21 22 23 25 28 29 24 30
46 46 46 47 47 47 48 48 48 48 48 46 38 38 44 42 31 31 31 30 28 26 22 23 25 27 28 30 25 28 28 32 31 29 24 27 26 24 22 22 25 24 22 25 28 29 28
45 46 46 47 47 47 48 48 48 48 48 47 38 32 39 42 34 30 29 28 27 28 25 23 26 27 34 29 32 31 28 31 35 33 42 38 28 25 25 24 26 24 21 23 27 31 29
46 46 46 47 47 47 47 48 48 48 48 46 38 35 36 32 34 31 30 26 25 24 25 26 24 26 29 34 26 28 31 30 30 35 35 37 30 26 23 20 20 22 22 22 21 24 26
46 46 46 46 46 47 47 47 48 47 48 44 33 33 33 30 33 34 32 29 24 22 21 22 25 26 29 35 36 31 28 32 32 36 33 32 30 28 27 22 22 20 21 22 20 19 18
46 46 46 47 47 47 47 47 48 48 47 43 42 37 34 33 33 32 31 29 27 24 23 21 23 25 30 37 40 44 39 36 34 34 37 33 32 28 27 25 22 23 24 19 18 20 20
46 46 46 46 46 46 47 48 48 47 47 46 43 37 35 32 29 33 29 29 27 25 25 21 23 23 30 37 44 44 42 37 35 34 36 35 33 30 31 33 24 25 25 22 22 20 22
44 44 45 45 45 45 46 46 47 48 48 46 44 38 36 36 29 27 30 28 29 29 27 24 23 24 27 32 36 35 36 35 33 33 34 35 37 36 31 29 26 24 25 25 25 25 26
45 45 45 45 45 45 45 45 46 47 48 47 45 42 39 34 31 27 29 29 28 28 29 29 28 29 34 34 35 33 30 31 28 27 32 32 36 37 35 28 27 31 27 31 30 27 27
45 45 46 45 45 45 45 45 46 46 47 47 45 45 40 35 32 32 31 30 30 29 29 29 30 33 39 36 36 34 31 23 27 32 32 34 36 34 34 33 32 29 28 33 28 31 34
45 45 46 46 46 45 44 45 46 46 46 47 44 46 41 38 34 35 34 35 33 31 29 29 29 32 38 33 34 34 34 29 24 32 35 35 33 35 35 33 30 33 33 28 34 42 38
45 45 45 45 45 46 44 45 46 46 46 46 42 45 45 41 40 43 40 39 38 35 31 34 29 33 38 35 36 35 38 39 29 27 34 32 39 37 34 36 42 42 39 41 41 41 43

GFSGBSN_sfc_dewp_075.txt.gz
Dewpoint
47 47 48 48 48 49 50 51 52 54 53 52 52 51 51 51 52 53 53 52 53 54 55 56 58 58 53 46 41 45 60 58 43 32 31 29 29 28 21 19 19 23 23 23 32 31 31
50 50 50 49 48 48 48 49 51 52 53 53 52 52 50 50 51 52 52 52 52 53 54 55 57 57 52 45 41 39 48 49 40 35 31 31 31 28 22 25 24 23 24 26 33 31 33
49 51 51 51 51 49 49 50 49 51 51 52 53 52 51 50 51 51 52 52 52 52 54 54 56 55 50 45 41 38 36 36 43 39 35 34 33 27 26 28 29 27 25 25 34 33 31
48 48 49 51 52 51 51 51 51 49 50 51 52 52 51 51 50 50 51 51 51 51 53 54 56 53 45 42 42 43 39 37 32 39 36 34 31 27 32 30 28 25 24 22 23 34 33
48 48 48 49 50 51 52 51 51 50 50 51 51 51 52 51 50 49 49 51 51 51 53 54 53 51 43 43 38 36 35 31 31 31 34 30 30 33 31 29 27 26 22 20 21 33 34
47 46 47 48 49 50 50 50 52 51 51 51 51 52 52 52 51 50 50 50 49 51 51 52 51 44 43 33 30 32 34 31 28 34 34 32 30 29 28 27 24 24 23 23 23 32 34
47 46 46 47 48 47 47 49 49 50 51 51 51 51 51 51 51 51 49 44 42 47 48 46 43 36 29 34 34 27 30 28 25 28 31 31 28 27 26 26 26 26 24 19 21 26 27
46 46 46 46 46 46 46 47 48 49 50 51 51 51 51 51 51 51 47 42 42 43 40 44 46 44 40 40 35 31 28 25 24 21 30 30 27 29 28 26 25 25 19 20 20 28 27
47 46 46 46 46 46 46 46 48 49 49 50 51 50 51 51 51 47 42 41 42 40 40 37 37 31 32 32 34 32 30 26 21 21 25 28 29 29 27 25 24 22 21 22 24 24 26
47 47 46 45 46 45 46 46 47 49 49 49 51 50 49 50 46 43 42 47 46 48 38 29 26 27 27 22 27 29 30 26 22 19 23 25 28 28 27 25 25 22 25 25 26 23 22
46 47 47 46 46 47 47 48 48 49 49 49 49 50 49 50 46 41 42 43 44 49 16 14 16 24 22 21 23 24 27 29 20 19 23 22 27 27 25 26 26 24 29 30 29 26 25
46 46 45 46 47 47 47 47 48 49 49 49 49 50 50 45 46 44 43 47 48 36 24 18 27 27 25 21 21 22 23 27 30 22 22 22 24 24 24 25 26 27 27 27 29 26 25
45 45 46 46 46 47 47 47 48 48 49 49 49 50 49 44 38 43 48 45 34 28 13 5 24 28 27 22 20 20 21 22 24 23 23 23 22 22 23 22 26 25 26 26 27 25 25
45 46 46 46 46 47 47 48 48 48 48 49 49 49 48 45 43 40 45 40 27 20 21 21 20 23 26 25 22 21 19 20 26 25 22 21 20 21 22 22 24 24 26 30 26 27 29
45 45 45 46 46 47 47 47 48 48 48 49 49 47 46 45 44 42 41 30 25 24 20 17 16 14 24 25 27 23 22 22 22 25 21 20 20 22 20 24 25 28 26 29 33 33 31
46 45 45 46 46 47 47 47 48 48 48 49 46 44 43 45 45 43 36 27 26 27 22 22 21 22 18 25 27 27 26 26 23 23 26 27 25 22 21 25 26 24 29 26 29 27 26
45 45 45 46 46 46 47 48 48 48 49 49 45 39 42 45 46 38 29 27 28 28 25 23 20 22 25 26 27 29 25 26 25 22 25 23 25 25 24 22 23 25 24 27 30 31 24
44 45 45 45 46 46 47 48 48 49 49 47 43 33 45 45 36 34 28 27 31 28 27 26 25 24 27 27 26 30 31 27 27 29 22 25 30 26 24 24 24 23 25 28 31 27 29
44 44 45 45 46 46 47 47 48 49 49 45 37 38 44 42 30 30 29 29 29 29 29 26 24 24 26 24 28 36 36 35 30 29 28 30 30 27 24 24 24 22 25 26 30 31 28
44 44 45 45 46 47 47 47 48 49 49 46 36 31 38 41 36 31 30 29 29 31 29 28 26 26 25 26 32 36 37 38 35 32 40 36 33 29 24 24 27 25 24 24 27 27 27
45 45 45 46 46 47 47 47 48 48 49 46 37 33 35 32 34 34 30 29 28 28 28 28 26 26 25 24 31 33 38 39 37 38 35 34 29 29 27 24 25 26 25 24 22 26 29
45 45 45 45 46 46 46 47 47 48 49 43 33 35 35 31 32 35 33 32 28 27 26 25 26 25 25 24 31 31 36 40 39 33 31 33 29 30 28 28 23 23 24 24 23 24 23
45 45 45 46 46 46 46 47 47 47 48 42 41 38 35 33 33 31 30 29 30 30 28 26 26 25 24 26 37 41 45 43 42 39 34 31 32 30 26 29 27 24 25 24 24 25 24
46 46 46 46 46 47 47 47 47 47 47 45 43 39 33 32 29 33 30 30 29 30 30 27 26 24 25 26 45 44 41 43 42 38 37 35 35 33 30 30 23 27 26 25 25 24 23
45 45 45 46 46 46 46 46 47 47 47 46 45 39 35 30 33 29 32 31 31 31 31 29 28 27 27 32 36 34 35 36 36 38 36 36 36 33 29 28 29 28 26 27 25 25 25
44 45 45 45 45 45 45 45 46 47 47 47 45 43 37 32 30 31 31 31 29 29 29 30 31 32 32 25 32 27 27 33 32 33 35 35 37 34 33 27 24 30 31 29 31 25 29
45 45 45 45 45 45 45 45 45 46 47 47 45 46 39 33 32 31 29 29 31 30 28 29 31 32 32 29 26 27 27 33 30 29 29 31 34 32 29 31 33 33 30 33 25 27 30
45 45 46 46 45 45 45 45 45 45 46 47 45 46 42 38 37 34 35 33 33 32 29 31 31 32 31 28 29 30 27 30 29 31 33 32 31 31 33 31 31 35 33 29 33 36 34
45 45 45 46 45 45 45 45 45 45 45 46 42 47 45 42 39 43 41 36 37 36 36 34 30 29 34 33 33 33 29 29 27 25 35 32 37 35 36 33 39 40 35 40 38 38 38

GFSGBSN_sfc_dewp_078.txt.gz
Dewpoint
49 49 49 48 48 48 48 49 51 52 53 53 53 53 53 52 51 51 51 52 52 53 52 52 54 55 54 47 44 43 60 57 45 33 27 28 29 30 27 23 21 20 22 24 26 30 29
51 51 51 50 49 49 49 48 48 51 52 52 52 53 53 52 52 51 51 51 51 52 52 52 53 54 51 42 38 41 49 48 40 32 30 31 29 31 29 25 26 27 26 26 29 30 31
48 49 50 50 51 51 50 51 50 51 51 51 51 52 52 52 52 51 51 50 50 51 52 51 52 52 47 43 42 38 36 37 44 38 34 33 32 33 29 26 30 28 25 25 25 30 31
48 49 49 50 51 51 51 52 52 51 51 51 51 51 52 52 52 51 51 50 50 50 51 52 52 51 44 45 45 44 45 42 39 38 38 38 36 33 29 29 29 27 25 22 23 29 33
48 48 48 49 50 50 50 51 51 51 51 52 51 51 52 52 51 51 51 50 50 50 51 52 50 50 43 47 43 42 38 34 35 35 36 37 36 30 30 29 27 27 23 24 24 25 32
47 47 47 47 49 49 49 50 49 50 51 52 51 51 51 51 51 50 50 50 49 50 49 50 51 44 43 29 33 32 36 35 32 33 31 34 29 28 28 27 23 24 24 24 24 26 32
47 47 47 47 46 47 47 47 48 49 50 50 51 51 51 51 51 50 49 42 41 43 44 45 45 40 32 33 38 34 33 33 30 30 29 32 27 26 27 27 27 26 25 25 25 24 32
47 47 47 47 45 46 46 46 48 49 49 50 50 51 51 51 50 50 47 41 40 42 40 39 40 44 45 43 40 38 33 27 27 23 31 30 28 28 29 28 27 26 25 24 23 24 27
46 47 47 46 46 45 45 45 47 48 48 49 50 51 50 50 50 45 42 40 42 45 40 37 38 37 40 39 41 39 34 27 24 22 24 27 30 30 29 28 27 26 25 24 20 24 25
46 47 46 45 45 44 45 45 46 47 47 48 49 50 50 49 43 44 41 42 41 44 35 29 33 31 33 31 32 32 29 28 24 20 21 23 26 29 29 27 27 24 26 26 26 26 22
46 46 46 45 45 46 47 46 46 46 47 49 49 50 50 49 42 41 41 42 44 47 -1 12 24 30 29 20 22 27 29 31 24 21 22 23 26 27 26 27 28 26 28 27 28 26 25
45 45 44 44 45 46 46 46 47 47 48 49 49 50 50 46 44 43 43 43 49 34 18 21 23 24 24 22 22 24 27 29 30 24 22 20 23 26 26 27 28 27 27 28 29 27 23
44 44 44 45 45 46 45 46 47 47 48 49 49 50 48 45 38 41 41 44 35 26 23 10 25 22 26 22 21 22 22 23 25 24 22 18 18 22 25 24 26 26 25 24 23 24 23
44 45 45 44 45 46 46 46 47 47 48 48 49 49 47 46 44 42 43 38 27 23 24 23 20 16 16 20 22 22 21 19 21 26 24 21 22 22 24 23 23 25 25 26 22 24 28
43 44 44 45 45 46 46 46 47 47 47 48 49 44 43 45 46 42 39 28 23 22 20 20 21 17 19 26 29 27 23 20 20 22 24 24 22 23 22 23 23 25 26 29 30 32 28
42 44 45 45 45 45 46 46 46 47 48 48 45 44 40 45 45 41 35 26 25 26 24 25 21 22 21 22 26 29 31 26 22 24 27 27 22 22 23 23 25 26 29 27 31 27 25
44 44 45 45 45 45 45 46 46 47 48 48 44 39 42 45 46 38 26 26 26 26 26 25 23 21 20 21 24 29 30 30 31 24 27 26 26 25 23 21 21 26 26 28 29 31 26
44 44 44 44 44 45 45 45 46 47 47 47 42 34 44 45 35 35 27 24 29 25 28 27 26 24 22 22 24 24 25 28 38 38 25 26 27 24 23 25 25 23 24 26 28 26 29
43 44 44 44 44 44 45 45 46 47 47 45 38 37 45 42 29 31 33 28 27 27 26 27 28 26 28 24 23 31 33 38 37 40 33 27 26 24 21 22 26 25 24 25 30 33 28
43 43 44 44 44 45 45 45 46 47 47 46 34 31 38 40 36 30 30 31 27 28 26 27 28 28 28 26 27 29 34 36 41 41 43 38 31 22 20 23 27 27 24 24 26 27 25
44 44 44 44 45 45 45 46 46 47 47 46 34 33 36 31 33 32 29 30 28 27 30 30 29 28 27 26 27 25 32 37 38 41 40 36 30 30 25 29 29 28 26 24 24 27 24
45 45 45 45 46 46 46 46 46 47 48 42 32 35 37 31 32 33 30 30 28 29 27 26 27 27 27 26 26 24 30 36 37 40 40 37 29 32 31 32 31 29 27 27 25 25 25
44 45 45 45 45 45 46 46 46 47 47 41 41 38 36 32 33 32 30 28 31 29 29 29 27 27 27 27 28 30 37 39 40 39 39 38 33 30 28 30 29 29 30 28 27 26 26
45 45 46 46 46 46 46 46 46 47 47 44 42 38 34 31 29 30 29 32 31 30 30 30 31 29 28 30 33 38 40 40 40 38 40 37 36 31 28 29 27 31 31 28 27 25 26
45 46 46 46 46 46 46 46 46 47 47 45 45 38 34 30 34 31 30 29 31 32 31 29 31 32 32 29 30 29 31 34 36 36 35 40 37 30 28 27 31 31 29 26 26 24 27
44 44 44 44 45 45 46 46 46 47 47 46 44 45 37 33 31 33 33 31 29 29 30 31 32 33 32 29 30 25 22 28 28 35 39 39 38 33 30 25 23 29 31 31 31 26 29
44 44 44 44 45 45 45 45 45 46 47 46 44 46 41 35 34 33 34 33 32 31 29 30 31 31 32 29 25 23 24 28 27 28 32 33 34 31 29 30 32 36 34 32 27 27 31
44 44 44 45 45 45 45 45 45 45 46 45 44 47 42 38 37 33 36 34 33 32 29 31 30 32 31 26 27 25 24 27 30 30 31 33 32 32 33 30 28 38 37 29 32 35 35
44 45 45 45 45 45 45 45 45 45 45 45 41 47 46 40 39 39 35 36 35 33 34 33 32 30 33 30 29 29 26 28 29 25 29 29 37 34 33 33 39 39 42 42 40 38 38

GFSGBSN_sfc_dewp_084.txt.gz
Dewpoint
50 50 50 51 52 51 50 50 50 51 50 50 50 50 50 50 50 50 52 52 52 51 51 50 50 51 50 41 38 41 58 54 45 30 24 25 28 28 25 25 23 20 21 22 24 26 26
49 49 49 49 49 49 49 51 51 52 52 51 51 51 50 50 50 50 51 51 51 51 50 50 50 51 47 27 30 39 41 48 38 29 26 25 23 27 27 27 24 25 24 26 27 25 27
49 49 49 49 49 49 49 49 49 49 50 51 52 52 51 50 50 50 50 51 50 50 50 49 49 48 45 27 36 39 42 37 37 37 29 30 31 30 31 29 29 27 26 25 24 25 26
49 47 47 49 50 49 49 48 48 48 48 48 48 50 52 52 51 51 51 50 49 50 50 49 49 47 41 42 45 45 44 42 41 37 36 37 35 31 30 31 29 27 25 22 20 25 27
49 49 47 49 49 48 49 48 48 48 48 48 48 50 51 51 51 51 50 49 49 50 50 49 47 45 36 44 42 40 43 39 38 37 38 37 35 33 32 29 26 26 21 21 23 27 28
46 48 49 49 49 49 48 48 48 48 48 48 48 49 50 50 50 51 50 49 48 49 48 48 47 37 27 17 36 37 43 39 33 34 33 36 35 31 30 27 21 23 24 24 25 25 27
47 47 44 47 48 48 47 47 48 48 48 47 47 47 49 50 50 51 47 42 39 37 40 40 38 39 39 43 43 39 37 35 33 31 27 30 27 27 28 28 25 25 25 24 25 25 25
46 46 47 44 46 47 47 47 48 48 48 47 47 47 49 49 49 50 43 39 39 39 37 39 40 40 40 41 38 33 40 32 30 26 28 30 27 27 29 29 27 27 26 25 25 25 25
43 45 45 47 47 45 47 47 47 48 47 47 47 46 48 49 49 43 40 41 41 39 39 37 39 39 37 39 34 30 34 31 28 26 27 24 27 29 28 28 27 27 26 25 22 26 26
44 45 45 45 47 46 46 46 45 46 46 47 48 48 49 49 40 42 36 40 41 41 33 28 34 34 34 37 33 32 32 28 27 25 25 25 25 27 29 27 27 24 28 27 27 25 23
43 44 44 45 45 46 47 46 46 45 45 46 47 47 49 49 43 40 36 42 41 45 5 13 29 33 33 29 21 31 34 31 23 24 23 23 23 24 25 28 27 25 29 29 28 26 27
43 43 44 45 45 46 46 46 45 44 44 45 46 48 49 44 42 43 43 43 44 31 15 17 27 29 29 28 26 27 29 29 28 25 24 22 25 24 23 27 29 31 29 29 29 27 24
42 42 44 44 45 45 45 44 44 44 45 46 47 48 47 45 38 43 43 40 32 22 22 21 22 21 21 26 26 27 26 24 22 21 20 22 21 22 27 24 29 29 25 23 22 23 23
42 43 43 43 44 44 44 44 45 45 45 46 47 47 45 45 44 43 40 33 24 22 27 25 22 22 21 21 28 30 24 22 22 25 18 12 12 20 22 24 25 27 26 25 20 22 22
42 42 42 43 44 43 44 44 44 45 45 46 46 42 43 43 45 42 35 22 21 22 24 22 19 20 22 20 24 27 31 29 29 25 25 23 20 23 21 21 22 24 26 27 25 29 27
38 41 42 42 43 43 43 44 44 43 45 45 40 40 38 43 45 41 32 20 18 26 25 24 18 21 16 16 14 16 27 31 32 36 37 26 25 25 24 22 23 23 28 25 28 22 23
41 41 42 42 43 43 43 43 44 44 45 45 41 36 39 45 43 37 24 22 24 23 21 22 24 20 22 20 18 20 22 29 35 35 37 37 25 22 22 23 20 24 23 27 28 27 22
42 42 42 42 42 42 43 42 43 44 45 42 39 31 41 44 33 33 26 25 28 23 27 24 27 25 24 24 22 19 24 26 33 38 35 38 36 27 23 20 22 23 22 23 22 24 27
41 41 41 41 42 42 42 43 43 44 44 39 35 35 43 40 27 26 28 26 27 24 25 26 27 27 27 23 19 22 23 29 37 38 37 34 35 30 24 24 26 24 24 25 30 29 25
40 40 40 41 41 41 42 43 43 43 44 41 35 29 36 39 33 25 24 26 26 30 25 24 27 27 27 26 28 26 26 28 30 25 43 38 33 33 29 31 31 28 23 23 27 26 24
40 40 42 42 42 42 43 43 44 44 44 41 36 31 34 25 31 30 25 25 24 26 28 26 24 24 24 22 21 20 23 23 24 30 39 38 31 32 33 36 36 34 29 25 24 25 24
41 42 42 43 43 43 43 44 44 43 44 39 33 32 34 35 30 32 30 27 24 26 28 27 26 28 26 23 23 22 25 27 25 37 36 38 31 33 30 29 32 31 29 27 28 29 28
42 43 43 43 43 43 44 43 43 43 43 37 37 39 36 31 29 31 28 28 27 27 29 28 29 27 27 29 29 29 29 29 29 27 34 35 34 31 25 29 31 28 26 28 29 30 29
43 43 43 43 43 44 44 44 44 43 43 40 40 38 34 28 30 28 28 29 27 29 26 29 31 29 31 31 33 34 32 31 30 30 31 32 34 31 29 31 27 31 30 28 28 29 31
44 44 44 44 44 44 44 44 45 45 44 42 41 40 35 29 30 31 29 29 31 30 29 30 31 32 33 35 34 31 26 30 30 29 29 34 33 31 28 28 33 30 32 31 31 27 30
44 44 44 45 45 46 46 45 45 45 45 44 43 43 40 31 27 30 29 30 30 32 32 33 34 34 36 35 31 26 21 24 23 29 32 35 34 31 31 27 24 30 32 37 34 29 33
44 44 44 42 43 44 44 45 46 45 45 44 43 44 40 34 33 30 29 29 30 32 31 32 33 34 34 32 27 25 24 27 23 21 30 31 32 29 30 29 31 36 40 40 28 29 36
44 44 43 43 44 44 44 44 44 45 46 45 42 44 40 36 36 34 33 31 31 32 31 33 34 33 32 29 28 28 25 26 24 24 27 27 29 29 32 29 26 38 39 37 38 41 40
44 44 44 44 44 44 44 45 45 45 45 47 40 45 44 39 38 39 36 34 33 32 34 37 33 32 33 29 27 27 24 24 25 22 25 25 30 28 32 32 37 38 38 37 41 44 40

GFSGBSN_sfc_dewp_087.txt.gz
Dewpoint
49 49 49 49 49 49 49 50 51 51 51 52 51 51 51 50 50 50 51 51 51 49 49 49 50 50 49 32 27 37 52 54 46 34 27 27 28 29 27 26 24 22 22 22 22 22 26
49 48 49 49 49 48 48 48 49 49 50 50 51 51 51 51 50 50 51 51 51 50 49 49 49 49 48 16 18 40 40 44 36 28 25 25 25 29 27 27 25 26 23 23 27 27 26
50 49 49 49 48 48 48 49 48 48 48 49 49 50 50 49 49 50 51 51 51 50 50 49 49 46 43 29 31 37 41 36 37 35 28 27 28 28 29 28 29 28 27 27 26 24 24
48 49 49 49 49 49 49 48 48 48 48 48 48 49 50 51 51 51 51 51 51 51 51 51 49 45 36 40 43 44 43 40 41 38 35 37 34 30 29 30 29 27 26 22 20 25 28
47 47 47 48 50 50 49 49 48 47 47 47 47 49 50 50 50 50 50 50 50 50 50 50 45 43 31 38 38 39 42 35 38 37 35 36 35 34 31 27 23 26 19 21 20 27 29
47 48 48 47 47 49 49 49 49 47 47 47 47 48 49 50 49 49 49 49 48 49 48 48 46 37 27 16 39 41 43 41 33 35 35 34 35 33 32 26 16 17 24 25 23 25 26
44 45 46 47 47 47 47 48 49 47 47 47 47 47 48 49 49 49 47 42 38 36 39 38 35 36 35 40 42 40 38 36 32 30 27 34 29 30 30 30 24 23 24 23 25 26 24
43 44 44 45 45 47 45 46 48 48 47 46 46 46 48 49 49 49 43 40 37 37 35 38 38 37 37 37 35 34 38 33 31 24 29 29 28 30 30 30 29 26 25 24 25 26 26
42 44 44 44 44 45 47 45 47 48 47 47 46 46 47 48 49 43 41 40 40 40 38 35 38 37 36 37 31 32 29 32 29 27 26 25 27 29 29 29 28 27 26 25 23 26 26
43 43 45 45 45 45 45 46 45 46 47 47 47 47 47 49 41 43 36 41 42 42 32 27 34 35 36 37 33 34 30 22 29 27 27 24 24 28 27 27 28 25 28 26 25 24 16
44 43 43 42 42 44 45 47 45 44 45 44 46 47 47 48 44 39 39 43 43 43 8 14 29 33 33 32 26 29 31 29 17 26 27 25 25 25 25 28 28 25 29 28 27 25 25
43 42 44 43 43 44 45 45 45 45 44 43 46 46 47 44 43 43 43 44 45 32 12 17 27 28 29 29 27 27 31 30 29 20 24 24 24 25 25 26 29 30 27 28 30 28 25
43 41 43 41 41 42 43 44 45 45 45 45 46 46 45 46 39 43 44 41 32 22 21 21 21 21 21 22 28 29 27 26 22 19 18 22 22 23 27 24 29 28 28 23 24 25 22
41 41 41 40 41 42 43 44 45 45 46 45 46 46 44 45 45 45 41 34 22 17 25 24 21 21 22 17 23 30 24 22 28 24 20 13 9 21 24 24 25 28 28 24 15 22 22
42 41 43 42 42 42 43 44 44 45 45 44 44 42 43 43 45 44 36 24 16 22 23 22 19 20 22 16 18 20 30 29 32 34 24 24 14 22 22 23 25 27 26 27 25 30 27
39 39 40 42 41 41 42 42 43 43 43 44 41 39 38 44 45 42 31 16 16 24 22 23 15 19 15 16 13 13 24 31 31 33 37 33 24 25 24 22 23 25 29 25 26 18 17
39 40 40 41 42 43 42 42 43 43 44 44 40 34 39 45 44 36 23 21 22 22 25 17 23 18 21 19 20 18 25 27 30 30 38 35 30 26 25 21 20 22 22 27 27 27 19
38 39 40 42 42 43 42 43 41 42 44 41 37 30 41 44 31 32 25 23 26 23 24 25 26 23 19 20 19 13 17 22 25 37 32 36 36 32 28 29 27 22 22 23 22 19 29
40 39 40 42 41 42 41 40 42 43 43 39 34 33 42 41 25 24 25 24 25 23 22 25 26 27 27 20 9 20 22 25 30 30 24 27 30 21 24 25 29 29 29 26 27 28 23
40 40 41 41 41 41 41 41 43 42 43 41 34 28 34 38 34 27 24 26 25 29 25 23 25 27 27 26 26 25 25 26 29 24 33 38 31 20 17 29 32 28 30 32 34 27 24
39 40 40 41 41 40 41 41 42 43 42 41 34 31 31 27 30 30 26 24 23 22 28 27 24 24 25 23 22 21 22 22 25 32 30 36 30 31 30 29 30 31 29 31 32 33 25
38 39 40 40 40 40 41 42 42 43 43 38 30 29 34 32 29 30 31 25 23 23 27 27 24 25 24 22 22 19 23 26 24 31 35 37 31 32 29 32 31 27 27 28 32 32 31
38 39 41 42 42 41 42 43 43 43 43 37 37 38 34 28 27 29 27 26 27 25 27 27 27 26 26 28 28 29 29 29 29 29 28 28 31 29 24 28 28 25 27 30 31 31 29
41 42 42 42 43 43 43 43 43 43 43 38 37 36 31 26 25 25 25 30 30 28 25 29 30 29 32 34 35 34 32 31 31 30 31 30 31 30 25 28 19 20 30 32 33 31 30
42 43 43 43 43 43 43 43 43 43 43 40 40 35 32 25 27 27 28 26 29 30 29 28 30 33 37 34 34 30 29 29 29 31 30 31 29 25 24 22 24 21 32 32 36 35 35
42 42 42 43 43 43 44 44 43 44 44 42 40 39 36 29 23 26 28 32 30 29 29 30 34 38 38 36 33 25 22 23 22 28 30 29 31 28 27 24 21 27 38 40 37 33 40
43 43 44 44 44 45 45 45 45 45 45 43 41 41 37 30 35 30 28 28 32 31 30 33 34 36 38 32 28 25 21 26 23 21 29 29 29 26 24 23 24 36 39 42 30 31 39
44 44 44 44 43 44 43 43 44 45 45 44 41 43 37 32 32 35 33 30 31 33 32 36 35 35 33 30 29 27 26 26 23 23 30 27 29 28 27 25 24 37 38 33 39 40 40
44 43 44 44 43 43 42 41 43 44 45 45 40 44 44 37 36 38 37 35 33 35 35 37 34 35 34 33 30 30 28 28 26 21 25 25 31 30 31 31 39 37 38 42 42 41 40

GFSGBSN_sfc_dewp_090.txt.gz
Dewpoint
49 48 48 49 48 48 48 48 49 49 50 50 50 50 49 49 48 49 51 51 51 50 50 50 50 49 44 28 9 25 53 56 48 40 31 31 30 27 23 21 22 24 19 19 18 21 21
49 50 49 49 47 48 48 47 47 49 49 49 50 50 49 48 49 49 50 50 51 51 51 50 50 49 40 25 5 29 35 41 33 38 34 29 26 25 22 21 22 21 22 20 20 20 22
48 49 49 51 49 48 47 48 48 48 48 49 49 50 49 48 49 49 49 50 50 50 51 52 51 45 39 22 20 33 35 32 37 29 29 30 28 24 24 24 25 24 22 19 19 20 19
49 48 47 49 49 50 50 49 49 47 47 48 48 49 50 50 50 50 50 49 49 50 51 50 50 44 33 25 30 32 25 23 25 30 34 29 30 28 29 27 26 23 23 19 18 20 22
46 47 48 48 49 50 50 50 50 47 47 46 47 49 49 49 49 49 49 48 49 49 49 49 45 41 24 32 26 29 28 23 25 22 36 34 34 28 28 24 20 21 17 19 18 19 17
43 44 45 46 47 48 48 49 50 49 48 47 47 47 49 49 49 49 49 49 48 49 47 46 43 36 27 10 33 39 41 39 34 25 30 34 31 28 27 22 18 19 19 19 18 18 24
45 45 43 44 45 45 46 48 48 49 48 47 46 47 47 48 48 49 46 40 29 34 33 29 25 29 23 32 35 35 38 38 32 26 15 30 26 24 22 26 23 19 18 16 16 21 23
44 44 42 43 43 42 44 45 48 48 48 47 46 46 47 48 48 48 43 36 34 37 33 32 33 31 30 31 31 25 36 34 31 25 21 28 25 21 24 25 25 21 19 18 18 20 24
45 45 42 45 46 45 45 45 47 48 47 46 46 45 46 48 47 45 39 39 40 39 34 29 33 33 33 34 28 21 27 32 30 26 21 23 21 23 25 27 25 23 22 21 19 20 22
44 44 43 42 43 44 42 44 46 46 47 46 45 45 47 47 41 40 35 41 40 44 32 20 30 32 36 33 29 28 24 21 28 23 23 21 18 24 26 23 23 19 20 22 23 21 16
44 43 44 44 43 45 45 43 43 44 45 45 45 43 46 45 39 35 37 41 42 44 5 14 28 33 33 31 28 29 31 23 13 25 27 21 23 21 24 24 24 23 21 23 24 23 21
41 43 43 43 44 43 44 44 44 45 45 45 45 44 45 39 41 40 43 44 45 27 6 13 27 27 26 29 27 29 29 28 19 16 23 23 24 23 22 24 27 28 27 26 26 25 21
41 43 44 42 42 42 41 42 44 44 45 46 46 45 42 39 35 43 44 37 26 7 9 15 21 19 21 24 26 27 26 26 20 14 11 13 16 20 23 22 24 26 23 21 22 23 20
43 41 41 42 41 41 41 43 44 45 45 44 46 44 42 38 40 44 40 28 14 2 12 23 19 18 20 17 20 28 24 21 27 23 20 8 7 10 16 18 20 25 23 23 18 19 18
40 40 41 42 41 43 42 43 43 45 45 46 43 41 40 39 42 43 35 20 3 8 17 21 16 15 21 14 13 22 29 26 26 26 20 20 8 20 16 18 17 22 24 25 24 23 24
41 41 41 41 41 40 42 41 41 43 43 44 40 38 33 40 45 42 31 16 9 22 21 20 11 16 17 14 11 10 27 30 26 23 35 26 22 22 23 22 19 18 21 23 24 19 17
40 39 39 40 40 42 43 42 42 43 43 43 41 34 35 43 45 37 23 16 13 15 21 17 20 16 16 13 12 6 18 27 22 24 29 27 30 24 25 21 20 21 22 24 23 23 19
39 39 39 39 39 41 42 42 43 42 43 42 39 32 41 44 33 31 23 19 24 17 20 20 21 17 15 13 12 9 3 12 19 16 18 23 30 26 27 28 28 26 22 22 23 21 25
39 39 40 40 39 41 41 42 41 43 43 42 36 31 43 43 25 23 23 23 21 18 16 18 20 23 21 12 7 12 16 25 27 25 24 24 28 22 20 26 30 28 30 30 31 29 23
38 40 40 41 40 41 41 42 41 42 42 43 36 30 34 37 34 25 22 21 20 23 21 18 18 23 19 16 15 8 20 27 29 26 31 29 22 16 12 17 24 24 26 26 27 30 25
39 40 40 40 41 41 41 42 40 42 42 42 35 30 28 26 30 30 27 22 19 23 24 24 21 20 19 18 20 20 20 24 23 33 31 26 19 21 23 23 23 22 21 24 25 25 27
39 39 39 40 41 41 41 41 42 42 42 39 34 32 32 27 25 26 29 26 20 18 20 21 22 21 21 22 20 18 20 22 23 26 32 34 27 27 26 26 24 21 18 18 21 23 23
38 38 39 39 39 40 41 41 42 42 42 37 38 38 32 24 24 28 25 24 24 22 22 22 24 24 23 24 27 28 29 29 29 28 28 28 30 27 19 22 24 23 24 21 18 21 26
38 39 39 40 40 40 41 42 42 43 42 40 38 38 32 24 21 20 22 28 27 24 24 25 26 26 28 34 35 34 33 31 31 29 30 29 29 27 23 23 15 11 21 23 23 26 29
39 40 41 41 42 42 42 43 43 43 43 43 41 35 31 26 20 21 22 22 23 26 28 27 25 29 32 36 33 28 28 28 29 29 28 30 29 26 24 19 16 16 23 19 28 25 38
42 41 42 43 43 43 43 43 43 43 44 44 42 37 35 29 21 18 20 24 24 26 27 28 29 34 39 37 33 24 25 21 22 25 29 28 30 28 25 21 17 27 28 35 35 27 38
41 41 42 42 43 44 44 44 44 44 44 44 41 43 38 31 28 28 21 21 23 26 29 29 31 38 39 33 30 25 22 22 20 22 28 28 29 26 25 24 23 22 22 36 29 30 36
42 42 43 44 45 45 45 45 45 45 45 43 41 42 38 33 29 30 30 32 29 29 28 30 34 35 35 31 28 27 25 20 18 20 28 27 28 28 27 27 22 29 34 33 35 36 35
43 43 43 45 44 44 43 44 45 45 45 45 39 43 40 36 32 34 31 33 36 32 32 35 34 36 32 33 29 27 27 29 22 20 20 24 27 27 27 26 29 35 32 33 35 36 35

GFSGBSN_sfc_dewp_093.txt.gz
Dewpoint
49 49 50 49 49 48 48 48 48 49 49 49 49 49 49 48 48 49 50 51 50 49 49 50 51 51 44 24 24 27 52 54 44 40 34 28 27 24 21 20 19 19 18 20 17 17 16
46 49 50 50 50 48 47 47 47 48 49 49 49 49 48 48 48 49 50 50 50 50 49 49 52 51 43 23 14 11 20 23 27 36 34 29 29 29 26 22 20 21 20 21 21 19 18
49 50 48 49 49 50 49 49 48 49 49 49 49 49 48 48 48 48 49 50 50 50 49 51 52 47 37 24 11 19 27 22 24 25 31 31 31 25 25 24 23 22 21 21 21 20 18
46 47 48 48 49 50 50 50 49 48 49 48 47 49 50 49 49 49 49 49 49 50 51 51 51 44 32 19 23 20 22 18 24 29 28 30 30 30 27 26 25 23 22 19 20 20 18
44 44 45 46 48 49 49 50 50 48 49 49 48 49 49 50 49 49 48 48 48 50 50 50 47 41 28 31 19 17 21 12 12 13 17 19 28 28 28 25 23 22 18 20 20 19 17
44 44 44 44 44 46 47 48 49 50 50 50 47 48 49 48 48 48 48 47 46 48 49 44 41 36 32 9 24 29 36 35 25 22 13 23 23 20 20 20 19 20 19 20 20 19 19
44 45 44 46 44 43 44 45 48 48 49 49 48 48 48 48 48 48 43 37 31 36 39 27 24 26 21 18 27 20 29 38 37 28 15 21 18 19 18 21 21 22 20 20 20 18 17
45 45 47 45 43 45 46 44 47 48 48 48 47 45 45 46 47 46 43 34 33 35 28 26 23 23 23 20 21 23 29 31 32 27 20 11 17 16 21 22 22 22 22 22 21 19 20
43 43 44 45 43 43 44 46 45 47 48 48 46 45 45 46 46 43 35 36 39 37 28 20 22 25 27 28 24 20 18 30 26 25 21 17 13 20 17 21 23 24 24 23 20 21 21
44 45 44 43 42 44 43 43 43 43 46 47 46 44 44 46 39 38 33 39 39 41 28 12 26 28 31 30 27 25 20 20 22 22 20 19 17 17 21 19 21 24 24 21 20 20 19
43 44 43 43 43 44 45 45 44 44 44 45 47 44 44 42 35 32 35 38 39 43 4 12 21 31 31 29 27 24 26 17 16 18 21 18 18 17 18 20 21 23 23 21 22 21 22
43 43 43 43 44 44 44 43 43 45 44 46 47 44 43 37 39 36 38 42 41 29 5 9 22 25 27 30 26 27 28 27 20 15 16 21 19 20 17 18 21 23 24 24 24 24 21
43 44 45 44 43 45 42 43 43 44 45 46 46 45 42 35 32 41 41 37 22 9 1 1 15 21 17 23 25 25 27 25 19 14 12 16 20 21 22 17 23 24 25 23 27 27 22
42 41 43 42 41 41 43 43 43 44 45 45 45 44 42 35 35 38 37 27 15 2 7 18 19 19 18 20 24 27 25 22 24 16 13 7 9 16 19 20 20 22 24 22 20 24 25
41 42 41 41 42 42 43 43 42 43 45 44 44 40 39 39 40 38 32 21 10 6 3 11 16 16 18 18 18 27 25 22 25 24 20 15 6 12 7 11 16 19 23 24 22 25 25
41 41 41 41 41 43 41 42 41 42 43 44 39 39 35 39 41 36 29 20 9 7 19 17 16 12 11 17 16 17 27 27 23 24 30 26 23 20 9 15 15 14 15 20 21 21 21
40 40 40 41 40 40 40 41 41 43 43 43 42 36 34 39 41 36 26 18 12 10 15 17 12 13 15 16 15 13 21 27 25 23 28 25 28 23 24 21 15 15 15 17 19 20 19
40 39 40 40 40 40 40 41 41 42 43 41 39 32 41 39 32 28 25 18 21 10 14 20 21 20 18 15 13 10 7 15 18 17 16 25 28 25 22 23 27 27 18 17 21 19 21
39 39 39 40 40 40 40 41 41 42 42 43 36 31 42 42 27 23 23 19 17 14 13 13 16 18 18 18 11 9 10 20 26 21 22 24 23 22 19 21 26 26 24 23 24 26 23
40 40 40 40 40 41 41 41 41 41 42 43 38 32 33 39 31 26 22 18 17 18 17 14 13 14 18 17 15 10 9 19 30 26 34 30 21 21 15 18 21 25 25 26 26 26 24
39 40 40 40 41 41 41 41 41 40 42 40 37 31 28 29 31 28 26 25 16 17 21 18 16 15 14 11 9 10 11 13 21 32 28 27 19 17 16 15 16 18 19 20 21 24 25
38 39 40 40 41 41 41 41 42 42 42 40 34 31 29 27 25 25 26 24 24 17 14 22 19 15 17 13 15 14 16 19 18 20 25 31 24 21 17 19 18 16 12 12 12 15 19
38 38 39 39 40 39 39 41 42 42 41 38 39 33 35 28 24 26 25 20 20 23 21 20 23 19 20 19 20 23 25 27 25 25 28 28 27 25 19 15 18 21 20 17 14 12 14
39 39 39 39 40 40 40 41 42 43 41 40 40 34 33 27 24 21 20 27 24 21 25 22 20 24 26 30 31 32 30 28 28 26 28 30 28 28 24 23 16 14 11 15 16 21 18
39 39 39 39 40 41 41 41 42 42 41 43 39 39 34 28 22 20 19 24 27 27 27 28 28 26 31 33 30 26 27 28 28 27 26 28 30 28 25 21 17 16 19 28 21 19 35
39 38 40 40 42 42 43 43 43 43 43 42 40 40 38 32 23 19 20 21 24 23 25 25 25 29 35 36 32 24 24 21 22 23 26 26 29 30 26 21 19 25 22 23 29 26 33
39 39 40 41 42 43 43 43 43 43 43 44 38 43 39 34 27 24 20 18 18 21 26 28 28 32 37 35 29 25 22 25 24 24 26 27 32 29 27 23 23 22 22 25 26 32 34
41 41 41 42 42 43 43 43 44 44 44 44 42 44 39 32 28 27 26 24 21 20 25 28 34 34 36 32 27 25 26 24 19 20 26 28 29 28 27 26 23 24 30 28 33 33 33
41 41 42 42 43 43 44 45 45 45 45 44 39 43 44 37 30 32 30 28 30 30 31 35 35 35 33 31 28 28 30 29 22 19 27 28 25 27 26 26 29 31 32 32 31 32 33

GFSGBSN_sfc_dewp_096.txt.gz
Dewpoint
47 47 50 50 50 49 48 47 48 49 49 49 48 48 48 48 48 48 50 50 50 48 48 49 49 51 47 27 24 18 58 55 43 42 34 32 29 28 23 21 21 19 18 17 18 16 20
48 50 50 49 49 49 49 49 49 50 50 50 50 50 48 47 48 48 49 49 49 50 49 49 50 52 44 28 19 12 15 18 21 31 31 32 27 26 25 23 21 21 20 19 19 19 21
47 46 47 48 48 49 50 49 49 50 51 50 50 50 50 48 47 48 48 48 48 49 49 49 52 48 39 28 18 20 19 24 18 21 23 31 29 28 28 26 27 25 22 22 21 20 20
46 45 44 45 46 47 47 48 49 49 50 50 50 50 49 49 49 48 48 47 48 48 48 51 51 44 34 25 24 19 18 17 18 21 25 25 30 30 30 28 25 22 23 22 22 22 22
46 44 44 44 46 47 47 48 48 47 48 49 50 50 49 49 49 48 47 47 47 48 50 51 48 43 32 35 22 19 16 12 12 16 21 23 27 30 28 27 25 24 21 22 21 21 21
46 45 44 46 45 46 45 46 48 48 49 49 49 50 49 49 48 48 47 46 45 47 46 45 42 37 35 20 15 23 24 34 23 13 12 12 11 18 23 23 22 22 21 22 21 21 21
46 45 45 46 47 45 44 46 48 47 48 47 48 49 49 48 48 47 42 36 31 36 42 36 35 34 30 20 11 18 20 26 33 25 18 14 8 12 16 20 20 21 21 21 21 21 21
43 45 44 44 45 46 44 44 46 48 46 46 48 48 48 47 47 46 39 36 33 35 30 26 21 21 18 14 13 14 20 24 32 29 26 16 10 13 12 15 18 19 20 21 23 22 23
46 45 45 46 44 44 44 44 46 46 46 46 47 46 47 47 46 41 38 32 37 36 28 19 17 17 18 20 18 17 17 19 24 26 25 17 12 12 13 12 15 21 23 24 24 24 25
44 43 42 43 44 44 45 45 45 45 46 46 46 47 47 46 40 36 34 37 36 39 27 8 18 21 22 27 23 23 21 17 17 21 18 20 19 17 11 15 13 15 21 23 25 26 21
41 42 43 44 44 43 43 43 44 45 45 45 46 47 47 44 36 31 32 38 38 40 8 10 21 26 27 24 25 22 23 19 13 18 19 19 18 17 16 14 19 18 20 21 26 28 25
42 42 43 44 45 44 44 44 44 43 44 44 45 46 46 40 39 37 34 39 40 27 9 1 20 23 25 28 25 26 27 21 17 12 12 15 17 16 17 17 16 18 20 22 24 25 23
41 41 42 43 43 43 42 42 42 44 44 45 45 45 44 37 34 38 41 35 20 11 4 -4 10 18 21 21 24 20 25 25 20 16 14 12 15 16 19 19 19 17 21 21 23 25 27
41 41 41 42 42 43 43 42 43 43 43 43 45 45 43 37 37 42 36 28 16 9 9 3 14 16 16 14 20 22 22 21 23 19 14 10 9 6 18 20 19 16 20 23 19 25 24
41 40 41 41 42 42 42 42 42 42 43 43 43 41 41 41 43 43 33 23 13 12 9 11 12 8 11 15 19 22 25 22 20 23 19 21 16 6 14 20 19 18 21 23 23 25 31
40 40 41 41 41 41 41 41 41 42 43 42 40 41 38 42 45 40 31 24 15 13 11 14 13 14 11 11 17 17 21 23 26 23 27 30 25 11 11 14 18 18 20 21 23 20 19
39 39 40 41 41 40 41 41 40 42 41 42 41 37 35 43 42 35 25 21 17 16 15 13 14 11 11 17 26 16 15 30 26 24 23 25 26 26 11 8 9 10 12 14 16 20 19
39 40 40 40 40 40 40 40 40 41 40 39 39 34 40 43 34 27 25 21 24 15 11 11 15 17 18 19 16 16 13 26 20 20 15 25 25 25 24 20 24 25 16 16 17 17 21
39 39 40 40 40 40 41 41 40 41 38 42 35 31 43 43 29 25 24 20 18 15 12 10 11 13 14 14 16 15 13 23 24 22 26 26 22 21 19 19 24 24 25 20 19 21 21
40 40 41 41 41 40 41 41 41 41 39 42 37 31 32 39 32 26 29 23 16 16 15 15 11 12 12 14 16 16 9 16 26 24 36 32 18 18 20 18 19 22 23 25 26 26 23
40 40 40 40 40 41 41 41 41 42 41 40 37 30 29 32 31 27 24 27 23 17 16 14 11 12 11 15 13 13 12 10 15 30 24 26 16 14 13 13 13 13 18 20 22 25 24
40 39 40 40 39 39 41 41 41 42 40 39 34 29 24 23 25 28 26 21 20 24 17 18 18 16 11 11 12 11 8 14 15 16 22 26 23 22 18 14 11 13 13 14 14 15 15
39 39 39 39 39 39 39 40 41 42 42 38 38 33 33 28 32 28 25 23 18 18 22 25 20 23 20 17 20 16 23 26 26 25 26 26 25 24 20 19 15 18 16 11 10 9 11
39 38 38 39 40 40 40 41 42 42 41 40 37 32 32 26 23 25 23 22 24 23 23 24 22 25 28 32 31 28 26 25 24 24 26 29 27 27 24 23 17 19 12 12 15 15 15
38 39 38 39 40 40 41 41 41 42 41 41 38 39 33 27 21 19 19 22 26 26 25 26 28 28 35 31 30 23 23 23 24 23 22 24 26 28 22 20 17 16 16 19 28 26 34
38 39 39 39 39 40 41 41 41 41 41 42 40 43 38 32 24 21 23 24 22 23 24 23 28 30 35 32 31 22 21 20 20 22 24 24 29 30 27 21 18 24 22 22 25 26 33
38 38 38 38 40 41 42 43 43 42 42 43 35 42 39 33 27 26 25 23 20 22 26 28 28 30 33 32 26 25 21 28 27 22 24 26 29 27 27 26 24 25 23 26 22 32 34
38 38 39 40 41 42 42 42 43 43 43 43 39 41 40 32 29 28 27 24 23 23 23 26 31 32 35 30 26 24 25 25 24 29 24 25 28 28 28 25 23 24 23 27 32 32 30
40 40 41 41 42 42 42 43 43 44 44 44 39 42 43 37 30 33 30 30 27 24 29 33 33 33 32 28 27 28 28 33 24 20 28 29 26 26 25 25 30 30 34 35 31 28 29

GFSGBSN_sfc_dewp_099.txt.gz
Dewpoint
49 50 50 50 50 49 49 50 50 51 51 51 51 50 48 48 47 48 49 49 49 48 48 48 48 50 48 36 32 37 58 58 53 44 36 31 31 30 27 28 25 22 22 22 20 19 17
48 47 47 48 48 49 49 50 50 51 51 51 51 51 51 49 48 48 49 48 48 48 49 48 48 51 48 33 26 22 35 41 35 35 34 33 31 31 28 27 24 24 23 22 22 21 21
46 46 46 45 46 47 47 48 48 49 50 50 51 51 50 50 50 49 49 48 48 47 48 47 48 49 43 32 24 24 24 25 23 21 19 27 31 30 29 28 29 27 24 25 24 23 22
46 46 45 45 47 48 47 46 45 47 48 49 48 50 50 50 50 49 49 47 47 47 48 47 51 47 40 35 31 30 29 20 18 18 19 26 26 31 32 31 29 27 25 21 23 24 24
47 47 46 45 47 48 48 47 47 46 46 49 49 49 50 50 50 49 48 46 46 47 48 50 48 45 39 41 33 32 31 21 15 14 20 17 25 27 30 28 27 26 23 23 23 24 24
44 45 46 45 46 46 47 47 48 47 49 48 48 49 50 50 49 48 47 46 44 45 44 42 44 40 41 30 23 20 25 24 27 23 18 17 14 16 26 26 23 24 24 23 22 23 23
44 44 45 45 44 44 45 46 46 47 48 46 46 47 49 49 49 47 44 37 34 35 39 40 40 35 32 34 33 17 20 22 21 31 12 15 10 8 11 23 24 24 23 22 22 22 22
43 46 45 45 45 46 45 45 46 47 47 45 46 46 48 49 48 47 43 34 35 35 32 33 30 28 30 34 28 24 17 14 22 30 29 15 10 10 9 13 20 21 21 19 19 21 22
44 44 44 44 43 43 44 44 45 46 46 47 46 46 47 48 48 42 37 35 37 37 31 25 25 23 25 21 17 14 15 14 17 26 30 25 23 16 10 10 12 12 17 19 19 22 25
42 42 42 42 44 44 44 44 44 44 44 45 46 47 47 47 42 37 32 34 38 40 30 21 20 16 17 18 22 21 17 16 17 16 24 27 27 21 11 10 13 11 13 16 19 23 24
43 43 42 43 43 44 45 45 44 44 44 44 45 46 47 45 41 36 33 37 38 39 17 5 12 22 17 21 24 23 23 19 16 15 22 20 22 21 19 18 13 13 18 17 18 21 25
40 41 42 42 43 43 43 44 43 43 44 44 44 44 46 41 41 39 38 39 39 28 16 12 24 23 24 25 24 25 23 23 22 17 14 14 16 15 18 19 19 20 21 22 21 24 24
40 41 41 41 42 43 43 43 43 43 43 43 43 44 42 39 37 38 44 37 26 20 4 -4 4 23 24 27 27 25 27 20 18 17 15 13 11 12 15 17 19 19 17 22 24 22 21
39 40 40 41 42 42 43 43 43 43 43 44 43 44 42 41 41 40 41 32 20 13 7 6 13 14 22 20 22 25 22 24 24 22 16 13 14 11 13 16 20 21 19 25 20 24 25
40 40 41 41 41 42 42 42 42 43 43 43 42 39 39 39 42 42 36 22 17 15 13 13 11 14 14 19 16 23 23 23 23 23 22 21 18 27 15 11 19 22 20 21 23 27 29
37 39 40 40 40 41 41 42 41 41 41 43 38 37 37 38 44 41 33 22 21 19 17 18 14 16 13 16 23 28 23 31 27 27 27 30 27 27 29 11 16 20 23 20 23 18 19
39 39 39 40 40 40 41 41 41 41 42 42 37 34 35 41 43 36 25 22 19 19 17 15 14 13 17 21 24 25 25 31 33 26 21 27 27 28 31 15 15 21 19 21 22 24 21
39 39 40 40 40 40 40 41 41 41 42 39 36 27 40 44 33 32 26 22 25 21 22 19 16 14 14 17 21 20 28 29 32 31 22 28 26 28 27 32 33 19 17 17 18 16 23
39 39 39 40 40 41 41 40 42 42 41 39 33 30 40 38 27 25 26 23 22 20 20 19 16 15 17 14 15 21 28 29 28 30 27 27 24 22 29 29 31 27 26 26 19 21 19
39 39 40 41 40 40 41 41 41 41 42 39 35 28 31 35 36 31 28 30 28 26 19 17 18 18 16 16 17 21 20 25 29 28 36 33 22 16 18 23 26 18 19 31 29 21 19
38 40 41 41 40 40 40 41 41 41 42 39 35 27 31 28 31 31 29 26 24 29 24 22 17 15 13 13 16 17 18 17 22 31 27 27 23 22 20 17 15 14 12 19 28 29 28
38 40 41 40 39 39 39 40 41 42 42 38 31 28 29 28 27 29 30 29 24 20 22 25 24 19 17 13 13 13 15 17 26 28 26 26 26 26 23 24 19 16 12 13 14 15 15
39 40 40 39 39 39 39 40 41 41 40 36 36 34 32 26 26 24 25 26 30 28 25 22 26 26 25 25 33 32 29 25 28 27 29 29 27 26 23 22 24 20 19 15 14 13 14
38 40 39 39 39 39 40 41 42 42 41 38 35 35 30 23 23 22 22 23 24 28 27 27 28 29 28 36 35 33 30 27 27 25 27 30 28 28 26 25 18 22 22 19 18 21 24
37 39 39 39 39 39 40 42 41 42 42 38 37 36 32 23 24 22 22 22 25 29 27 26 26 31 39 35 30 25 24 23 24 24 23 26 29 28 25 23 24 19 21 27 29 32 33
35 37 39 39 40 39 41 41 41 42 41 39 38 39 37 30 23 22 24 28 26 28 26 28 29 38 39 35 31 22 19 21 19 23 22 23 29 28 26 21 18 29 31 26 26 31 35
36 37 39 39 39 39 40 40 42 41 41 40 36 39 37 32 29 28 25 26 27 27 28 31 30 31 35 25 24 24 22 24 25 23 23 22 26 24 25 26 27 28 32 30 24 30 35
36 38 39 39 39 40 40 40 41 41 42 41 37 39 37 32 30 30 29 27 27 27 26 29 28 31 33 29 26 24 23 26 30 34 28 23 25 24 27 23 21 29 28 30 34 34 31
36 37 38 38 40 40 41 42 41 41 41 42 37 40 40 35 33 35 35 34 32 30 30 32 32 33 34 31 27 29 26 30 28 27 34 27 28 29 27 26 31 34 37 39 35 33 33

GFSGBSN_sfc_dewp_102.txt.gz
Dewpoint
49 47 47 48 48 49 49 49 50 50 51 51 51 50 49 48 48 48 49 49 49 48 47 47 47 48 48 37 30 32 56 58 55 46 38 35 27 24 24 27 28 26 26 25 23 23 22
46 47 46 45 45 46 47 47 47 49 50 50 50 51 50 48 48 48 50 49 49 48 48 46 47 48 47 32 21 26 25 31 45 42 37 36 30 31 31 29 27 28 27 25 23 22 22
46 46 46 45 45 46 46 46 45 45 47 48 49 49 50 49 49 49 50 49 48 47 47 46 47 46 43 33 21 23 29 28 25 27 21 25 33 31 31 29 29 28 25 26 26 25 23
46 47 46 46 46 47 47 47 46 46 47 47 47 48 49 50 51 50 49 48 47 47 47 46 47 47 38 40 37 34 32 30 27 21 19 19 22 26 30 31 29 28 27 24 24 25 24
44 45 46 46 45 46 47 48 47 46 45 46 47 48 49 49 50 49 49 48 47 47 46 46 46 45 37 44 40 37 36 30 25 19 15 14 23 24 28 27 26 27 24 25 25 26 24
43 44 44 45 46 45 45 46 47 47 46 46 46 46 47 48 49 49 48 47 46 46 44 42 44 41 40 31 31 30 31 31 26 29 17 17 17 14 26 26 22 24 25 24 24 24 24
44 43 46 45 45 45 46 46 47 47 46 46 46 46 47 47 48 48 45 39 35 34 35 36 38 39 35 35 39 30 25 20 22 24 25 17 13 11 11 25 25 26 25 24 25 24 21
43 44 44 44 44 44 44 44 45 46 45 45 46 45 46 47 47 48 41 34 35 35 32 33 33 33 33 35 32 31 27 19 19 18 28 20 12 12 10 11 17 24 24 23 23 22 21
43 43 42 43 43 43 44 45 45 45 45 44 45 45 46 47 47 41 36 32 36 38 32 29 26 25 26 27 24 21 20 15 12 17 25 28 23 14 11 10 9 13 19 21 21 20 19
44 44 43 43 43 43 44 44 45 45 44 44 44 45 46 47 39 39 33 35 38 39 28 23 26 22 21 22 21 18 14 13 15 8 18 29 31 29 18 10 10 7 10 13 14 16 15
41 41 42 42 42 42 44 43 43 44 44 44 44 44 45 45 39 37 35 39 39 39 13 12 17 20 19 18 22 24 15 13 10 17 18 19 28 29 27 22 13 10 14 16 15 15 19
39 39 41 42 41 42 43 42 43 44 44 44 44 44 44 41 39 40 40 40 39 25 11 15 19 20 17 16 23 26 20 19 18 17 16 16 18 19 23 24 20 14 14 15 17 21 20
38 39 40 41 41 42 42 42 43 43 44 44 43 44 43 42 35 39 42 38 24 17 11 0 12 15 16 22 20 24 24 19 18 17 16 16 15 15 15 13 16 19 18 18 19 20 19
39 39 39 40 41 41 42 43 42 42 42 43 44 44 42 40 41 40 40 33 19 8 12 11 18 16 15 25 27 27 26 20 20 20 18 15 13 13 14 12 15 17 19 21 15 21 21
40 38 39 41 40 41 42 42 42 42 42 42 43 39 38 39 41 41 35 22 22 16 20 18 17 13 20 28 30 28 31 25 22 20 20 22 15 26 14 13 14 15 20 23 22 28 24
39 38 38 39 40 40 41 41 41 41 42 42 39 37 35 38 41 38 31 22 21 21 19 17 17 15 15 19 20 27 30 34 32 32 32 27 24 27 29 26 15 19 23 20 22 16 16
38 38 39 38 40 41 40 40 41 41 42 42 35 31 33 40 41 34 25 23 22 20 19 19 20 19 17 16 14 28 29 30 34 33 32 26 28 26 29 27 17 18 18 22 24 24 17
39 39 40 39 41 40 40 41 40 41 42 39 36 27 36 42 31 30 28 29 26 21 23 22 22 21 19 17 14 26 29 31 36 36 34 29 27 26 26 31 31 31 22 26 24 22 24
37 39 40 39 40 40 41 41 41 41 42 35 32 29 37 36 21 27 27 25 26 26 26 20 20 21 20 16 14 22 31 31 33 33 34 30 29 22 25 28 33 24 26 30 28 25 24
38 39 39 40 40 42 40 40 41 42 41 38 33 25 28 36 35 30 30 27 25 29 29 25 23 21 19 17 17 19 20 26 31 31 33 32 29 19 19 28 30 22 20 29 31 25 24
37 38 40 40 41 40 40 40 40 41 41 37 32 26 28 18 24 28 30 27 27 25 30 30 24 24 19 13 13 13 18 20 19 32 32 31 25 24 23 22 21 21 16 20 31 30 26
38 39 39 41 41 40 39 39 40 40 41 34 29 30 30 27 28 25 26 25 27 28 29 29 26 25 26 23 22 24 27 26 22 28 29 31 26 27 23 23 24 22 21 19 22 27 24
35 38 39 41 41 39 39 39 40 41 41 35 36 34 31 26 24 21 23 23 24 27 29 27 28 28 27 29 33 32 32 30 29 26 26 31 28 26 23 26 24 19 21 19 17 21 23
36 37 39 40 39 39 39 40 41 41 40 36 34 35 31 22 24 23 23 23 24 26 28 28 28 28 29 36 33 30 31 29 28 25 27 26 27 26 24 24 17 22 23 22 31 33 32
36 37 38 39 39 39 40 41 41 41 41 36 35 34 32 20 25 23 24 24 26 28 28 27 28 29 36 33 26 24 23 23 23 25 23 26 27 22 21 22 23 19 27 27 29 32 34
38 36 35 36 38 40 41 40 41 41 41 37 35 37 36 30 23 24 26 26 26 26 28 29 31 35 37 31 25 23 19 21 18 20 24 23 27 24 24 19 17 26 30 31 29 31 35
37 38 36 36 39 40 40 40 40 41 41 38 35 37 36 30 29 27 24 25 27 27 26 29 29 29 36 27 25 22 20 23 24 25 22 21 23 22 22 21 26 29 29 31 22 27 35
36 36 36 37 39 39 39 39 39 40 41 39 35 38 36 30 29 29 28 26 26 27 27 29 27 30 30 28 27 24 23 25 26 30 31 21 20 19 23 20 19 29 31 28 33 34 33
36 35 36 37 39 40 39 39 40 40 40 42 37 39 38 34 29 34 34 34 33 32 29 31 29 31 34 29 29 29 26 29 29 26 34 27 25 26 25 24 30 32 35 40 36 32 34

GFSGBSN_sfc_dewp_105.txt.gz
Dewpoint
47 47 46 46 45 46 47 47 47 46 47 48 48 48 48 48 48 48 50 50 50 48 47 46 46 47 47 36 24 25 51 53 53 42 32 33 25 21 20 23 28 28 27 27 27 26 24
46 46 45 45 45 45 46 46 45 46 47 47 48 47 47 47 47 48 50 50 50 49 49 47 46 46 45 29 17 22 24 25 41 43 39 36 30 27 25 25 24 28 28 28 28 28 26
47 46 45 45 45 47 48 47 46 46 46 46 47 48 48 47 46 46 49 50 49 49 49 47 47 43 41 30 23 29 34 28 24 37 36 33 36 33 33 29 30 28 27 27 26 26 25
45 45 47 46 46 46 46 46 48 46 46 46 46 47 48 48 48 48 49 49 49 48 49 48 46 44 37 39 40 40 36 31 31 30 27 25 23 25 27 28 29 27 28 25 26 26 25
43 43 44 45 46 46 46 46 46 46 46 46 46 47 48 48 48 48 48 48 48 48 49 45 45 43 35 42 39 40 37 31 29 27 22 17 19 20 24 27 25 26 23 24 26 27 25
43 44 46 45 45 45 45 45 46 46 46 46 46 46 47 48 48 47 47 46 46 47 43 43 45 39 37 28 36 37 34 34 29 26 25 13 15 15 25 24 19 21 25 25 24 25 25
43 43 43 45 44 44 43 44 45 45 45 45 45 45 45 47 46 47 45 37 34 34 35 32 33 38 36 37 35 36 34 31 24 24 23 18 11 10 13 24 21 22 25 24 25 25 24
41 42 42 42 42 42 43 44 45 45 45 45 45 45 45 46 46 46 38 32 32 35 33 35 33 32 32 33 29 26 30 25 19 16 24 25 16 12 14 16 22 25 24 24 25 25 25
43 42 42 42 42 42 43 43 43 44 45 45 45 45 45 45 46 40 37 34 37 38 33 30 29 27 28 28 27 21 26 22 17 16 20 19 24 25 13 12 10 12 18 22 23 24 22
41 41 41 41 42 42 42 43 43 43 45 44 44 44 45 46 36 38 32 38 39 39 28 23 27 26 21 25 23 19 19 14 12 8 12 20 20 24 17 10 10 7 11 13 16 19 16
39 39 39 41 41 41 41 42 42 43 44 44 44 44 44 44 40 36 35 40 38 39 12 14 19 23 19 19 14 21 15 14 2 10 14 4 29 26 24 26 11 10 13 13 13 13 13
37 38 38 39 40 41 41 42 42 43 43 43 44 43 43 41 37 39 41 39 37 24 11 15 16 16 18 20 17 22 14 14 13 8 16 5 19 27 28 28 23 16 15 16 18 16 14
38 37 37 38 40 41 41 42 43 43 42 42 43 43 42 42 35 38 40 36 22 15 12 7 10 15 18 24 25 16 19 16 15 13 12 12 14 16 18 14 17 18 18 16 18 20 15
40 39 37 39 41 41 40 41 42 42 42 42 43 44 41 40 40 40 37 31 12 13 11 14 13 19 22 24 27 31 25 18 20 18 15 11 5 13 16 14 14 16 18 19 14 18 19
38 40 38 38 39 39 40 41 41 41 41 42 42 37 36 37 39 39 33 12 15 18 30 26 17 18 19 21 24 29 32 33 32 30 18 18 14 17 14 12 14 14 17 17 18 25 23
37 39 37 39 38 40 40 40 40 41 41 42 39 34 34 37 41 37 30 19 20 25 24 20 14 25 19 22 24 22 32 32 32 35 35 27 24 24 27 16 15 15 18 16 22 15 16
38 37 37 39 39 39 41 40 40 40 41 42 34 29 31 39 39 34 19 22 24 23 23 19 19 18 23 22 25 24 32 33 34 32 34 29 27 26 28 24 20 15 17 22 20 22 16
39 38 39 39 39 40 40 40 41 40 41 38 34 18 33 38 26 29 25 26 29 25 25 25 24 22 28 22 19 24 32 30 36 35 32 31 28 24 25 32 31 29 17 17 21 21 23
39 37 38 40 40 40 40 41 41 41 40 34 30 30 35 36 22 21 29 29 26 25 25 25 23 24 28 21 16 18 21 26 30 33 31 32 28 23 25 29 31 26 24 30 27 27 23
41 39 38 40 39 40 40 41 40 41 41 36 31 23 25 36 34 27 26 25 25 27 27 29 26 25 24 17 20 17 16 21 26 32 33 33 29 28 23 25 30 24 21 30 29 23 25
40 39 38 38 39 40 41 40 40 39 40 37 32 26 27 16 24 27 28 26 24 26 29 30 26 26 25 19 20 22 25 25 25 34 32 31 27 29 28 24 28 29 22 21 29 30 25
40 39 40 40 39 40 41 40 39 39 41 35 28 27 33 27 27 24 23 21 23 21 28 27 28 27 26 24 25 26 28 27 25 28 28 33 29 30 27 27 24 27 27 23 24 30 32
37 39 39 39 40 40 41 40 40 40 40 34 35 34 32 24 24 21 22 24 22 25 27 28 27 27 26 26 31 30 30 30 29 28 25 28 30 28 21 26 24 20 25 23 25 28 32
38 38 36 38 39 40 41 41 41 40 40 34 33 34 30 23 26 23 23 24 25 25 26 27 28 27 28 33 34 31 30 32 32 28 28 24 27 28 25 24 12 23 27 30 33 32 30
39 38 37 38 39 40 41 42 41 41 41 35 34 35 31 20 24 24 23 22 25 27 27 28 28 29 34 33 25 24 23 22 22 25 25 26 27 25 23 22 20 22 30 26 32 32 36
37 36 36 37 38 39 40 41 40 40 41 37 34 36 35 28 24 24 25 25 23 25 26 27 31 32 35 29 23 19 18 21 20 23 24 25 25 25 24 19 13 20 28 32 34 30 36
38 36 38 37 37 38 39 40 41 40 40 38 35 36 34 28 28 28 24 23 27 26 25 27 28 30 32 25 22 21 20 23 18 23 27 22 24 21 22 19 23 28 30 31 24 29 37
39 37 37 38 37 38 39 40 40 40 41 38 34 37 35 30 28 29 29 27 25 25 23 27 25 27 28 24 27 26 22 24 24 28 28 26 19 16 21 19 17 28 32 26 32 34 35
39 38 38 38 37 38 40 40 40 39 41 40 35 37 38 34 28 33 33 33 30 29 29 29 27 27 32 28 28 27 23 29 28 23 33 27 28 23 23 22 27 35 35 39 36 32 34